<?xml version="1.0" encoding="UTF-8" standalone="no" ?>
<gpx xmlns="http://www.topografix.com/GPX/1/1" xmlns:xsi="http://www.w3.org/2001/XMLSchema-instance" xsi:schemaLocation="http://www.topografix.com/GPX/1/1 http://www.topografix.com/GPX/1/1/gpx.xsd" version="1.1" creator="VisuGPX - https://www.visugpx.com">
  <metadata>
    <name>Phaq'u Q'awa 5320 m</name>
    <desc><![CDATA[grp_trc:2025 10 18 Phaq'u Q'awa

]]></desc>
  </metadata>
  <trk>
    <name><![CDATA[2025 10 18 Phaq'u Q'awa

]]></name>
    <cmt><![CDATA[08:14:52]]></cmt>
    <desc><![CDATA[comment ...]]></desc>
    <trkseg>
      <trkpt lat="-18.0994" lon="-69.0294">
        <ele>4380</ele>
        <time>2025-10-18T12:14:51Z</time>
      </trkpt>
      <trkpt lat="-18.09939" lon="-69.02939">
        <ele>4380</ele>
        <time>2025-10-18T12:14:53Z</time>
      </trkpt>
      <trkpt lat="-18.09937" lon="-69.02935">
        <ele>4379</ele>
        <time>2025-10-18T12:14:57Z</time>
      </trkpt>
      <trkpt lat="-18.09936" lon="-69.02931">
        <ele>4379</ele>
        <time>2025-10-18T12:15:01Z</time>
      </trkpt>
      <trkpt lat="-18.09934" lon="-69.02928">
        <ele>4379</ele>
        <time>2025-10-18T12:15:05Z</time>
      </trkpt>
      <trkpt lat="-18.09931" lon="-69.02925">
        <ele>4379</ele>
        <time>2025-10-18T12:15:09Z</time>
      </trkpt>
      <trkpt lat="-18.09923" lon="-69.02922">
        <ele>4379</ele>
        <time>2025-10-18T12:15:19Z</time>
      </trkpt>
      <trkpt lat="-18.0992" lon="-69.02921">
        <ele>4379</ele>
        <time>2025-10-18T12:15:23Z</time>
      </trkpt>
      <trkpt lat="-18.09916" lon="-69.02918">
        <ele>4379</ele>
        <time>2025-10-18T12:15:27Z</time>
      </trkpt>
      <trkpt lat="-18.09907" lon="-69.02916">
        <ele>4378</ele>
        <time>2025-10-18T12:15:39Z</time>
      </trkpt>
      <trkpt lat="-18.09903" lon="-69.02914">
        <ele>4378</ele>
        <time>2025-10-18T12:15:43Z</time>
      </trkpt>
      <trkpt lat="-18.09895" lon="-69.02904">
        <ele>4377</ele>
        <time>2025-10-18T12:15:55Z</time>
      </trkpt>
      <trkpt lat="-18.09893" lon="-69.029">
        <ele>4377</ele>
        <time>2025-10-18T12:15:59Z</time>
      </trkpt>
      <trkpt lat="-18.09892" lon="-69.02896">
        <ele>4377</ele>
        <time>2025-10-18T12:16:03Z</time>
      </trkpt>
      <trkpt lat="-18.09889" lon="-69.02893">
        <ele>4378</ele>
        <time>2025-10-18T12:16:09Z</time>
      </trkpt>
      <trkpt lat="-18.09886" lon="-69.02891">
        <ele>4378</ele>
        <time>2025-10-18T12:16:15Z</time>
      </trkpt>
      <trkpt lat="-18.09885" lon="-69.02887">
        <ele>4377</ele>
        <time>2025-10-18T12:16:27Z</time>
      </trkpt>
      <trkpt lat="-18.09885" lon="-69.02883">
        <ele>4376</ele>
        <time>2025-10-18T12:16:31Z</time>
      </trkpt>
      <trkpt lat="-18.09881" lon="-69.0288">
        <ele>4376</ele>
        <time>2025-10-18T12:16:37Z</time>
      </trkpt>
      <trkpt lat="-18.09878" lon="-69.02878">
        <ele>4376</ele>
        <time>2025-10-18T12:16:43Z</time>
      </trkpt>
      <trkpt lat="-18.09875" lon="-69.02875">
        <ele>4377</ele>
        <time>2025-10-18T12:16:53Z</time>
      </trkpt>
      <trkpt lat="-18.09871" lon="-69.02874">
        <ele>4377</ele>
        <time>2025-10-18T12:16:59Z</time>
      </trkpt>
      <trkpt lat="-18.09868" lon="-69.02872">
        <ele>4377</ele>
        <time>2025-10-18T12:17:05Z</time>
      </trkpt>
      <trkpt lat="-18.09865" lon="-69.02869">
        <ele>4378</ele>
        <time>2025-10-18T12:17:11Z</time>
      </trkpt>
      <trkpt lat="-18.09862" lon="-69.02867">
        <ele>4379</ele>
        <time>2025-10-18T12:17:17Z</time>
      </trkpt>
      <trkpt lat="-18.09858" lon="-69.02868">
        <ele>4379</ele>
        <time>2025-10-18T12:17:23Z</time>
      </trkpt>
      <trkpt lat="-18.09854" lon="-69.02869">
        <ele>4380</ele>
        <time>2025-10-18T12:17:29Z</time>
      </trkpt>
      <trkpt lat="-18.0985" lon="-69.02871">
        <ele>4380</ele>
        <time>2025-10-18T12:17:35Z</time>
      </trkpt>
      <trkpt lat="-18.09847" lon="-69.02871">
        <ele>4381</ele>
        <time>2025-10-18T12:17:41Z</time>
      </trkpt>
      <trkpt lat="-18.09843" lon="-69.02872">
        <ele>4382</ele>
        <time>2025-10-18T12:18:29Z</time>
      </trkpt>
      <trkpt lat="-18.09836" lon="-69.02876">
        <ele>4382</ele>
        <time>2025-10-18T12:18:39Z</time>
      </trkpt>
      <trkpt lat="-18.09824" lon="-69.02882">
        <ele>4381</ele>
        <time>2025-10-18T12:19:29Z</time>
      </trkpt>
      <trkpt lat="-18.09827" lon="-69.02885">
        <ele>4382</ele>
        <time>2025-10-18T12:19:37Z</time>
      </trkpt>
      <trkpt lat="-18.09825" lon="-69.02889">
        <ele>4382</ele>
        <time>2025-10-18T12:19:43Z</time>
      </trkpt>
      <trkpt lat="-18.09823" lon="-69.02892">
        <ele>4383</ele>
        <time>2025-10-18T12:19:53Z</time>
      </trkpt>
      <trkpt lat="-18.0982" lon="-69.0289">
        <ele>4383</ele>
        <time>2025-10-18T12:20:13Z</time>
      </trkpt>
      <trkpt lat="-18.0982" lon="-69.02886">
        <ele>4383</ele>
        <time>2025-10-18T12:20:17Z</time>
      </trkpt>
      <trkpt lat="-18.09817" lon="-69.02889">
        <ele>4383</ele>
        <time>2025-10-18T12:20:41Z</time>
      </trkpt>
      <trkpt lat="-18.09813" lon="-69.02889">
        <ele>4383</ele>
        <time>2025-10-18T12:20:47Z</time>
      </trkpt>
      <trkpt lat="-18.09812" lon="-69.02892">
        <ele>4383</ele>
        <time>2025-10-18T12:20:53Z</time>
      </trkpt>
      <trkpt lat="-18.09807" lon="-69.02899">
        <ele>4383</ele>
        <time>2025-10-18T12:21:49Z</time>
      </trkpt>
      <trkpt lat="-18.09804" lon="-69.02902">
        <ele>4383</ele>
        <time>2025-10-18T12:21:53Z</time>
      </trkpt>
      <trkpt lat="-18.09792" lon="-69.02909">
        <ele>4384</ele>
        <time>2025-10-18T12:22:19Z</time>
      </trkpt>
      <trkpt lat="-18.09797" lon="-69.02908">
        <ele>4384</ele>
        <time>2025-10-18T12:22:31Z</time>
      </trkpt>
      <trkpt lat="-18.09801" lon="-69.02906">
        <ele>4383</ele>
        <time>2025-10-18T12:22:37Z</time>
      </trkpt>
      <trkpt lat="-18.09803" lon="-69.02908">
        <ele>4381</ele>
        <time>2025-10-18T12:23:35Z</time>
      </trkpt>
      <trkpt lat="-18.09801" lon="-69.02912">
        <ele>4382</ele>
        <time>2025-10-18T12:23:47Z</time>
      </trkpt>
      <trkpt lat="-18.09797" lon="-69.02913">
        <ele>4383</ele>
        <time>2025-10-18T12:24:03Z</time>
      </trkpt>
      <trkpt lat="-18.09792" lon="-69.02915">
        <ele>4383</ele>
        <time>2025-10-18T12:24:17Z</time>
      </trkpt>
      <trkpt lat="-18.09789" lon="-69.02919">
        <ele>4383</ele>
        <time>2025-10-18T12:24:23Z</time>
      </trkpt>
      <trkpt lat="-18.09789" lon="-69.02922">
        <ele>4383</ele>
        <time>2025-10-18T12:24:27Z</time>
      </trkpt>
      <trkpt lat="-18.09774" lon="-69.02936">
        <ele>4383</ele>
        <time>2025-10-18T12:24:55Z</time>
      </trkpt>
      <trkpt lat="-18.09772" lon="-69.0294">
        <ele>4383</ele>
        <time>2025-10-18T12:25:07Z</time>
      </trkpt>
      <trkpt lat="-18.09771" lon="-69.02943">
        <ele>4384</ele>
        <time>2025-10-18T12:25:34Z</time>
      </trkpt>
      <trkpt lat="-18.09773" lon="-69.02946">
        <ele>4383</ele>
        <time>2025-10-18T12:25:46Z</time>
      </trkpt>
      <trkpt lat="-18.09772" lon="-69.02949">
        <ele>4384</ele>
        <time>2025-10-18T12:26:38Z</time>
      </trkpt>
      <trkpt lat="-18.09769" lon="-69.02951">
        <ele>4385</ele>
        <time>2025-10-18T12:26:48Z</time>
      </trkpt>
      <trkpt lat="-18.09765" lon="-69.02952">
        <ele>4387</ele>
        <time>2025-10-18T12:27:18Z</time>
      </trkpt>
      <trkpt lat="-18.0976" lon="-69.02954">
        <ele>4387</ele>
        <time>2025-10-18T12:27:24Z</time>
      </trkpt>
      <trkpt lat="-18.09752" lon="-69.02961">
        <ele>4386</ele>
        <time>2025-10-18T12:27:36Z</time>
      </trkpt>
      <trkpt lat="-18.09749" lon="-69.02963">
        <ele>4386</ele>
        <time>2025-10-18T12:27:40Z</time>
      </trkpt>
      <trkpt lat="-18.09741" lon="-69.0297">
        <ele>4385</ele>
        <time>2025-10-18T12:27:52Z</time>
      </trkpt>
      <trkpt lat="-18.09738" lon="-69.02973">
        <ele>4385</ele>
        <time>2025-10-18T12:27:58Z</time>
      </trkpt>
      <trkpt lat="-18.09735" lon="-69.02974">
        <ele>4385</ele>
        <time>2025-10-18T12:28:02Z</time>
      </trkpt>
      <trkpt lat="-18.09732" lon="-69.02976">
        <ele>4385</ele>
        <time>2025-10-18T12:28:06Z</time>
      </trkpt>
      <trkpt lat="-18.09722" lon="-69.02987">
        <ele>4385</ele>
        <time>2025-10-18T12:28:32Z</time>
      </trkpt>
      <trkpt lat="-18.0972" lon="-69.0299">
        <ele>4385</ele>
        <time>2025-10-18T12:28:36Z</time>
      </trkpt>
      <trkpt lat="-18.09712" lon="-69.02998">
        <ele>4386</ele>
        <time>2025-10-18T12:28:48Z</time>
      </trkpt>
      <trkpt lat="-18.0971" lon="-69.03006">
        <ele>4387</ele>
        <time>2025-10-18T12:28:56Z</time>
      </trkpt>
      <trkpt lat="-18.09709" lon="-69.03011">
        <ele>4387</ele>
        <time>2025-10-18T12:29:02Z</time>
      </trkpt>
      <trkpt lat="-18.0971" lon="-69.03015">
        <ele>4388</ele>
        <time>2025-10-18T12:29:14Z</time>
      </trkpt>
      <trkpt lat="-18.09709" lon="-69.03019">
        <ele>4388</ele>
        <time>2025-10-18T12:29:24Z</time>
      </trkpt>
      <trkpt lat="-18.09706" lon="-69.03022">
        <ele>4389</ele>
        <time>2025-10-18T12:29:34Z</time>
      </trkpt>
      <trkpt lat="-18.09706" lon="-69.03027">
        <ele>4389</ele>
        <time>2025-10-18T12:29:40Z</time>
      </trkpt>
      <trkpt lat="-18.09703" lon="-69.03036">
        <ele>4389</ele>
        <time>2025-10-18T12:29:52Z</time>
      </trkpt>
      <trkpt lat="-18.09704" lon="-69.03041">
        <ele>4390</ele>
        <time>2025-10-18T12:30:00Z</time>
      </trkpt>
      <trkpt lat="-18.09704" lon="-69.03045">
        <ele>4389</ele>
        <time>2025-10-18T12:30:08Z</time>
      </trkpt>
      <trkpt lat="-18.09703" lon="-69.03054">
        <ele>4390</ele>
        <time>2025-10-18T12:30:24Z</time>
      </trkpt>
      <trkpt lat="-18.09704" lon="-69.03059">
        <ele>4390</ele>
        <time>2025-10-18T12:30:30Z</time>
      </trkpt>
      <trkpt lat="-18.09708" lon="-69.03059">
        <ele>4389</ele>
        <time>2025-10-18T12:30:36Z</time>
      </trkpt>
      <trkpt lat="-18.09707" lon="-69.03063">
        <ele>4388</ele>
        <time>2025-10-18T12:30:40Z</time>
      </trkpt>
      <trkpt lat="-18.09705" lon="-69.03071">
        <ele>4389</ele>
        <time>2025-10-18T12:30:48Z</time>
      </trkpt>
      <trkpt lat="-18.09704" lon="-69.03075">
        <ele>4390</ele>
        <time>2025-10-18T12:30:52Z</time>
      </trkpt>
      <trkpt lat="-18.09703" lon="-69.03078">
        <ele>4391</ele>
        <time>2025-10-18T12:30:56Z</time>
      </trkpt>
      <trkpt lat="-18.09706" lon="-69.03087">
        <ele>4392</ele>
        <time>2025-10-18T12:31:06Z</time>
      </trkpt>
      <trkpt lat="-18.09707" lon="-69.03091">
        <ele>4392</ele>
        <time>2025-10-18T12:31:10Z</time>
      </trkpt>
      <trkpt lat="-18.09708" lon="-69.03094">
        <ele>4392</ele>
        <time>2025-10-18T12:31:14Z</time>
      </trkpt>
      <trkpt lat="-18.09712" lon="-69.03093">
        <ele>4392</ele>
        <time>2025-10-18T12:31:20Z</time>
      </trkpt>
      <trkpt lat="-18.09713" lon="-69.03097">
        <ele>4394</ele>
        <time>2025-10-18T12:31:28Z</time>
      </trkpt>
      <trkpt lat="-18.09718" lon="-69.03118">
        <ele>4395</ele>
        <time>2025-10-18T12:31:48Z</time>
      </trkpt>
      <trkpt lat="-18.09722" lon="-69.03128">
        <ele>4396</ele>
        <time>2025-10-18T12:32:00Z</time>
      </trkpt>
      <trkpt lat="-18.09723" lon="-69.03133">
        <ele>4396</ele>
        <time>2025-10-18T12:32:06Z</time>
      </trkpt>
      <trkpt lat="-18.09721" lon="-69.03137">
        <ele>4396</ele>
        <time>2025-10-18T12:32:12Z</time>
      </trkpt>
      <trkpt lat="-18.09715" lon="-69.03165">
        <ele>4395</ele>
        <time>2025-10-18T12:32:44Z</time>
      </trkpt>
      <trkpt lat="-18.09715" lon="-69.03169">
        <ele>4394</ele>
        <time>2025-10-18T12:32:48Z</time>
      </trkpt>
      <trkpt lat="-18.09712" lon="-69.03172">
        <ele>4394</ele>
        <time>2025-10-18T12:32:52Z</time>
      </trkpt>
      <trkpt lat="-18.09712" lon="-69.03177">
        <ele>4393</ele>
        <time>2025-10-18T12:32:58Z</time>
      </trkpt>
      <trkpt lat="-18.0969" lon="-69.03206">
        <ele>4392</ele>
        <time>2025-10-18T12:33:30Z</time>
      </trkpt>
      <trkpt lat="-18.09671" lon="-69.03235">
        <ele>4393</ele>
        <time>2025-10-18T12:34:02Z</time>
      </trkpt>
      <trkpt lat="-18.09662" lon="-69.03244">
        <ele>4393</ele>
        <time>2025-10-18T12:34:14Z</time>
      </trkpt>
      <trkpt lat="-18.09644" lon="-69.03274">
        <ele>4394</ele>
        <time>2025-10-18T12:34:46Z</time>
      </trkpt>
      <trkpt lat="-18.09624" lon="-69.03301">
        <ele>4397</ele>
        <time>2025-10-18T12:35:18Z</time>
      </trkpt>
      <trkpt lat="-18.09621" lon="-69.03305">
        <ele>4397</ele>
        <time>2025-10-18T12:35:22Z</time>
      </trkpt>
      <trkpt lat="-18.09615" lon="-69.03321">
        <ele>4398</ele>
        <time>2025-10-18T12:35:38Z</time>
      </trkpt>
      <trkpt lat="-18.09604" lon="-69.03331">
        <ele>4399</ele>
        <time>2025-10-18T12:35:56Z</time>
      </trkpt>
      <trkpt lat="-18.09578" lon="-69.03351">
        <ele>4401</ele>
        <time>2025-10-18T12:36:28Z</time>
      </trkpt>
      <trkpt lat="-18.09555" lon="-69.03366">
        <ele>4401</ele>
        <time>2025-10-18T12:36:58Z</time>
      </trkpt>
      <trkpt lat="-18.09544" lon="-69.03372">
        <ele>4401</ele>
        <time>2025-10-18T12:37:10Z</time>
      </trkpt>
      <trkpt lat="-18.09541" lon="-69.03375">
        <ele>4401</ele>
        <time>2025-10-18T12:37:14Z</time>
      </trkpt>
      <trkpt lat="-18.0954" lon="-69.03378">
        <ele>4401</ele>
        <time>2025-10-18T12:37:18Z</time>
      </trkpt>
      <trkpt lat="-18.09541" lon="-69.03382">
        <ele>4401</ele>
        <time>2025-10-18T12:37:28Z</time>
      </trkpt>
      <trkpt lat="-18.09543" lon="-69.03399">
        <ele>4402</ele>
        <time>2025-10-18T12:37:46Z</time>
      </trkpt>
      <trkpt lat="-18.09544" lon="-69.03404">
        <ele>4403</ele>
        <time>2025-10-18T12:37:52Z</time>
      </trkpt>
      <trkpt lat="-18.09546" lon="-69.03419">
        <ele>4404</ele>
        <time>2025-10-18T12:38:10Z</time>
      </trkpt>
      <trkpt lat="-18.09551" lon="-69.03426">
        <ele>4405</ele>
        <time>2025-10-18T12:38:22Z</time>
      </trkpt>
      <trkpt lat="-18.09553" lon="-69.03434">
        <ele>4406</ele>
        <time>2025-10-18T12:38:34Z</time>
      </trkpt>
      <trkpt lat="-18.09556" lon="-69.03437">
        <ele>4407</ele>
        <time>2025-10-18T12:38:46Z</time>
      </trkpt>
      <trkpt lat="-18.09559" lon="-69.03439">
        <ele>4408</ele>
        <time>2025-10-18T12:39:02Z</time>
      </trkpt>
      <trkpt lat="-18.09559" lon="-69.03443">
        <ele>4409</ele>
        <time>2025-10-18T12:39:14Z</time>
      </trkpt>
      <trkpt lat="-18.0956" lon="-69.03447">
        <ele>4412</ele>
        <time>2025-10-18T12:39:24Z</time>
      </trkpt>
      <trkpt lat="-18.09563" lon="-69.0345">
        <ele>4413</ele>
        <time>2025-10-18T12:39:32Z</time>
      </trkpt>
      <trkpt lat="-18.09559" lon="-69.03457">
        <ele>4417</ele>
        <time>2025-10-18T12:39:50Z</time>
      </trkpt>
      <trkpt lat="-18.09561" lon="-69.03461">
        <ele>4418</ele>
        <time>2025-10-18T12:40:00Z</time>
      </trkpt>
      <trkpt lat="-18.09562" lon="-69.03465">
        <ele>4419</ele>
        <time>2025-10-18T12:40:10Z</time>
      </trkpt>
      <trkpt lat="-18.09568" lon="-69.03476">
        <ele>4422</ele>
        <time>2025-10-18T12:40:34Z</time>
      </trkpt>
      <trkpt lat="-18.09571" lon="-69.03483">
        <ele>4424</ele>
        <time>2025-10-18T12:40:52Z</time>
      </trkpt>
      <trkpt lat="-18.09569" lon="-69.03487">
        <ele>4425</ele>
        <time>2025-10-18T12:41:02Z</time>
      </trkpt>
      <trkpt lat="-18.09566" lon="-69.03486">
        <ele>4426</ele>
        <time>2025-10-18T12:41:16Z</time>
      </trkpt>
      <trkpt lat="-18.09564" lon="-69.03489">
        <ele>4427</ele>
        <time>2025-10-18T12:42:12Z</time>
      </trkpt>
      <trkpt lat="-18.09565" lon="-69.03493">
        <ele>4428</ele>
        <time>2025-10-18T12:42:20Z</time>
      </trkpt>
      <trkpt lat="-18.09567" lon="-69.03497">
        <ele>4429</ele>
        <time>2025-10-18T12:42:34Z</time>
      </trkpt>
      <trkpt lat="-18.09567" lon="-69.03501">
        <ele>4429</ele>
        <time>2025-10-18T12:42:44Z</time>
      </trkpt>
      <trkpt lat="-18.09568" lon="-69.03505">
        <ele>4432</ele>
        <time>2025-10-18T12:43:08Z</time>
      </trkpt>
      <trkpt lat="-18.09569" lon="-69.03509">
        <ele>4432</ele>
        <time>2025-10-18T12:43:14Z</time>
      </trkpt>
      <trkpt lat="-18.09568" lon="-69.03512">
        <ele>4432</ele>
        <time>2025-10-18T12:43:22Z</time>
      </trkpt>
      <trkpt lat="-18.09566" lon="-69.03516">
        <ele>4433</ele>
        <time>2025-10-18T12:43:32Z</time>
      </trkpt>
      <trkpt lat="-18.09567" lon="-69.0352">
        <ele>4436</ele>
        <time>2025-10-18T12:43:42Z</time>
      </trkpt>
      <trkpt lat="-18.09569" lon="-69.03523">
        <ele>4436</ele>
        <time>2025-10-18T12:43:52Z</time>
      </trkpt>
      <trkpt lat="-18.09572" lon="-69.03525">
        <ele>4436</ele>
        <time>2025-10-18T12:44:02Z</time>
      </trkpt>
      <trkpt lat="-18.09575" lon="-69.03527">
        <ele>4438</ele>
        <time>2025-10-18T12:44:12Z</time>
      </trkpt>
      <trkpt lat="-18.09577" lon="-69.03531">
        <ele>4438</ele>
        <time>2025-10-18T12:44:56Z</time>
      </trkpt>
      <trkpt lat="-18.09581" lon="-69.0353">
        <ele>4439</ele>
        <time>2025-10-18T12:45:14Z</time>
      </trkpt>
      <trkpt lat="-18.09584" lon="-69.03532">
        <ele>4440</ele>
        <time>2025-10-18T12:45:44Z</time>
      </trkpt>
      <trkpt lat="-18.09583" lon="-69.03536">
        <ele>4441</ele>
        <time>2025-10-18T12:45:56Z</time>
      </trkpt>
      <trkpt lat="-18.09582" lon="-69.03539">
        <ele>4445</ele>
        <time>2025-10-18T12:46:08Z</time>
      </trkpt>
      <trkpt lat="-18.09586" lon="-69.03541">
        <ele>4446</ele>
        <time>2025-10-18T12:46:18Z</time>
      </trkpt>
      <trkpt lat="-18.09587" lon="-69.03545">
        <ele>4448</ele>
        <time>2025-10-18T12:46:32Z</time>
      </trkpt>
      <trkpt lat="-18.09591" lon="-69.03545">
        <ele>4449</ele>
        <time>2025-10-18T12:46:40Z</time>
      </trkpt>
      <trkpt lat="-18.09594" lon="-69.03547">
        <ele>4451</ele>
        <time>2025-10-18T12:46:56Z</time>
      </trkpt>
      <trkpt lat="-18.09593" lon="-69.03552">
        <ele>4452</ele>
        <time>2025-10-18T12:47:10Z</time>
      </trkpt>
      <trkpt lat="-18.09596" lon="-69.03552">
        <ele>4453</ele>
        <time>2025-10-18T12:47:44Z</time>
      </trkpt>
      <trkpt lat="-18.096" lon="-69.03551">
        <ele>4453</ele>
        <time>2025-10-18T12:49:20Z</time>
      </trkpt>
      <trkpt lat="-18.09601" lon="-69.03555">
        <ele>4453</ele>
        <time>2025-10-18T12:49:32Z</time>
      </trkpt>
      <trkpt lat="-18.096" lon="-69.03559">
        <ele>4455</ele>
        <time>2025-10-18T12:49:42Z</time>
      </trkpt>
      <trkpt lat="-18.09604" lon="-69.03561">
        <ele>4456</ele>
        <time>2025-10-18T12:49:52Z</time>
      </trkpt>
      <trkpt lat="-18.09606" lon="-69.03563">
        <ele>4458</ele>
        <time>2025-10-18T12:50:04Z</time>
      </trkpt>
      <trkpt lat="-18.0961" lon="-69.03564">
        <ele>4460</ele>
        <time>2025-10-18T12:50:12Z</time>
      </trkpt>
      <trkpt lat="-18.09611" lon="-69.03567">
        <ele>4460</ele>
        <time>2025-10-18T12:50:22Z</time>
      </trkpt>
      <trkpt lat="-18.09613" lon="-69.03571">
        <ele>4461</ele>
        <time>2025-10-18T12:50:36Z</time>
      </trkpt>
      <trkpt lat="-18.09615" lon="-69.03574">
        <ele>4463</ele>
        <time>2025-10-18T12:50:50Z</time>
      </trkpt>
      <trkpt lat="-18.09619" lon="-69.03574">
        <ele>4466</ele>
        <time>2025-10-18T12:51:18Z</time>
      </trkpt>
      <trkpt lat="-18.09618" lon="-69.03578">
        <ele>4468</ele>
        <time>2025-10-18T12:52:09Z</time>
      </trkpt>
      <trkpt lat="-18.09617" lon="-69.03582">
        <ele>4472</ele>
        <time>2025-10-18T12:52:23Z</time>
      </trkpt>
      <trkpt lat="-18.09619" lon="-69.03585">
        <ele>4473</ele>
        <time>2025-10-18T12:53:05Z</time>
      </trkpt>
      <trkpt lat="-18.09618" lon="-69.03589">
        <ele>4473</ele>
        <time>2025-10-18T12:53:17Z</time>
      </trkpt>
      <trkpt lat="-18.09614" lon="-69.03597">
        <ele>4475</ele>
        <time>2025-10-18T12:53:39Z</time>
      </trkpt>
      <trkpt lat="-18.09612" lon="-69.03601">
        <ele>4476</ele>
        <time>2025-10-18T12:53:49Z</time>
      </trkpt>
      <trkpt lat="-18.09613" lon="-69.03608">
        <ele>4477</ele>
        <time>2025-10-18T12:54:17Z</time>
      </trkpt>
      <trkpt lat="-18.09617" lon="-69.03609">
        <ele>4478</ele>
        <time>2025-10-18T12:54:27Z</time>
      </trkpt>
      <trkpt lat="-18.09616" lon="-69.03612">
        <ele>4480</ele>
        <time>2025-10-18T12:54:45Z</time>
      </trkpt>
      <trkpt lat="-18.09614" lon="-69.0362">
        <ele>4483</ele>
        <time>2025-10-18T12:55:15Z</time>
      </trkpt>
      <trkpt lat="-18.09613" lon="-69.03624">
        <ele>4483</ele>
        <time>2025-10-18T12:56:04Z</time>
      </trkpt>
      <trkpt lat="-18.09612" lon="-69.03632">
        <ele>4485</ele>
        <time>2025-10-18T12:56:21Z</time>
      </trkpt>
      <trkpt lat="-18.09613" lon="-69.03635">
        <ele>4487</ele>
        <time>2025-10-18T12:56:39Z</time>
      </trkpt>
      <trkpt lat="-18.09615" lon="-69.03638">
        <ele>4489</ele>
        <time>2025-10-18T12:57:01Z</time>
      </trkpt>
      <trkpt lat="-18.09618" lon="-69.03641">
        <ele>4490</ele>
        <time>2025-10-18T12:57:21Z</time>
      </trkpt>
      <trkpt lat="-18.09618" lon="-69.03645">
        <ele>4491</ele>
        <time>2025-10-18T12:59:12Z</time>
      </trkpt>
      <trkpt lat="-18.09616" lon="-69.03649">
        <ele>4491</ele>
        <time>2025-10-18T12:59:24Z</time>
      </trkpt>
      <trkpt lat="-18.09616" lon="-69.03652">
        <ele>4492</ele>
        <time>2025-10-18T12:59:36Z</time>
      </trkpt>
      <trkpt lat="-18.09613" lon="-69.03655">
        <ele>4492</ele>
        <time>2025-10-18T12:59:42Z</time>
      </trkpt>
      <trkpt lat="-18.09613" lon="-69.03663">
        <ele>4494</ele>
        <time>2025-10-18T13:00:10Z</time>
      </trkpt>
      <trkpt lat="-18.09613" lon="-69.03668">
        <ele>4496</ele>
        <time>2025-10-18T13:00:40Z</time>
      </trkpt>
      <trkpt lat="-18.09614" lon="-69.03671">
        <ele>4499</ele>
        <time>2025-10-18T13:01:35Z</time>
      </trkpt>
      <trkpt lat="-18.09617" lon="-69.03674">
        <ele>4500</ele>
        <time>2025-10-18T13:02:07Z</time>
      </trkpt>
      <trkpt lat="-18.0962" lon="-69.03672">
        <ele>4501</ele>
        <time>2025-10-18T13:05:55Z</time>
      </trkpt>
      <trkpt lat="-18.09623" lon="-69.03674">
        <ele>4500</ele>
        <time>2025-10-18T13:07:09Z</time>
      </trkpt>
      <trkpt lat="-18.09624" lon="-69.03677">
        <ele>4501</ele>
        <time>2025-10-18T13:07:29Z</time>
      </trkpt>
      <trkpt lat="-18.09625" lon="-69.0368">
        <ele>4503</ele>
        <time>2025-10-18T13:08:01Z</time>
      </trkpt>
      <trkpt lat="-18.09629" lon="-69.03679">
        <ele>4503</ele>
        <time>2025-10-18T13:08:25Z</time>
      </trkpt>
      <trkpt lat="-18.09633" lon="-69.0368">
        <ele>4504</ele>
        <time>2025-10-18T13:08:53Z</time>
      </trkpt>
      <trkpt lat="-18.09636" lon="-69.03681">
        <ele>4505</ele>
        <time>2025-10-18T13:09:25Z</time>
      </trkpt>
      <trkpt lat="-18.09639" lon="-69.03683">
        <ele>4508</ele>
        <time>2025-10-18T13:09:45Z</time>
      </trkpt>
      <trkpt lat="-18.0964" lon="-69.03687">
        <ele>4509</ele>
        <time>2025-10-18T13:10:09Z</time>
      </trkpt>
      <trkpt lat="-18.09643" lon="-69.03686">
        <ele>4511</ele>
        <time>2025-10-18T13:10:53Z</time>
      </trkpt>
      <trkpt lat="-18.09647" lon="-69.03686">
        <ele>4513</ele>
        <time>2025-10-18T13:11:17Z</time>
      </trkpt>
      <trkpt lat="-18.09649" lon="-69.03683">
        <ele>4513</ele>
        <time>2025-10-18T13:11:27Z</time>
      </trkpt>
      <trkpt lat="-18.0965" lon="-69.03687">
        <ele>4517</ele>
        <time>2025-10-18T13:12:25Z</time>
      </trkpt>
      <trkpt lat="-18.09649" lon="-69.03691">
        <ele>4519</ele>
        <time>2025-10-18T13:12:37Z</time>
      </trkpt>
      <trkpt lat="-18.09653" lon="-69.03692">
        <ele>4520</ele>
        <time>2025-10-18T13:12:55Z</time>
      </trkpt>
      <trkpt lat="-18.09657" lon="-69.03692">
        <ele>4520</ele>
        <time>2025-10-18T13:13:09Z</time>
      </trkpt>
      <trkpt lat="-18.09661" lon="-69.03692">
        <ele>4521</ele>
        <time>2025-10-18T13:13:25Z</time>
      </trkpt>
      <trkpt lat="-18.0966" lon="-69.03695">
        <ele>4522</ele>
        <time>2025-10-18T13:13:51Z</time>
      </trkpt>
      <trkpt lat="-18.09663" lon="-69.03699">
        <ele>4527</ele>
        <time>2025-10-18T13:15:18Z</time>
      </trkpt>
      <trkpt lat="-18.09666" lon="-69.03702">
        <ele>4528</ele>
        <time>2025-10-18T13:15:30Z</time>
      </trkpt>
      <trkpt lat="-18.09667" lon="-69.03705">
        <ele>4530</ele>
        <time>2025-10-18T13:15:46Z</time>
      </trkpt>
      <trkpt lat="-18.09669" lon="-69.03708">
        <ele>4531</ele>
        <time>2025-10-18T13:16:04Z</time>
      </trkpt>
      <trkpt lat="-18.09667" lon="-69.03711">
        <ele>4534</ele>
        <time>2025-10-18T13:16:16Z</time>
      </trkpt>
      <trkpt lat="-18.09668" lon="-69.03715">
        <ele>4535</ele>
        <time>2025-10-18T13:16:28Z</time>
      </trkpt>
      <trkpt lat="-18.09666" lon="-69.03719">
        <ele>4537</ele>
        <time>2025-10-18T13:16:40Z</time>
      </trkpt>
      <trkpt lat="-18.09666" lon="-69.03723">
        <ele>4538</ele>
        <time>2025-10-18T13:17:12Z</time>
      </trkpt>
      <trkpt lat="-18.09666" lon="-69.03727">
        <ele>4538</ele>
        <time>2025-10-18T13:17:20Z</time>
      </trkpt>
      <trkpt lat="-18.09666" lon="-69.03731">
        <ele>4539</ele>
        <time>2025-10-18T13:17:28Z</time>
      </trkpt>
      <trkpt lat="-18.09664" lon="-69.03734">
        <ele>4540</ele>
        <time>2025-10-18T13:17:38Z</time>
      </trkpt>
      <trkpt lat="-18.09662" lon="-69.03738">
        <ele>4540</ele>
        <time>2025-10-18T13:17:48Z</time>
      </trkpt>
      <trkpt lat="-18.0966" lon="-69.0374">
        <ele>4540</ele>
        <time>2025-10-18T13:17:56Z</time>
      </trkpt>
      <trkpt lat="-18.0966" lon="-69.03744">
        <ele>4540</ele>
        <time>2025-10-18T13:18:16Z</time>
      </trkpt>
      <trkpt lat="-18.0966" lon="-69.03748">
        <ele>4540</ele>
        <time>2025-10-18T13:18:24Z</time>
      </trkpt>
      <trkpt lat="-18.0966" lon="-69.03753">
        <ele>4541</ele>
        <time>2025-10-18T13:18:42Z</time>
      </trkpt>
      <trkpt lat="-18.09661" lon="-69.03756">
        <ele>4543</ele>
        <time>2025-10-18T13:19:18Z</time>
      </trkpt>
      <trkpt lat="-18.09661" lon="-69.0376">
        <ele>4543</ele>
        <time>2025-10-18T13:19:28Z</time>
      </trkpt>
      <trkpt lat="-18.09659" lon="-69.03764">
        <ele>4545</ele>
        <time>2025-10-18T13:19:38Z</time>
      </trkpt>
      <trkpt lat="-18.09665" lon="-69.03774">
        <ele>4547</ele>
        <time>2025-10-18T13:19:58Z</time>
      </trkpt>
      <trkpt lat="-18.09666" lon="-69.03778">
        <ele>4548</ele>
        <time>2025-10-18T13:20:04Z</time>
      </trkpt>
      <trkpt lat="-18.09664" lon="-69.03781">
        <ele>4549</ele>
        <time>2025-10-18T13:20:14Z</time>
      </trkpt>
      <trkpt lat="-18.09663" lon="-69.03785">
        <ele>4550</ele>
        <time>2025-10-18T13:20:22Z</time>
      </trkpt>
      <trkpt lat="-18.0966" lon="-69.03792">
        <ele>4551</ele>
        <time>2025-10-18T13:20:38Z</time>
      </trkpt>
      <trkpt lat="-18.09655" lon="-69.03808">
        <ele>4555</ele>
        <time>2025-10-18T13:21:12Z</time>
      </trkpt>
      <trkpt lat="-18.09654" lon="-69.03811">
        <ele>4555</ele>
        <time>2025-10-18T13:21:20Z</time>
      </trkpt>
      <trkpt lat="-18.09651" lon="-69.03818">
        <ele>4556</ele>
        <time>2025-10-18T13:21:36Z</time>
      </trkpt>
      <trkpt lat="-18.0965" lon="-69.03822">
        <ele>4557</ele>
        <time>2025-10-18T13:21:44Z</time>
      </trkpt>
      <trkpt lat="-18.09648" lon="-69.03826">
        <ele>4557</ele>
        <time>2025-10-18T13:21:50Z</time>
      </trkpt>
      <trkpt lat="-18.09644" lon="-69.03834">
        <ele>4559</ele>
        <time>2025-10-18T13:22:06Z</time>
      </trkpt>
      <trkpt lat="-18.09644" lon="-69.03838">
        <ele>4559</ele>
        <time>2025-10-18T13:22:16Z</time>
      </trkpt>
      <trkpt lat="-18.09642" lon="-69.03842">
        <ele>4560</ele>
        <time>2025-10-18T13:22:24Z</time>
      </trkpt>
      <trkpt lat="-18.0964" lon="-69.03845">
        <ele>4561</ele>
        <time>2025-10-18T13:22:36Z</time>
      </trkpt>
      <trkpt lat="-18.09636" lon="-69.03861">
        <ele>4563</ele>
        <time>2025-10-18T13:23:04Z</time>
      </trkpt>
      <trkpt lat="-18.09638" lon="-69.03869">
        <ele>4566</ele>
        <time>2025-10-18T13:23:24Z</time>
      </trkpt>
      <trkpt lat="-18.09638" lon="-69.03873">
        <ele>4567</ele>
        <time>2025-10-18T13:23:36Z</time>
      </trkpt>
      <trkpt lat="-18.09638" lon="-69.03877">
        <ele>4567</ele>
        <time>2025-10-18T13:23:46Z</time>
      </trkpt>
      <trkpt lat="-18.09637" lon="-69.03882">
        <ele>4568</ele>
        <time>2025-10-18T13:23:56Z</time>
      </trkpt>
      <trkpt lat="-18.09638" lon="-69.03885">
        <ele>4569</ele>
        <time>2025-10-18T13:24:10Z</time>
      </trkpt>
      <trkpt lat="-18.09636" lon="-69.03893">
        <ele>4571</ele>
        <time>2025-10-18T13:24:28Z</time>
      </trkpt>
      <trkpt lat="-18.09635" lon="-69.03897">
        <ele>4571</ele>
        <time>2025-10-18T13:24:36Z</time>
      </trkpt>
      <trkpt lat="-18.09635" lon="-69.03901">
        <ele>4571</ele>
        <time>2025-10-18T13:24:46Z</time>
      </trkpt>
      <trkpt lat="-18.09635" lon="-69.03905">
        <ele>4572</ele>
        <time>2025-10-18T13:24:56Z</time>
      </trkpt>
      <trkpt lat="-18.09635" lon="-69.03909">
        <ele>4573</ele>
        <time>2025-10-18T13:25:08Z</time>
      </trkpt>
      <trkpt lat="-18.09633" lon="-69.03913">
        <ele>4574</ele>
        <time>2025-10-18T13:25:18Z</time>
      </trkpt>
      <trkpt lat="-18.09631" lon="-69.03916">
        <ele>4575</ele>
        <time>2025-10-18T13:25:30Z</time>
      </trkpt>
      <trkpt lat="-18.09628" lon="-69.0392">
        <ele>4576</ele>
        <time>2025-10-18T13:25:38Z</time>
      </trkpt>
      <trkpt lat="-18.09626" lon="-69.03924">
        <ele>4576</ele>
        <time>2025-10-18T13:25:58Z</time>
      </trkpt>
      <trkpt lat="-18.09624" lon="-69.03927">
        <ele>4577</ele>
        <time>2025-10-18T13:26:06Z</time>
      </trkpt>
      <trkpt lat="-18.09624" lon="-69.03935">
        <ele>4576</ele>
        <time>2025-10-18T13:26:22Z</time>
      </trkpt>
      <trkpt lat="-18.09624" lon="-69.0394">
        <ele>4576</ele>
        <time>2025-10-18T13:26:30Z</time>
      </trkpt>
      <trkpt lat="-18.09623" lon="-69.03945">
        <ele>4576</ele>
        <time>2025-10-18T13:26:38Z</time>
      </trkpt>
      <trkpt lat="-18.0962" lon="-69.03952">
        <ele>4577</ele>
        <time>2025-10-18T13:26:50Z</time>
      </trkpt>
      <trkpt lat="-18.09617" lon="-69.03956">
        <ele>4578</ele>
        <time>2025-10-18T13:26:58Z</time>
      </trkpt>
      <trkpt lat="-18.09616" lon="-69.03959">
        <ele>4578</ele>
        <time>2025-10-18T13:27:06Z</time>
      </trkpt>
      <trkpt lat="-18.09613" lon="-69.03961">
        <ele>4578</ele>
        <time>2025-10-18T13:27:12Z</time>
      </trkpt>
      <trkpt lat="-18.0961" lon="-69.03964">
        <ele>4579</ele>
        <time>2025-10-18T13:27:20Z</time>
      </trkpt>
      <trkpt lat="-18.0961" lon="-69.03968">
        <ele>4579</ele>
        <time>2025-10-18T13:27:32Z</time>
      </trkpt>
      <trkpt lat="-18.0961" lon="-69.03972">
        <ele>4580</ele>
        <time>2025-10-18T13:27:40Z</time>
      </trkpt>
      <trkpt lat="-18.0961" lon="-69.03976">
        <ele>4580</ele>
        <time>2025-10-18T13:27:50Z</time>
      </trkpt>
      <trkpt lat="-18.09606" lon="-69.03979">
        <ele>4580</ele>
        <time>2025-10-18T13:27:58Z</time>
      </trkpt>
      <trkpt lat="-18.09606" lon="-69.03984">
        <ele>4581</ele>
        <time>2025-10-18T13:28:06Z</time>
      </trkpt>
      <trkpt lat="-18.09604" lon="-69.03991">
        <ele>4583</ele>
        <time>2025-10-18T13:28:18Z</time>
      </trkpt>
      <trkpt lat="-18.09604" lon="-69.03995">
        <ele>4582</ele>
        <time>2025-10-18T13:28:24Z</time>
      </trkpt>
      <trkpt lat="-18.09601" lon="-69.04011">
        <ele>4583</ele>
        <time>2025-10-18T13:28:52Z</time>
      </trkpt>
      <trkpt lat="-18.09598" lon="-69.04014">
        <ele>4583</ele>
        <time>2025-10-18T13:28:58Z</time>
      </trkpt>
      <trkpt lat="-18.09595" lon="-69.04017">
        <ele>4584</ele>
        <time>2025-10-18T13:29:06Z</time>
      </trkpt>
      <trkpt lat="-18.09595" lon="-69.04021">
        <ele>4584</ele>
        <time>2025-10-18T13:29:12Z</time>
      </trkpt>
      <trkpt lat="-18.0959" lon="-69.04033">
        <ele>4588</ele>
        <time>2025-10-18T13:29:36Z</time>
      </trkpt>
      <trkpt lat="-18.0959" lon="-69.04037">
        <ele>4590</ele>
        <time>2025-10-18T13:29:44Z</time>
      </trkpt>
      <trkpt lat="-18.09591" lon="-69.04042">
        <ele>4590</ele>
        <time>2025-10-18T13:29:52Z</time>
      </trkpt>
      <trkpt lat="-18.09591" lon="-69.04046">
        <ele>4591</ele>
        <time>2025-10-18T13:30:00Z</time>
      </trkpt>
      <trkpt lat="-18.09589" lon="-69.0405">
        <ele>4591</ele>
        <time>2025-10-18T13:30:08Z</time>
      </trkpt>
      <trkpt lat="-18.09587" lon="-69.04054">
        <ele>4591</ele>
        <time>2025-10-18T13:30:18Z</time>
      </trkpt>
      <trkpt lat="-18.09586" lon="-69.04058">
        <ele>4594</ele>
        <time>2025-10-18T13:30:28Z</time>
      </trkpt>
      <trkpt lat="-18.09585" lon="-69.04063">
        <ele>4595</ele>
        <time>2025-10-18T13:30:38Z</time>
      </trkpt>
      <trkpt lat="-18.09582" lon="-69.04078">
        <ele>4596</ele>
        <time>2025-10-18T13:31:12Z</time>
      </trkpt>
      <trkpt lat="-18.09577" lon="-69.0409">
        <ele>4598</ele>
        <time>2025-10-18T13:31:42Z</time>
      </trkpt>
      <trkpt lat="-18.09576" lon="-69.04094">
        <ele>4599</ele>
        <time>2025-10-18T13:31:52Z</time>
      </trkpt>
      <trkpt lat="-18.09575" lon="-69.04098">
        <ele>4600</ele>
        <time>2025-10-18T13:32:02Z</time>
      </trkpt>
      <trkpt lat="-18.09574" lon="-69.04103">
        <ele>4602</ele>
        <time>2025-10-18T13:32:12Z</time>
      </trkpt>
      <trkpt lat="-18.09574" lon="-69.04107">
        <ele>4602</ele>
        <time>2025-10-18T13:32:20Z</time>
      </trkpt>
      <trkpt lat="-18.09574" lon="-69.0411">
        <ele>4604</ele>
        <time>2025-10-18T13:32:28Z</time>
      </trkpt>
      <trkpt lat="-18.09574" lon="-69.04115">
        <ele>4604</ele>
        <time>2025-10-18T13:32:36Z</time>
      </trkpt>
      <trkpt lat="-18.09572" lon="-69.04118">
        <ele>4605</ele>
        <time>2025-10-18T13:32:42Z</time>
      </trkpt>
      <trkpt lat="-18.0957" lon="-69.04121">
        <ele>4605</ele>
        <time>2025-10-18T13:32:48Z</time>
      </trkpt>
      <trkpt lat="-18.09565" lon="-69.04127">
        <ele>4606</ele>
        <time>2025-10-18T13:33:04Z</time>
      </trkpt>
      <trkpt lat="-18.09563" lon="-69.04144">
        <ele>4608</ele>
        <time>2025-10-18T13:33:54Z</time>
      </trkpt>
      <trkpt lat="-18.09557" lon="-69.04156">
        <ele>4610</ele>
        <time>2025-10-18T13:34:20Z</time>
      </trkpt>
      <trkpt lat="-18.09555" lon="-69.04159">
        <ele>4610</ele>
        <time>2025-10-18T13:34:26Z</time>
      </trkpt>
      <trkpt lat="-18.09555" lon="-69.04175">
        <ele>4614</ele>
        <time>2025-10-18T13:34:58Z</time>
      </trkpt>
      <trkpt lat="-18.09555" lon="-69.04179">
        <ele>4615</ele>
        <time>2025-10-18T13:35:08Z</time>
      </trkpt>
      <trkpt lat="-18.09557" lon="-69.04182">
        <ele>4615</ele>
        <time>2025-10-18T13:35:24Z</time>
      </trkpt>
      <trkpt lat="-18.09556" lon="-69.04187">
        <ele>4614</ele>
        <time>2025-10-18T13:36:35Z</time>
      </trkpt>
      <trkpt lat="-18.09555" lon="-69.04199">
        <ele>4618</ele>
        <time>2025-10-18T13:36:59Z</time>
      </trkpt>
      <trkpt lat="-18.09555" lon="-69.04203">
        <ele>4618</ele>
        <time>2025-10-18T13:37:07Z</time>
      </trkpt>
      <trkpt lat="-18.09556" lon="-69.04207">
        <ele>4618</ele>
        <time>2025-10-18T13:37:15Z</time>
      </trkpt>
      <trkpt lat="-18.09555" lon="-69.04211">
        <ele>4618</ele>
        <time>2025-10-18T13:37:23Z</time>
      </trkpt>
      <trkpt lat="-18.09552" lon="-69.04224">
        <ele>4622</ele>
        <time>2025-10-18T13:37:47Z</time>
      </trkpt>
      <trkpt lat="-18.09549" lon="-69.04231">
        <ele>4623</ele>
        <time>2025-10-18T13:38:01Z</time>
      </trkpt>
      <trkpt lat="-18.09548" lon="-69.04235">
        <ele>4623</ele>
        <time>2025-10-18T13:38:07Z</time>
      </trkpt>
      <trkpt lat="-18.09547" lon="-69.04243">
        <ele>4624</ele>
        <time>2025-10-18T13:38:23Z</time>
      </trkpt>
      <trkpt lat="-18.09547" lon="-69.04248">
        <ele>4624</ele>
        <time>2025-10-18T13:38:31Z</time>
      </trkpt>
      <trkpt lat="-18.09547" lon="-69.04251">
        <ele>4624</ele>
        <time>2025-10-18T13:38:37Z</time>
      </trkpt>
      <trkpt lat="-18.09546" lon="-69.04255">
        <ele>4624</ele>
        <time>2025-10-18T13:38:43Z</time>
      </trkpt>
      <trkpt lat="-18.09546" lon="-69.04259">
        <ele>4626</ele>
        <time>2025-10-18T13:38:51Z</time>
      </trkpt>
      <trkpt lat="-18.09545" lon="-69.04263">
        <ele>4626</ele>
        <time>2025-10-18T13:38:57Z</time>
      </trkpt>
      <trkpt lat="-18.09544" lon="-69.04267">
        <ele>4627</ele>
        <time>2025-10-18T13:39:05Z</time>
      </trkpt>
      <trkpt lat="-18.09544" lon="-69.04271">
        <ele>4627</ele>
        <time>2025-10-18T13:39:13Z</time>
      </trkpt>
      <trkpt lat="-18.09543" lon="-69.04275">
        <ele>4628</ele>
        <time>2025-10-18T13:39:19Z</time>
      </trkpt>
      <trkpt lat="-18.09542" lon="-69.04279">
        <ele>4629</ele>
        <time>2025-10-18T13:39:27Z</time>
      </trkpt>
      <trkpt lat="-18.0954" lon="-69.04283">
        <ele>4629</ele>
        <time>2025-10-18T13:39:33Z</time>
      </trkpt>
      <trkpt lat="-18.0954" lon="-69.04286">
        <ele>4630</ele>
        <time>2025-10-18T13:39:41Z</time>
      </trkpt>
      <trkpt lat="-18.09537" lon="-69.04294">
        <ele>4633</ele>
        <time>2025-10-18T13:39:57Z</time>
      </trkpt>
      <trkpt lat="-18.09537" lon="-69.04303">
        <ele>4633</ele>
        <time>2025-10-18T13:40:09Z</time>
      </trkpt>
      <trkpt lat="-18.09536" lon="-69.04308">
        <ele>4634</ele>
        <time>2025-10-18T13:40:17Z</time>
      </trkpt>
      <trkpt lat="-18.09533" lon="-69.0432">
        <ele>4637</ele>
        <time>2025-10-18T13:40:37Z</time>
      </trkpt>
      <trkpt lat="-18.09529" lon="-69.04335">
        <ele>4636</ele>
        <time>2025-10-18T13:41:03Z</time>
      </trkpt>
      <trkpt lat="-18.09522" lon="-69.04346">
        <ele>4637</ele>
        <time>2025-10-18T13:41:25Z</time>
      </trkpt>
      <trkpt lat="-18.09521" lon="-69.04358">
        <ele>4639</ele>
        <time>2025-10-18T13:41:45Z</time>
      </trkpt>
      <trkpt lat="-18.0952" lon="-69.04362">
        <ele>4640</ele>
        <time>2025-10-18T13:41:53Z</time>
      </trkpt>
      <trkpt lat="-18.09516" lon="-69.04369">
        <ele>4641</ele>
        <time>2025-10-18T13:42:07Z</time>
      </trkpt>
      <trkpt lat="-18.09515" lon="-69.04373">
        <ele>4640</ele>
        <time>2025-10-18T13:42:15Z</time>
      </trkpt>
      <trkpt lat="-18.09515" lon="-69.04377">
        <ele>4641</ele>
        <time>2025-10-18T13:42:25Z</time>
      </trkpt>
      <trkpt lat="-18.09514" lon="-69.04381">
        <ele>4642</ele>
        <time>2025-10-18T13:42:33Z</time>
      </trkpt>
      <trkpt lat="-18.09511" lon="-69.04385">
        <ele>4642</ele>
        <time>2025-10-18T13:42:41Z</time>
      </trkpt>
      <trkpt lat="-18.09511" lon="-69.04389">
        <ele>4643</ele>
        <time>2025-10-18T13:42:47Z</time>
      </trkpt>
      <trkpt lat="-18.09511" lon="-69.04393">
        <ele>4644</ele>
        <time>2025-10-18T13:42:57Z</time>
      </trkpt>
      <trkpt lat="-18.09509" lon="-69.04402">
        <ele>4646</ele>
        <time>2025-10-18T13:43:17Z</time>
      </trkpt>
      <trkpt lat="-18.09508" lon="-69.04406">
        <ele>4647</ele>
        <time>2025-10-18T13:43:27Z</time>
      </trkpt>
      <trkpt lat="-18.09508" lon="-69.0441">
        <ele>4648</ele>
        <time>2025-10-18T13:43:37Z</time>
      </trkpt>
      <trkpt lat="-18.09509" lon="-69.04414">
        <ele>4648</ele>
        <time>2025-10-18T13:43:45Z</time>
      </trkpt>
      <trkpt lat="-18.09509" lon="-69.04418">
        <ele>4649</ele>
        <time>2025-10-18T13:43:53Z</time>
      </trkpt>
      <trkpt lat="-18.09509" lon="-69.04422">
        <ele>4650</ele>
        <time>2025-10-18T13:44:03Z</time>
      </trkpt>
      <trkpt lat="-18.0951" lon="-69.04426">
        <ele>4651</ele>
        <time>2025-10-18T13:44:13Z</time>
      </trkpt>
      <trkpt lat="-18.09508" lon="-69.04434">
        <ele>4653</ele>
        <time>2025-10-18T13:44:29Z</time>
      </trkpt>
      <trkpt lat="-18.0951" lon="-69.04438">
        <ele>4653</ele>
        <time>2025-10-18T13:44:37Z</time>
      </trkpt>
      <trkpt lat="-18.09513" lon="-69.04442">
        <ele>4654</ele>
        <time>2025-10-18T13:44:47Z</time>
      </trkpt>
      <trkpt lat="-18.09516" lon="-69.04443">
        <ele>4654</ele>
        <time>2025-10-18T13:44:53Z</time>
      </trkpt>
      <trkpt lat="-18.0952" lon="-69.04444">
        <ele>4655</ele>
        <time>2025-10-18T13:45:01Z</time>
      </trkpt>
      <trkpt lat="-18.09523" lon="-69.04465">
        <ele>4656</ele>
        <time>2025-10-18T13:45:33Z</time>
      </trkpt>
      <trkpt lat="-18.09518" lon="-69.04485">
        <ele>4657</ele>
        <time>2025-10-18T13:46:03Z</time>
      </trkpt>
      <trkpt lat="-18.09515" lon="-69.04494">
        <ele>4658</ele>
        <time>2025-10-18T13:46:15Z</time>
      </trkpt>
      <trkpt lat="-18.09512" lon="-69.04502">
        <ele>4659</ele>
        <time>2025-10-18T13:46:27Z</time>
      </trkpt>
      <trkpt lat="-18.09512" lon="-69.04506">
        <ele>4659</ele>
        <time>2025-10-18T13:46:33Z</time>
      </trkpt>
      <trkpt lat="-18.09512" lon="-69.0451">
        <ele>4659</ele>
        <time>2025-10-18T13:46:39Z</time>
      </trkpt>
      <trkpt lat="-18.09509" lon="-69.04522">
        <ele>4661</ele>
        <time>2025-10-18T13:46:59Z</time>
      </trkpt>
      <trkpt lat="-18.09509" lon="-69.04526">
        <ele>4661</ele>
        <time>2025-10-18T13:47:05Z</time>
      </trkpt>
      <trkpt lat="-18.09507" lon="-69.04534">
        <ele>4663</ele>
        <time>2025-10-18T13:47:17Z</time>
      </trkpt>
      <trkpt lat="-18.09506" lon="-69.04538">
        <ele>4663</ele>
        <time>2025-10-18T13:47:23Z</time>
      </trkpt>
      <trkpt lat="-18.09506" lon="-69.04542">
        <ele>4663</ele>
        <time>2025-10-18T13:47:29Z</time>
      </trkpt>
      <trkpt lat="-18.09505" lon="-69.04546">
        <ele>4664</ele>
        <time>2025-10-18T13:47:35Z</time>
      </trkpt>
      <trkpt lat="-18.09502" lon="-69.04553">
        <ele>4664</ele>
        <time>2025-10-18T13:47:47Z</time>
      </trkpt>
      <trkpt lat="-18.09498" lon="-69.04556">
        <ele>4664</ele>
        <time>2025-10-18T13:47:55Z</time>
      </trkpt>
      <trkpt lat="-18.09496" lon="-69.0456">
        <ele>4665</ele>
        <time>2025-10-18T13:48:03Z</time>
      </trkpt>
      <trkpt lat="-18.09494" lon="-69.04564">
        <ele>4665</ele>
        <time>2025-10-18T13:48:23Z</time>
      </trkpt>
      <trkpt lat="-18.09491" lon="-69.04567">
        <ele>4665</ele>
        <time>2025-10-18T13:48:29Z</time>
      </trkpt>
      <trkpt lat="-18.09485" lon="-69.04582">
        <ele>4668</ele>
        <time>2025-10-18T13:48:55Z</time>
      </trkpt>
      <trkpt lat="-18.09481" lon="-69.04591">
        <ele>4668</ele>
        <time>2025-10-18T13:49:09Z</time>
      </trkpt>
      <trkpt lat="-18.09478" lon="-69.04594">
        <ele>4668</ele>
        <time>2025-10-18T13:49:15Z</time>
      </trkpt>
      <trkpt lat="-18.09475" lon="-69.04602">
        <ele>4670</ele>
        <time>2025-10-18T13:49:27Z</time>
      </trkpt>
      <trkpt lat="-18.09472" lon="-69.04604">
        <ele>4670</ele>
        <time>2025-10-18T13:49:37Z</time>
      </trkpt>
      <trkpt lat="-18.09468" lon="-69.04603">
        <ele>4670</ele>
        <time>2025-10-18T13:49:43Z</time>
      </trkpt>
      <trkpt lat="-18.09468" lon="-69.04607">
        <ele>4670</ele>
        <time>2025-10-18T13:52:51Z</time>
      </trkpt>
      <trkpt lat="-18.09468" lon="-69.04611">
        <ele>4669</ele>
        <time>2025-10-18T13:52:57Z</time>
      </trkpt>
      <trkpt lat="-18.09468" lon="-69.04615">
        <ele>4670</ele>
        <time>2025-10-18T13:53:03Z</time>
      </trkpt>
      <trkpt lat="-18.09467" lon="-69.0462">
        <ele>4670</ele>
        <time>2025-10-18T13:53:09Z</time>
      </trkpt>
      <trkpt lat="-18.09463" lon="-69.04628">
        <ele>4670</ele>
        <time>2025-10-18T13:53:23Z</time>
      </trkpt>
      <trkpt lat="-18.09462" lon="-69.04637">
        <ele>4671</ele>
        <time>2025-10-18T13:53:37Z</time>
      </trkpt>
      <trkpt lat="-18.09451" lon="-69.04654">
        <ele>4674</ele>
        <time>2025-10-18T13:54:09Z</time>
      </trkpt>
      <trkpt lat="-18.09449" lon="-69.04662">
        <ele>4676</ele>
        <time>2025-10-18T13:54:23Z</time>
      </trkpt>
      <trkpt lat="-18.09446" lon="-69.04665">
        <ele>4676</ele>
        <time>2025-10-18T13:54:29Z</time>
      </trkpt>
      <trkpt lat="-18.09444" lon="-69.04668">
        <ele>4676</ele>
        <time>2025-10-18T13:54:35Z</time>
      </trkpt>
      <trkpt lat="-18.09442" lon="-69.04671">
        <ele>4677</ele>
        <time>2025-10-18T13:54:41Z</time>
      </trkpt>
      <trkpt lat="-18.09441" lon="-69.04674">
        <ele>4677</ele>
        <time>2025-10-18T13:54:47Z</time>
      </trkpt>
      <trkpt lat="-18.09438" lon="-69.04678">
        <ele>4677</ele>
        <time>2025-10-18T13:54:55Z</time>
      </trkpt>
      <trkpt lat="-18.09436" lon="-69.04681">
        <ele>4677</ele>
        <time>2025-10-18T13:55:01Z</time>
      </trkpt>
      <trkpt lat="-18.09432" lon="-69.04693">
        <ele>4678</ele>
        <time>2025-10-18T13:55:19Z</time>
      </trkpt>
      <trkpt lat="-18.09422" lon="-69.04705">
        <ele>4681</ele>
        <time>2025-10-18T13:55:47Z</time>
      </trkpt>
      <trkpt lat="-18.09416" lon="-69.0471">
        <ele>4682</ele>
        <time>2025-10-18T13:56:01Z</time>
      </trkpt>
      <trkpt lat="-18.09411" lon="-69.04717">
        <ele>4684</ele>
        <time>2025-10-18T13:56:17Z</time>
      </trkpt>
      <trkpt lat="-18.09408" lon="-69.0472">
        <ele>4685</ele>
        <time>2025-10-18T13:56:25Z</time>
      </trkpt>
      <trkpt lat="-18.09402" lon="-69.04726">
        <ele>4686</ele>
        <time>2025-10-18T13:56:41Z</time>
      </trkpt>
      <trkpt lat="-18.09391" lon="-69.0474">
        <ele>4691</ele>
        <time>2025-10-18T13:57:14Z</time>
      </trkpt>
      <trkpt lat="-18.09388" lon="-69.04748">
        <ele>4692</ele>
        <time>2025-10-18T13:57:30Z</time>
      </trkpt>
      <trkpt lat="-18.09386" lon="-69.04752">
        <ele>4692</ele>
        <time>2025-10-18T13:57:38Z</time>
      </trkpt>
      <trkpt lat="-18.09385" lon="-69.04755">
        <ele>4693</ele>
        <time>2025-10-18T13:57:48Z</time>
      </trkpt>
      <trkpt lat="-18.09376" lon="-69.04769">
        <ele>4696</ele>
        <time>2025-10-18T13:58:18Z</time>
      </trkpt>
      <trkpt lat="-18.09375" lon="-69.04773">
        <ele>4697</ele>
        <time>2025-10-18T13:58:26Z</time>
      </trkpt>
      <trkpt lat="-18.09373" lon="-69.04777">
        <ele>4697</ele>
        <time>2025-10-18T13:58:34Z</time>
      </trkpt>
      <trkpt lat="-18.09372" lon="-69.04781">
        <ele>4698</ele>
        <time>2025-10-18T13:58:42Z</time>
      </trkpt>
      <trkpt lat="-18.09375" lon="-69.04783">
        <ele>4698</ele>
        <time>2025-10-18T13:58:50Z</time>
      </trkpt>
      <trkpt lat="-18.09378" lon="-69.04784">
        <ele>4698</ele>
        <time>2025-10-18T13:58:58Z</time>
      </trkpt>
      <trkpt lat="-18.09376" lon="-69.04788">
        <ele>4699</ele>
        <time>2025-10-18T13:59:20Z</time>
      </trkpt>
      <trkpt lat="-18.09375" lon="-69.04792">
        <ele>4699</ele>
        <time>2025-10-18T13:59:28Z</time>
      </trkpt>
      <trkpt lat="-18.09373" lon="-69.048">
        <ele>4702</ele>
        <time>2025-10-18T13:59:44Z</time>
      </trkpt>
      <trkpt lat="-18.09369" lon="-69.04812">
        <ele>4704</ele>
        <time>2025-10-18T14:00:10Z</time>
      </trkpt>
      <trkpt lat="-18.09365" lon="-69.04825">
        <ele>4706</ele>
        <time>2025-10-18T14:00:36Z</time>
      </trkpt>
      <trkpt lat="-18.09363" lon="-69.04828">
        <ele>4707</ele>
        <time>2025-10-18T14:00:42Z</time>
      </trkpt>
      <trkpt lat="-18.09361" lon="-69.04831">
        <ele>4707</ele>
        <time>2025-10-18T14:00:50Z</time>
      </trkpt>
      <trkpt lat="-18.09353" lon="-69.04845">
        <ele>4709</ele>
        <time>2025-10-18T14:01:20Z</time>
      </trkpt>
      <trkpt lat="-18.09351" lon="-69.04854">
        <ele>4711</ele>
        <time>2025-10-18T14:01:36Z</time>
      </trkpt>
      <trkpt lat="-18.0935" lon="-69.04858">
        <ele>4711</ele>
        <time>2025-10-18T14:01:44Z</time>
      </trkpt>
      <trkpt lat="-18.09344" lon="-69.04874">
        <ele>4713</ele>
        <time>2025-10-18T14:02:18Z</time>
      </trkpt>
      <trkpt lat="-18.09344" lon="-69.04878">
        <ele>4715</ele>
        <time>2025-10-18T14:02:26Z</time>
      </trkpt>
      <trkpt lat="-18.09343" lon="-69.04887">
        <ele>4716</ele>
        <time>2025-10-18T14:02:42Z</time>
      </trkpt>
      <trkpt lat="-18.09342" lon="-69.0489">
        <ele>4717</ele>
        <time>2025-10-18T14:02:50Z</time>
      </trkpt>
      <trkpt lat="-18.09342" lon="-69.04894">
        <ele>4717</ele>
        <time>2025-10-18T14:02:58Z</time>
      </trkpt>
      <trkpt lat="-18.09342" lon="-69.04898">
        <ele>4719</ele>
        <time>2025-10-18T14:03:10Z</time>
      </trkpt>
      <trkpt lat="-18.0934" lon="-69.0491">
        <ele>4721</ele>
        <time>2025-10-18T14:03:32Z</time>
      </trkpt>
      <trkpt lat="-18.09341" lon="-69.04914">
        <ele>4721</ele>
        <time>2025-10-18T14:03:40Z</time>
      </trkpt>
      <trkpt lat="-18.09343" lon="-69.04917">
        <ele>4722</ele>
        <time>2025-10-18T14:04:34Z</time>
      </trkpt>
      <trkpt lat="-18.09343" lon="-69.04926">
        <ele>4722</ele>
        <time>2025-10-18T14:04:48Z</time>
      </trkpt>
      <trkpt lat="-18.09344" lon="-69.0493">
        <ele>4722</ele>
        <time>2025-10-18T14:04:54Z</time>
      </trkpt>
      <trkpt lat="-18.09346" lon="-69.04934">
        <ele>4722</ele>
        <time>2025-10-18T14:05:02Z</time>
      </trkpt>
      <trkpt lat="-18.09347" lon="-69.04942">
        <ele>4724</ele>
        <time>2025-10-18T14:05:18Z</time>
      </trkpt>
      <trkpt lat="-18.09349" lon="-69.04946">
        <ele>4726</ele>
        <time>2025-10-18T14:05:26Z</time>
      </trkpt>
      <trkpt lat="-18.09351" lon="-69.0495">
        <ele>4726</ele>
        <time>2025-10-18T14:05:34Z</time>
      </trkpt>
      <trkpt lat="-18.09353" lon="-69.04953">
        <ele>4727</ele>
        <time>2025-10-18T14:05:42Z</time>
      </trkpt>
      <trkpt lat="-18.09359" lon="-69.04963">
        <ele>4729</ele>
        <time>2025-10-18T14:06:12Z</time>
      </trkpt>
      <trkpt lat="-18.0936" lon="-69.04979">
        <ele>4732</ele>
        <time>2025-10-18T14:06:42Z</time>
      </trkpt>
      <trkpt lat="-18.09359" lon="-69.04983">
        <ele>4732</ele>
        <time>2025-10-18T14:06:48Z</time>
      </trkpt>
      <trkpt lat="-18.09358" lon="-69.04991">
        <ele>4733</ele>
        <time>2025-10-18T14:07:04Z</time>
      </trkpt>
      <trkpt lat="-18.09356" lon="-69.04994">
        <ele>4734</ele>
        <time>2025-10-18T14:07:12Z</time>
      </trkpt>
      <trkpt lat="-18.09354" lon="-69.04997">
        <ele>4735</ele>
        <time>2025-10-18T14:07:20Z</time>
      </trkpt>
      <trkpt lat="-18.09351" lon="-69.05">
        <ele>4736</ele>
        <time>2025-10-18T14:07:28Z</time>
      </trkpt>
      <trkpt lat="-18.09349" lon="-69.05003">
        <ele>4736</ele>
        <time>2025-10-18T14:07:36Z</time>
      </trkpt>
      <trkpt lat="-18.09346" lon="-69.05006">
        <ele>4737</ele>
        <time>2025-10-18T14:07:44Z</time>
      </trkpt>
      <trkpt lat="-18.09348" lon="-69.0501">
        <ele>4738</ele>
        <time>2025-10-18T14:07:52Z</time>
      </trkpt>
      <trkpt lat="-18.09351" lon="-69.05012">
        <ele>4739</ele>
        <time>2025-10-18T14:07:58Z</time>
      </trkpt>
      <trkpt lat="-18.09353" lon="-69.05016">
        <ele>4739</ele>
        <time>2025-10-18T14:08:06Z</time>
      </trkpt>
      <trkpt lat="-18.09358" lon="-69.05027">
        <ele>4741</ele>
        <time>2025-10-18T14:08:38Z</time>
      </trkpt>
      <trkpt lat="-18.09359" lon="-69.0503">
        <ele>4741</ele>
        <time>2025-10-18T14:08:48Z</time>
      </trkpt>
      <trkpt lat="-18.09361" lon="-69.05034">
        <ele>4743</ele>
        <time>2025-10-18T14:08:58Z</time>
      </trkpt>
      <trkpt lat="-18.09363" lon="-69.05038">
        <ele>4744</ele>
        <time>2025-10-18T14:09:08Z</time>
      </trkpt>
      <trkpt lat="-18.09364" lon="-69.05042">
        <ele>4745</ele>
        <time>2025-10-18T14:09:18Z</time>
      </trkpt>
      <trkpt lat="-18.09368" lon="-69.0505">
        <ele>4748</ele>
        <time>2025-10-18T14:09:40Z</time>
      </trkpt>
      <trkpt lat="-18.09368" lon="-69.05054">
        <ele>4749</ele>
        <time>2025-10-18T14:09:52Z</time>
      </trkpt>
      <trkpt lat="-18.09368" lon="-69.05058">
        <ele>4750</ele>
        <time>2025-10-18T14:10:04Z</time>
      </trkpt>
      <trkpt lat="-18.09369" lon="-69.05062">
        <ele>4751</ele>
        <time>2025-10-18T14:10:12Z</time>
      </trkpt>
      <trkpt lat="-18.09369" lon="-69.05066">
        <ele>4752</ele>
        <time>2025-10-18T14:10:22Z</time>
      </trkpt>
      <trkpt lat="-18.09367" lon="-69.0507">
        <ele>4754</ele>
        <time>2025-10-18T14:10:34Z</time>
      </trkpt>
      <trkpt lat="-18.09373" lon="-69.05081">
        <ele>4755</ele>
        <time>2025-10-18T14:11:00Z</time>
      </trkpt>
      <trkpt lat="-18.09375" lon="-69.05084">
        <ele>4757</ele>
        <time>2025-10-18T14:11:10Z</time>
      </trkpt>
      <trkpt lat="-18.09379" lon="-69.05087">
        <ele>4757</ele>
        <time>2025-10-18T14:11:18Z</time>
      </trkpt>
      <trkpt lat="-18.09379" lon="-69.05091">
        <ele>4758</ele>
        <time>2025-10-18T14:11:26Z</time>
      </trkpt>
      <trkpt lat="-18.09379" lon="-69.05095">
        <ele>4759</ele>
        <time>2025-10-18T14:11:34Z</time>
      </trkpt>
      <trkpt lat="-18.09379" lon="-69.05103">
        <ele>4759</ele>
        <time>2025-10-18T14:11:56Z</time>
      </trkpt>
      <trkpt lat="-18.0938" lon="-69.05108">
        <ele>4759</ele>
        <time>2025-10-18T14:12:04Z</time>
      </trkpt>
      <trkpt lat="-18.09382" lon="-69.05116">
        <ele>4761</ele>
        <time>2025-10-18T14:12:20Z</time>
      </trkpt>
      <trkpt lat="-18.0938" lon="-69.0512">
        <ele>4762</ele>
        <time>2025-10-18T14:12:30Z</time>
      </trkpt>
      <trkpt lat="-18.09382" lon="-69.05124">
        <ele>4763</ele>
        <time>2025-10-18T14:12:38Z</time>
      </trkpt>
      <trkpt lat="-18.09382" lon="-69.05132">
        <ele>4765</ele>
        <time>2025-10-18T14:12:54Z</time>
      </trkpt>
      <trkpt lat="-18.0938" lon="-69.05136">
        <ele>4766</ele>
        <time>2025-10-18T14:13:06Z</time>
      </trkpt>
      <trkpt lat="-18.09382" lon="-69.05139">
        <ele>4768</ele>
        <time>2025-10-18T14:13:28Z</time>
      </trkpt>
      <trkpt lat="-18.09381" lon="-69.05143">
        <ele>4768</ele>
        <time>2025-10-18T14:14:04Z</time>
      </trkpt>
      <trkpt lat="-18.0938" lon="-69.05147">
        <ele>4768</ele>
        <time>2025-10-18T14:14:10Z</time>
      </trkpt>
      <trkpt lat="-18.09379" lon="-69.05151">
        <ele>4769</ele>
        <time>2025-10-18T14:14:16Z</time>
      </trkpt>
      <trkpt lat="-18.09372" lon="-69.05167">
        <ele>4772</ele>
        <time>2025-10-18T14:14:48Z</time>
      </trkpt>
      <trkpt lat="-18.09367" lon="-69.05178">
        <ele>4776</ele>
        <time>2025-10-18T14:15:08Z</time>
      </trkpt>
      <trkpt lat="-18.09366" lon="-69.05182">
        <ele>4776</ele>
        <time>2025-10-18T14:15:14Z</time>
      </trkpt>
      <trkpt lat="-18.09364" lon="-69.0519">
        <ele>4777</ele>
        <time>2025-10-18T14:15:28Z</time>
      </trkpt>
      <trkpt lat="-18.09363" lon="-69.05194">
        <ele>4779</ele>
        <time>2025-10-18T14:15:34Z</time>
      </trkpt>
      <trkpt lat="-18.09362" lon="-69.0521">
        <ele>4778</ele>
        <time>2025-10-18T14:15:59Z</time>
      </trkpt>
      <trkpt lat="-18.09361" lon="-69.05214">
        <ele>4778</ele>
        <time>2025-10-18T14:16:05Z</time>
      </trkpt>
      <trkpt lat="-18.09361" lon="-69.05218">
        <ele>4779</ele>
        <time>2025-10-18T14:16:13Z</time>
      </trkpt>
      <trkpt lat="-18.09362" lon="-69.05221">
        <ele>4780</ele>
        <time>2025-10-18T14:16:21Z</time>
      </trkpt>
      <trkpt lat="-18.09357" lon="-69.05238">
        <ele>4784</ele>
        <time>2025-10-18T14:16:53Z</time>
      </trkpt>
      <trkpt lat="-18.09353" lon="-69.05254">
        <ele>4786</ele>
        <time>2025-10-18T14:17:25Z</time>
      </trkpt>
      <trkpt lat="-18.09351" lon="-69.05261">
        <ele>4788</ele>
        <time>2025-10-18T14:17:39Z</time>
      </trkpt>
      <trkpt lat="-18.09351" lon="-69.05265">
        <ele>4788</ele>
        <time>2025-10-18T14:17:45Z</time>
      </trkpt>
      <trkpt lat="-18.09347" lon="-69.05281">
        <ele>4789</ele>
        <time>2025-10-18T14:18:19Z</time>
      </trkpt>
      <trkpt lat="-18.09344" lon="-69.05297">
        <ele>4790</ele>
        <time>2025-10-18T14:18:53Z</time>
      </trkpt>
      <trkpt lat="-18.09338" lon="-69.05313">
        <ele>4794</ele>
        <time>2025-10-18T14:19:27Z</time>
      </trkpt>
      <trkpt lat="-18.09336" lon="-69.05325">
        <ele>4796</ele>
        <time>2025-10-18T14:19:53Z</time>
      </trkpt>
      <trkpt lat="-18.09334" lon="-69.05328">
        <ele>4796</ele>
        <time>2025-10-18T14:20:03Z</time>
      </trkpt>
      <trkpt lat="-18.09333" lon="-69.05333">
        <ele>4797</ele>
        <time>2025-10-18T14:20:11Z</time>
      </trkpt>
      <trkpt lat="-18.09332" lon="-69.05336">
        <ele>4798</ele>
        <time>2025-10-18T14:20:19Z</time>
      </trkpt>
      <trkpt lat="-18.0933" lon="-69.05344">
        <ele>4800</ele>
        <time>2025-10-18T14:20:33Z</time>
      </trkpt>
      <trkpt lat="-18.09328" lon="-69.05352">
        <ele>4801</ele>
        <time>2025-10-18T14:20:49Z</time>
      </trkpt>
      <trkpt lat="-18.09322" lon="-69.05367">
        <ele>4805</ele>
        <time>2025-10-18T14:21:27Z</time>
      </trkpt>
      <trkpt lat="-18.09322" lon="-69.05371">
        <ele>4805</ele>
        <time>2025-10-18T14:21:35Z</time>
      </trkpt>
      <trkpt lat="-18.0932" lon="-69.05378">
        <ele>4806</ele>
        <time>2025-10-18T14:21:51Z</time>
      </trkpt>
      <trkpt lat="-18.09318" lon="-69.05385">
        <ele>4806</ele>
        <time>2025-10-18T14:22:03Z</time>
      </trkpt>
      <trkpt lat="-18.09317" lon="-69.0539">
        <ele>4806</ele>
        <time>2025-10-18T14:22:11Z</time>
      </trkpt>
      <trkpt lat="-18.09314" lon="-69.05403">
        <ele>4807</ele>
        <time>2025-10-18T14:22:35Z</time>
      </trkpt>
      <trkpt lat="-18.09313" lon="-69.05406">
        <ele>4808</ele>
        <time>2025-10-18T14:22:43Z</time>
      </trkpt>
      <trkpt lat="-18.09313" lon="-69.0541">
        <ele>4809</ele>
        <time>2025-10-18T14:22:51Z</time>
      </trkpt>
      <trkpt lat="-18.09312" lon="-69.05413">
        <ele>4809</ele>
        <time>2025-10-18T14:22:59Z</time>
      </trkpt>
      <trkpt lat="-18.0931" lon="-69.05426">
        <ele>4810</ele>
        <time>2025-10-18T14:23:29Z</time>
      </trkpt>
      <trkpt lat="-18.09308" lon="-69.05437">
        <ele>4811</ele>
        <time>2025-10-18T14:23:55Z</time>
      </trkpt>
      <trkpt lat="-18.09308" lon="-69.05441">
        <ele>4811</ele>
        <time>2025-10-18T14:24:05Z</time>
      </trkpt>
      <trkpt lat="-18.09306" lon="-69.05445">
        <ele>4812</ele>
        <time>2025-10-18T14:24:15Z</time>
      </trkpt>
      <trkpt lat="-18.09306" lon="-69.0545">
        <ele>4813</ele>
        <time>2025-10-18T14:24:25Z</time>
      </trkpt>
      <trkpt lat="-18.09303" lon="-69.05461">
        <ele>4817</ele>
        <time>2025-10-18T14:24:51Z</time>
      </trkpt>
      <trkpt lat="-18.093" lon="-69.05465">
        <ele>4818</ele>
        <time>2025-10-18T14:25:01Z</time>
      </trkpt>
      <trkpt lat="-18.09298" lon="-69.05472">
        <ele>4820</ele>
        <time>2025-10-18T14:25:19Z</time>
      </trkpt>
      <trkpt lat="-18.09299" lon="-69.05476">
        <ele>4820</ele>
        <time>2025-10-18T14:25:29Z</time>
      </trkpt>
      <trkpt lat="-18.09298" lon="-69.05485">
        <ele>4822</ele>
        <time>2025-10-18T14:25:47Z</time>
      </trkpt>
      <trkpt lat="-18.09297" lon="-69.05493">
        <ele>4824</ele>
        <time>2025-10-18T14:26:07Z</time>
      </trkpt>
      <trkpt lat="-18.09295" lon="-69.05496">
        <ele>4824</ele>
        <time>2025-10-18T14:26:17Z</time>
      </trkpt>
      <trkpt lat="-18.09292" lon="-69.05499">
        <ele>4825</ele>
        <time>2025-10-18T14:26:25Z</time>
      </trkpt>
      <trkpt lat="-18.09289" lon="-69.055">
        <ele>4827</ele>
        <time>2025-10-18T14:26:55Z</time>
      </trkpt>
      <trkpt lat="-18.09285" lon="-69.05503">
        <ele>4827</ele>
        <time>2025-10-18T14:27:03Z</time>
      </trkpt>
      <trkpt lat="-18.09289" lon="-69.05503">
        <ele>4828</ele>
        <time>2025-10-18T14:29:31Z</time>
      </trkpt>
      <trkpt lat="-18.09287" lon="-69.05506">
        <ele>4827</ele>
        <time>2025-10-18T14:32:11Z</time>
      </trkpt>
      <trkpt lat="-18.09284" lon="-69.05509">
        <ele>4827</ele>
        <time>2025-10-18T14:32:17Z</time>
      </trkpt>
      <trkpt lat="-18.09285" lon="-69.05512">
        <ele>4829</ele>
        <time>2025-10-18T14:33:01Z</time>
      </trkpt>
      <trkpt lat="-18.09282" lon="-69.0552">
        <ele>4829</ele>
        <time>2025-10-18T14:33:13Z</time>
      </trkpt>
      <trkpt lat="-18.0928" lon="-69.05532">
        <ele>4830</ele>
        <time>2025-10-18T14:33:33Z</time>
      </trkpt>
      <trkpt lat="-18.09279" lon="-69.05536">
        <ele>4831</ele>
        <time>2025-10-18T14:33:39Z</time>
      </trkpt>
      <trkpt lat="-18.09277" lon="-69.05539">
        <ele>4831</ele>
        <time>2025-10-18T14:33:45Z</time>
      </trkpt>
      <trkpt lat="-18.09276" lon="-69.05552">
        <ele>4835</ele>
        <time>2025-10-18T14:34:11Z</time>
      </trkpt>
      <trkpt lat="-18.09276" lon="-69.05556">
        <ele>4835</ele>
        <time>2025-10-18T14:34:19Z</time>
      </trkpt>
      <trkpt lat="-18.09274" lon="-69.05564">
        <ele>4837</ele>
        <time>2025-10-18T14:35:01Z</time>
      </trkpt>
      <trkpt lat="-18.09274" lon="-69.05568">
        <ele>4837</ele>
        <time>2025-10-18T14:35:07Z</time>
      </trkpt>
      <trkpt lat="-18.09269" lon="-69.05583">
        <ele>4842</ele>
        <time>2025-10-18T14:35:42Z</time>
      </trkpt>
      <trkpt lat="-18.09264" lon="-69.05594">
        <ele>4842</ele>
        <time>2025-10-18T14:36:40Z</time>
      </trkpt>
      <trkpt lat="-18.09264" lon="-69.05598">
        <ele>4843</ele>
        <time>2025-10-18T14:36:48Z</time>
      </trkpt>
      <trkpt lat="-18.09258" lon="-69.05612">
        <ele>4844</ele>
        <time>2025-10-18T14:37:18Z</time>
      </trkpt>
      <trkpt lat="-18.09255" lon="-69.05619">
        <ele>4845</ele>
        <time>2025-10-18T14:37:36Z</time>
      </trkpt>
      <trkpt lat="-18.09252" lon="-69.05627">
        <ele>4848</ele>
        <time>2025-10-18T14:37:56Z</time>
      </trkpt>
      <trkpt lat="-18.09251" lon="-69.05631">
        <ele>4849</ele>
        <time>2025-10-18T14:39:12Z</time>
      </trkpt>
      <trkpt lat="-18.09248" lon="-69.05633">
        <ele>4848</ele>
        <time>2025-10-18T14:39:20Z</time>
      </trkpt>
      <trkpt lat="-18.09242" lon="-69.05637">
        <ele>4848</ele>
        <time>2025-10-18T14:39:36Z</time>
      </trkpt>
      <trkpt lat="-18.0924" lon="-69.0564">
        <ele>4848</ele>
        <time>2025-10-18T14:39:46Z</time>
      </trkpt>
      <trkpt lat="-18.09237" lon="-69.05644">
        <ele>4848</ele>
        <time>2025-10-18T14:39:56Z</time>
      </trkpt>
      <trkpt lat="-18.09234" lon="-69.05651">
        <ele>4848</ele>
        <time>2025-10-18T14:40:14Z</time>
      </trkpt>
      <trkpt lat="-18.09231" lon="-69.05654">
        <ele>4849</ele>
        <time>2025-10-18T14:40:22Z</time>
      </trkpt>
      <trkpt lat="-18.09228" lon="-69.05657">
        <ele>4849</ele>
        <time>2025-10-18T14:40:30Z</time>
      </trkpt>
      <trkpt lat="-18.0922" lon="-69.05671">
        <ele>4849</ele>
        <time>2025-10-18T14:41:08Z</time>
      </trkpt>
      <trkpt lat="-18.09218" lon="-69.05674">
        <ele>4850</ele>
        <time>2025-10-18T14:41:18Z</time>
      </trkpt>
      <trkpt lat="-18.09216" lon="-69.05677">
        <ele>4850</ele>
        <time>2025-10-18T14:41:26Z</time>
      </trkpt>
      <trkpt lat="-18.09205" lon="-69.05689">
        <ele>4850</ele>
        <time>2025-10-18T14:42:00Z</time>
      </trkpt>
      <trkpt lat="-18.09202" lon="-69.05693">
        <ele>4851</ele>
        <time>2025-10-18T14:42:08Z</time>
      </trkpt>
      <trkpt lat="-18.092" lon="-69.05695">
        <ele>4851</ele>
        <time>2025-10-18T14:42:18Z</time>
      </trkpt>
      <trkpt lat="-18.09199" lon="-69.057">
        <ele>4851</ele>
        <time>2025-10-18T14:42:30Z</time>
      </trkpt>
      <trkpt lat="-18.09194" lon="-69.05705">
        <ele>4852</ele>
        <time>2025-10-18T14:42:44Z</time>
      </trkpt>
      <trkpt lat="-18.09191" lon="-69.05707">
        <ele>4852</ele>
        <time>2025-10-18T14:42:50Z</time>
      </trkpt>
      <trkpt lat="-18.09185" lon="-69.05713">
        <ele>4852</ele>
        <time>2025-10-18T14:43:08Z</time>
      </trkpt>
      <trkpt lat="-18.09183" lon="-69.05717">
        <ele>4853</ele>
        <time>2025-10-18T14:43:18Z</time>
      </trkpt>
      <trkpt lat="-18.0918" lon="-69.05718">
        <ele>4853</ele>
        <time>2025-10-18T14:43:28Z</time>
      </trkpt>
      <trkpt lat="-18.09177" lon="-69.05721">
        <ele>4853</ele>
        <time>2025-10-18T14:43:36Z</time>
      </trkpt>
      <trkpt lat="-18.09174" lon="-69.05723">
        <ele>4854</ele>
        <time>2025-10-18T14:43:44Z</time>
      </trkpt>
      <trkpt lat="-18.09172" lon="-69.05726">
        <ele>4856</ele>
        <time>2025-10-18T14:43:54Z</time>
      </trkpt>
      <trkpt lat="-18.09171" lon="-69.0573">
        <ele>4857</ele>
        <time>2025-10-18T14:44:02Z</time>
      </trkpt>
      <trkpt lat="-18.09169" lon="-69.05733">
        <ele>4859</ele>
        <time>2025-10-18T14:44:12Z</time>
      </trkpt>
      <trkpt lat="-18.09168" lon="-69.05741">
        <ele>4861</ele>
        <time>2025-10-18T14:44:30Z</time>
      </trkpt>
      <trkpt lat="-18.09168" lon="-69.05746">
        <ele>4862</ele>
        <time>2025-10-18T14:44:40Z</time>
      </trkpt>
      <trkpt lat="-18.09165" lon="-69.05758">
        <ele>4866</ele>
        <time>2025-10-18T14:45:08Z</time>
      </trkpt>
      <trkpt lat="-18.09165" lon="-69.05766">
        <ele>4868</ele>
        <time>2025-10-18T14:45:24Z</time>
      </trkpt>
      <trkpt lat="-18.09164" lon="-69.05774">
        <ele>4869</ele>
        <time>2025-10-18T14:45:42Z</time>
      </trkpt>
      <trkpt lat="-18.09164" lon="-69.05786">
        <ele>4871</ele>
        <time>2025-10-18T14:46:06Z</time>
      </trkpt>
      <trkpt lat="-18.09161" lon="-69.05792">
        <ele>4873</ele>
        <time>2025-10-18T14:46:22Z</time>
      </trkpt>
      <trkpt lat="-18.09161" lon="-69.05797">
        <ele>4874</ele>
        <time>2025-10-18T14:46:30Z</time>
      </trkpt>
      <trkpt lat="-18.0916" lon="-69.058">
        <ele>4874</ele>
        <time>2025-10-18T14:46:38Z</time>
      </trkpt>
      <trkpt lat="-18.09161" lon="-69.05813">
        <ele>4876</ele>
        <time>2025-10-18T14:47:00Z</time>
      </trkpt>
      <trkpt lat="-18.09161" lon="-69.05817">
        <ele>4877</ele>
        <time>2025-10-18T14:47:08Z</time>
      </trkpt>
      <trkpt lat="-18.09161" lon="-69.05821">
        <ele>4879</ele>
        <time>2025-10-18T14:47:16Z</time>
      </trkpt>
      <trkpt lat="-18.09161" lon="-69.05826">
        <ele>4879</ele>
        <time>2025-10-18T14:47:24Z</time>
      </trkpt>
      <trkpt lat="-18.0916" lon="-69.05833">
        <ele>4880</ele>
        <time>2025-10-18T14:47:40Z</time>
      </trkpt>
      <trkpt lat="-18.09158" lon="-69.05849">
        <ele>4882</ele>
        <time>2025-10-18T14:48:12Z</time>
      </trkpt>
      <trkpt lat="-18.09157" lon="-69.05856">
        <ele>4883</ele>
        <time>2025-10-18T14:48:28Z</time>
      </trkpt>
      <trkpt lat="-18.09156" lon="-69.0586">
        <ele>4884</ele>
        <time>2025-10-18T14:48:36Z</time>
      </trkpt>
      <trkpt lat="-18.09156" lon="-69.05864">
        <ele>4884</ele>
        <time>2025-10-18T14:48:44Z</time>
      </trkpt>
      <trkpt lat="-18.09155" lon="-69.05879">
        <ele>4886</ele>
        <time>2025-10-18T14:49:14Z</time>
      </trkpt>
      <trkpt lat="-18.09154" lon="-69.05883">
        <ele>4886</ele>
        <time>2025-10-18T14:49:24Z</time>
      </trkpt>
      <trkpt lat="-18.09152" lon="-69.05898">
        <ele>4891</ele>
        <time>2025-10-18T14:49:58Z</time>
      </trkpt>
      <trkpt lat="-18.09151" lon="-69.05902">
        <ele>4892</ele>
        <time>2025-10-18T14:50:06Z</time>
      </trkpt>
      <trkpt lat="-18.09151" lon="-69.05905">
        <ele>4893</ele>
        <time>2025-10-18T14:50:16Z</time>
      </trkpt>
      <trkpt lat="-18.09149" lon="-69.05909">
        <ele>4897</ele>
        <time>2025-10-18T14:51:44Z</time>
      </trkpt>
      <trkpt lat="-18.09144" lon="-69.05915">
        <ele>4898</ele>
        <time>2025-10-18T14:51:58Z</time>
      </trkpt>
      <trkpt lat="-18.09144" lon="-69.05918">
        <ele>4899</ele>
        <time>2025-10-18T14:52:04Z</time>
      </trkpt>
      <trkpt lat="-18.09139" lon="-69.05934">
        <ele>4899</ele>
        <time>2025-10-18T14:52:36Z</time>
      </trkpt>
      <trkpt lat="-18.09137" lon="-69.05946">
        <ele>4901</ele>
        <time>2025-10-18T14:53:00Z</time>
      </trkpt>
      <trkpt lat="-18.09132" lon="-69.0596">
        <ele>4905</ele>
        <time>2025-10-18T14:53:36Z</time>
      </trkpt>
      <trkpt lat="-18.09131" lon="-69.05968">
        <ele>4907</ele>
        <time>2025-10-18T14:53:52Z</time>
      </trkpt>
      <trkpt lat="-18.09128" lon="-69.05971">
        <ele>4908</ele>
        <time>2025-10-18T14:54:02Z</time>
      </trkpt>
      <trkpt lat="-18.09127" lon="-69.05975">
        <ele>4910</ele>
        <time>2025-10-18T14:54:12Z</time>
      </trkpt>
      <trkpt lat="-18.09125" lon="-69.05979">
        <ele>4910</ele>
        <time>2025-10-18T14:54:24Z</time>
      </trkpt>
      <trkpt lat="-18.09124" lon="-69.05986">
        <ele>4911</ele>
        <time>2025-10-18T14:54:42Z</time>
      </trkpt>
      <trkpt lat="-18.09123" lon="-69.0599">
        <ele>4913</ele>
        <time>2025-10-18T14:54:56Z</time>
      </trkpt>
      <trkpt lat="-18.09121" lon="-69.05993">
        <ele>4915</ele>
        <time>2025-10-18T14:55:08Z</time>
      </trkpt>
      <trkpt lat="-18.09119" lon="-69.05996">
        <ele>4915</ele>
        <time>2025-10-18T14:55:18Z</time>
      </trkpt>
      <trkpt lat="-18.09118" lon="-69.06">
        <ele>4916</ele>
        <time>2025-10-18T14:55:30Z</time>
      </trkpt>
      <trkpt lat="-18.09116" lon="-69.06003">
        <ele>4917</ele>
        <time>2025-10-18T14:55:40Z</time>
      </trkpt>
      <trkpt lat="-18.09113" lon="-69.06006">
        <ele>4918</ele>
        <time>2025-10-18T14:55:52Z</time>
      </trkpt>
      <trkpt lat="-18.09113" lon="-69.0601">
        <ele>4920</ele>
        <time>2025-10-18T14:57:34Z</time>
      </trkpt>
      <trkpt lat="-18.09111" lon="-69.06013">
        <ele>4922</ele>
        <time>2025-10-18T14:57:48Z</time>
      </trkpt>
      <trkpt lat="-18.09108" lon="-69.06021">
        <ele>4924</ele>
        <time>2025-10-18T14:58:14Z</time>
      </trkpt>
      <trkpt lat="-18.09109" lon="-69.06025">
        <ele>4925</ele>
        <time>2025-10-18T14:58:28Z</time>
      </trkpt>
      <trkpt lat="-18.09107" lon="-69.06029">
        <ele>4926</ele>
        <time>2025-10-18T14:58:40Z</time>
      </trkpt>
      <trkpt lat="-18.09105" lon="-69.06032">
        <ele>4927</ele>
        <time>2025-10-18T14:58:50Z</time>
      </trkpt>
      <trkpt lat="-18.09102" lon="-69.06035">
        <ele>4928</ele>
        <time>2025-10-18T14:59:00Z</time>
      </trkpt>
      <trkpt lat="-18.09096" lon="-69.06039">
        <ele>4930</ele>
        <time>2025-10-18T14:59:24Z</time>
      </trkpt>
      <trkpt lat="-18.09094" lon="-69.06043">
        <ele>4931</ele>
        <time>2025-10-18T14:59:36Z</time>
      </trkpt>
      <trkpt lat="-18.09094" lon="-69.06047">
        <ele>4934</ele>
        <time>2025-10-18T14:59:48Z</time>
      </trkpt>
      <trkpt lat="-18.09093" lon="-69.06051">
        <ele>4935</ele>
        <time>2025-10-18T15:00:00Z</time>
      </trkpt>
      <trkpt lat="-18.09094" lon="-69.06056">
        <ele>4936</ele>
        <time>2025-10-18T15:00:10Z</time>
      </trkpt>
      <trkpt lat="-18.09093" lon="-69.06059">
        <ele>4936</ele>
        <time>2025-10-18T15:00:18Z</time>
      </trkpt>
      <trkpt lat="-18.09091" lon="-69.06062">
        <ele>4935</ele>
        <time>2025-10-18T15:00:26Z</time>
      </trkpt>
      <trkpt lat="-18.09087" lon="-69.06073">
        <ele>4937</ele>
        <time>2025-10-18T15:01:00Z</time>
      </trkpt>
      <trkpt lat="-18.09087" lon="-69.06085">
        <ele>4940</ele>
        <time>2025-10-18T15:01:38Z</time>
      </trkpt>
      <trkpt lat="-18.09084" lon="-69.06088">
        <ele>4941</ele>
        <time>2025-10-18T15:01:46Z</time>
      </trkpt>
      <trkpt lat="-18.09084" lon="-69.06092">
        <ele>4942</ele>
        <time>2025-10-18T15:02:00Z</time>
      </trkpt>
      <trkpt lat="-18.09083" lon="-69.06096">
        <ele>4944</ele>
        <time>2025-10-18T15:02:12Z</time>
      </trkpt>
      <trkpt lat="-18.0908" lon="-69.06099">
        <ele>4945</ele>
        <time>2025-10-18T15:02:22Z</time>
      </trkpt>
      <trkpt lat="-18.09077" lon="-69.06102">
        <ele>4947</ele>
        <time>2025-10-18T15:02:32Z</time>
      </trkpt>
      <trkpt lat="-18.09076" lon="-69.06106">
        <ele>4948</ele>
        <time>2025-10-18T15:02:42Z</time>
      </trkpt>
      <trkpt lat="-18.09079" lon="-69.06118">
        <ele>4949</ele>
        <time>2025-10-18T15:03:08Z</time>
      </trkpt>
      <trkpt lat="-18.09079" lon="-69.06122">
        <ele>4949</ele>
        <time>2025-10-18T15:03:16Z</time>
      </trkpt>
      <trkpt lat="-18.09077" lon="-69.06125">
        <ele>4950</ele>
        <time>2025-10-18T15:03:26Z</time>
      </trkpt>
      <trkpt lat="-18.09079" lon="-69.06137">
        <ele>4952</ele>
        <time>2025-10-18T15:03:56Z</time>
      </trkpt>
      <trkpt lat="-18.09078" lon="-69.06145">
        <ele>4953</ele>
        <time>2025-10-18T15:04:16Z</time>
      </trkpt>
      <trkpt lat="-18.09081" lon="-69.06153">
        <ele>4955</ele>
        <time>2025-10-18T15:04:36Z</time>
      </trkpt>
      <trkpt lat="-18.09082" lon="-69.06157">
        <ele>4956</ele>
        <time>2025-10-18T15:04:46Z</time>
      </trkpt>
      <trkpt lat="-18.0908" lon="-69.0616">
        <ele>4957</ele>
        <time>2025-10-18T15:04:58Z</time>
      </trkpt>
      <trkpt lat="-18.09083" lon="-69.06167">
        <ele>4960</ele>
        <time>2025-10-18T15:05:18Z</time>
      </trkpt>
      <trkpt lat="-18.09085" lon="-69.06171">
        <ele>4960</ele>
        <time>2025-10-18T15:05:28Z</time>
      </trkpt>
      <trkpt lat="-18.09083" lon="-69.06174">
        <ele>4961</ele>
        <time>2025-10-18T15:05:40Z</time>
      </trkpt>
      <trkpt lat="-18.09081" lon="-69.06177">
        <ele>4965</ele>
        <time>2025-10-18T15:05:52Z</time>
      </trkpt>
      <trkpt lat="-18.09081" lon="-69.06181">
        <ele>4965</ele>
        <time>2025-10-18T15:06:02Z</time>
      </trkpt>
      <trkpt lat="-18.09081" lon="-69.06185">
        <ele>4967</ele>
        <time>2025-10-18T15:06:14Z</time>
      </trkpt>
      <trkpt lat="-18.09086" lon="-69.06191">
        <ele>4969</ele>
        <time>2025-10-18T15:06:34Z</time>
      </trkpt>
      <trkpt lat="-18.09092" lon="-69.06205">
        <ele>4973</ele>
        <time>2025-10-18T15:07:10Z</time>
      </trkpt>
      <trkpt lat="-18.09092" lon="-69.06209">
        <ele>4974</ele>
        <time>2025-10-18T15:07:20Z</time>
      </trkpt>
      <trkpt lat="-18.0909" lon="-69.06212">
        <ele>4977</ele>
        <time>2025-10-18T15:10:40Z</time>
      </trkpt>
      <trkpt lat="-18.09086" lon="-69.06213">
        <ele>4979</ele>
        <time>2025-10-18T15:11:16Z</time>
      </trkpt>
      <trkpt lat="-18.09083" lon="-69.06215">
        <ele>4981</ele>
        <time>2025-10-18T15:11:26Z</time>
      </trkpt>
      <trkpt lat="-18.09073" lon="-69.0622">
        <ele>4985</ele>
        <time>2025-10-18T15:11:52Z</time>
      </trkpt>
      <trkpt lat="-18.09073" lon="-69.06225">
        <ele>4986</ele>
        <time>2025-10-18T15:12:02Z</time>
      </trkpt>
      <trkpt lat="-18.09074" lon="-69.06228">
        <ele>4986</ele>
        <time>2025-10-18T15:12:10Z</time>
      </trkpt>
      <trkpt lat="-18.09072" lon="-69.0623">
        <ele>4987</ele>
        <time>2025-10-18T15:12:20Z</time>
      </trkpt>
      <trkpt lat="-18.09072" lon="-69.06238">
        <ele>4989</ele>
        <time>2025-10-18T15:12:38Z</time>
      </trkpt>
      <trkpt lat="-18.0907" lon="-69.06241">
        <ele>4992</ele>
        <time>2025-10-18T15:12:56Z</time>
      </trkpt>
      <trkpt lat="-18.09067" lon="-69.06242">
        <ele>4993</ele>
        <time>2025-10-18T15:13:06Z</time>
      </trkpt>
      <trkpt lat="-18.0906" lon="-69.06245">
        <ele>4996</ele>
        <time>2025-10-18T15:13:26Z</time>
      </trkpt>
      <trkpt lat="-18.09056" lon="-69.06246">
        <ele>4998</ele>
        <time>2025-10-18T15:13:44Z</time>
      </trkpt>
      <trkpt lat="-18.09053" lon="-69.06248">
        <ele>4999</ele>
        <time>2025-10-18T15:13:56Z</time>
      </trkpt>
      <trkpt lat="-18.0905" lon="-69.0625">
        <ele>5001</ele>
        <time>2025-10-18T15:14:40Z</time>
      </trkpt>
      <trkpt lat="-18.09047" lon="-69.06252">
        <ele>5003</ele>
        <time>2025-10-18T15:14:52Z</time>
      </trkpt>
      <trkpt lat="-18.09045" lon="-69.06256">
        <ele>5003</ele>
        <time>2025-10-18T15:15:02Z</time>
      </trkpt>
      <trkpt lat="-18.09044" lon="-69.06259">
        <ele>5006</ele>
        <time>2025-10-18T15:16:08Z</time>
      </trkpt>
      <trkpt lat="-18.09044" lon="-69.06263">
        <ele>5006</ele>
        <time>2025-10-18T15:16:24Z</time>
      </trkpt>
      <trkpt lat="-18.09043" lon="-69.06267">
        <ele>5008</ele>
        <time>2025-10-18T15:16:44Z</time>
      </trkpt>
      <trkpt lat="-18.09041" lon="-69.0627">
        <ele>5010</ele>
        <time>2025-10-18T15:17:08Z</time>
      </trkpt>
      <trkpt lat="-18.09037" lon="-69.06271">
        <ele>5014</ele>
        <time>2025-10-18T15:17:36Z</time>
      </trkpt>
      <trkpt lat="-18.09035" lon="-69.06274">
        <ele>5015</ele>
        <time>2025-10-18T15:17:56Z</time>
      </trkpt>
      <trkpt lat="-18.09032" lon="-69.06276">
        <ele>5018</ele>
        <time>2025-10-18T15:18:18Z</time>
      </trkpt>
      <trkpt lat="-18.09029" lon="-69.06278">
        <ele>5019</ele>
        <time>2025-10-18T15:18:52Z</time>
      </trkpt>
      <trkpt lat="-18.09029" lon="-69.06282">
        <ele>5020</ele>
        <time>2025-10-18T15:19:04Z</time>
      </trkpt>
      <trkpt lat="-18.09026" lon="-69.06284">
        <ele>5021</ele>
        <time>2025-10-18T15:19:26Z</time>
      </trkpt>
      <trkpt lat="-18.09023" lon="-69.06284">
        <ele>5023</ele>
        <time>2025-10-18T15:20:22Z</time>
      </trkpt>
      <trkpt lat="-18.0902" lon="-69.06286">
        <ele>5024</ele>
        <time>2025-10-18T15:20:48Z</time>
      </trkpt>
      <trkpt lat="-18.09018" lon="-69.06288">
        <ele>5025</ele>
        <time>2025-10-18T15:21:06Z</time>
      </trkpt>
      <trkpt lat="-18.09014" lon="-69.06289">
        <ele>5026</ele>
        <time>2025-10-18T15:21:46Z</time>
      </trkpt>
      <trkpt lat="-18.0901" lon="-69.06289">
        <ele>5029</ele>
        <time>2025-10-18T15:22:28Z</time>
      </trkpt>
      <trkpt lat="-18.09007" lon="-69.06289">
        <ele>5030</ele>
        <time>2025-10-18T15:22:44Z</time>
      </trkpt>
      <trkpt lat="-18.09003" lon="-69.0629">
        <ele>5031</ele>
        <time>2025-10-18T15:23:00Z</time>
      </trkpt>
      <trkpt lat="-18.08992" lon="-69.06291">
        <ele>5034</ele>
        <time>2025-10-18T15:23:34Z</time>
      </trkpt>
      <trkpt lat="-18.08989" lon="-69.06293">
        <ele>5035</ele>
        <time>2025-10-18T15:23:44Z</time>
      </trkpt>
      <trkpt lat="-18.08986" lon="-69.06296">
        <ele>5035</ele>
        <time>2025-10-18T15:23:54Z</time>
      </trkpt>
      <trkpt lat="-18.0898" lon="-69.06299">
        <ele>5036</ele>
        <time>2025-10-18T15:24:14Z</time>
      </trkpt>
      <trkpt lat="-18.08977" lon="-69.06302">
        <ele>5038</ele>
        <time>2025-10-18T15:24:24Z</time>
      </trkpt>
      <trkpt lat="-18.08972" lon="-69.06308">
        <ele>5040</ele>
        <time>2025-10-18T15:24:46Z</time>
      </trkpt>
      <trkpt lat="-18.08969" lon="-69.06311">
        <ele>5040</ele>
        <time>2025-10-18T15:24:58Z</time>
      </trkpt>
      <trkpt lat="-18.08968" lon="-69.06314">
        <ele>5042</ele>
        <time>2025-10-18T15:25:08Z</time>
      </trkpt>
      <trkpt lat="-18.08963" lon="-69.06321">
        <ele>5044</ele>
        <time>2025-10-18T15:25:32Z</time>
      </trkpt>
      <trkpt lat="-18.08958" lon="-69.06327">
        <ele>5046</ele>
        <time>2025-10-18T15:25:54Z</time>
      </trkpt>
      <trkpt lat="-18.0896" lon="-69.06331">
        <ele>5047</ele>
        <time>2025-10-18T15:28:26Z</time>
      </trkpt>
      <trkpt lat="-18.08961" lon="-69.06335">
        <ele>5047</ele>
        <time>2025-10-18T15:29:04Z</time>
      </trkpt>
      <trkpt lat="-18.08961" lon="-69.06339">
        <ele>5047</ele>
        <time>2025-10-18T15:29:34Z</time>
      </trkpt>
      <trkpt lat="-18.08965" lon="-69.06341">
        <ele>5048</ele>
        <time>2025-10-18T15:29:46Z</time>
      </trkpt>
      <trkpt lat="-18.08966" lon="-69.06349">
        <ele>5050</ele>
        <time>2025-10-18T15:30:10Z</time>
      </trkpt>
      <trkpt lat="-18.08966" lon="-69.06353">
        <ele>5050</ele>
        <time>2025-10-18T15:30:20Z</time>
      </trkpt>
      <trkpt lat="-18.0897" lon="-69.0636">
        <ele>5053</ele>
        <time>2025-10-18T15:30:44Z</time>
      </trkpt>
      <trkpt lat="-18.0897" lon="-69.06363">
        <ele>5056</ele>
        <time>2025-10-18T15:30:54Z</time>
      </trkpt>
      <trkpt lat="-18.08971" lon="-69.06368">
        <ele>5056</ele>
        <time>2025-10-18T15:31:06Z</time>
      </trkpt>
      <trkpt lat="-18.08973" lon="-69.06371">
        <ele>5056</ele>
        <time>2025-10-18T15:31:18Z</time>
      </trkpt>
      <trkpt lat="-18.08975" lon="-69.06373">
        <ele>5057</ele>
        <time>2025-10-18T15:31:30Z</time>
      </trkpt>
      <trkpt lat="-18.08975" lon="-69.06378">
        <ele>5058</ele>
        <time>2025-10-18T15:31:46Z</time>
      </trkpt>
      <trkpt lat="-18.08977" lon="-69.06381">
        <ele>5061</ele>
        <time>2025-10-18T15:32:30Z</time>
      </trkpt>
      <trkpt lat="-18.08978" lon="-69.06385">
        <ele>5063</ele>
        <time>2025-10-18T15:33:00Z</time>
      </trkpt>
      <trkpt lat="-18.08978" lon="-69.06389">
        <ele>5065</ele>
        <time>2025-10-18T15:33:34Z</time>
      </trkpt>
      <trkpt lat="-18.08981" lon="-69.06391">
        <ele>5066</ele>
        <time>2025-10-18T15:33:52Z</time>
      </trkpt>
      <trkpt lat="-18.08982" lon="-69.06395">
        <ele>5071</ele>
        <time>2025-10-18T15:34:34Z</time>
      </trkpt>
      <trkpt lat="-18.08985" lon="-69.06397">
        <ele>5073</ele>
        <time>2025-10-18T15:34:52Z</time>
      </trkpt>
      <trkpt lat="-18.08986" lon="-69.06401">
        <ele>5077</ele>
        <time>2025-10-18T15:35:48Z</time>
      </trkpt>
      <trkpt lat="-18.08989" lon="-69.06403">
        <ele>5077</ele>
        <time>2025-10-18T15:36:14Z</time>
      </trkpt>
      <trkpt lat="-18.08989" lon="-69.06407">
        <ele>5077</ele>
        <time>2025-10-18T15:36:38Z</time>
      </trkpt>
      <trkpt lat="-18.0899" lon="-69.06411">
        <ele>5079</ele>
        <time>2025-10-18T15:37:06Z</time>
      </trkpt>
      <trkpt lat="-18.08993" lon="-69.06414">
        <ele>5081</ele>
        <time>2025-10-18T15:37:48Z</time>
      </trkpt>
      <trkpt lat="-18.08995" lon="-69.06417">
        <ele>5082</ele>
        <time>2025-10-18T15:38:18Z</time>
      </trkpt>
      <trkpt lat="-18.08997" lon="-69.06425">
        <ele>5088</ele>
        <time>2025-10-18T15:39:20Z</time>
      </trkpt>
      <trkpt lat="-18.09" lon="-69.06427">
        <ele>5089</ele>
        <time>2025-10-18T15:40:00Z</time>
      </trkpt>
      <trkpt lat="-18.09" lon="-69.06431">
        <ele>5090</ele>
        <time>2025-10-18T15:40:26Z</time>
      </trkpt>
      <trkpt lat="-18.09002" lon="-69.06434">
        <ele>5095</ele>
        <time>2025-10-18T15:42:18Z</time>
      </trkpt>
      <trkpt lat="-18.09005" lon="-69.06437">
        <ele>5096</ele>
        <time>2025-10-18T15:42:40Z</time>
      </trkpt>
      <trkpt lat="-18.09004" lon="-69.06441">
        <ele>5096</ele>
        <time>2025-10-18T15:43:26Z</time>
      </trkpt>
      <trkpt lat="-18.09007" lon="-69.06443">
        <ele>5096</ele>
        <time>2025-10-18T15:43:50Z</time>
      </trkpt>
      <trkpt lat="-18.09007" lon="-69.06447">
        <ele>5098</ele>
        <time>2025-10-18T15:44:26Z</time>
      </trkpt>
      <trkpt lat="-18.09009" lon="-69.0645">
        <ele>5099</ele>
        <time>2025-10-18T15:44:52Z</time>
      </trkpt>
      <trkpt lat="-18.09009" lon="-69.06454">
        <ele>5102</ele>
        <time>2025-10-18T15:45:14Z</time>
      </trkpt>
      <trkpt lat="-18.09011" lon="-69.06457">
        <ele>5103</ele>
        <time>2025-10-18T15:45:40Z</time>
      </trkpt>
      <trkpt lat="-18.09013" lon="-69.06461">
        <ele>5105</ele>
        <time>2025-10-18T15:46:16Z</time>
      </trkpt>
      <trkpt lat="-18.09013" lon="-69.06464">
        <ele>5106</ele>
        <time>2025-10-18T15:46:48Z</time>
      </trkpt>
      <trkpt lat="-18.09015" lon="-69.06467">
        <ele>5109</ele>
        <time>2025-10-18T15:47:04Z</time>
      </trkpt>
      <trkpt lat="-18.09016" lon="-69.06471">
        <ele>5111</ele>
        <time>2025-10-18T15:47:54Z</time>
      </trkpt>
      <trkpt lat="-18.09016" lon="-69.06475">
        <ele>5112</ele>
        <time>2025-10-18T15:48:18Z</time>
      </trkpt>
      <trkpt lat="-18.09017" lon="-69.06479">
        <ele>5114</ele>
        <time>2025-10-18T15:48:38Z</time>
      </trkpt>
      <trkpt lat="-18.09016" lon="-69.06482">
        <ele>5117</ele>
        <time>2025-10-18T15:49:46Z</time>
      </trkpt>
      <trkpt lat="-18.09016" lon="-69.06486">
        <ele>5121</ele>
        <time>2025-10-18T15:50:06Z</time>
      </trkpt>
      <trkpt lat="-18.09019" lon="-69.06489">
        <ele>5123</ele>
        <time>2025-10-18T15:51:14Z</time>
      </trkpt>
      <trkpt lat="-18.09019" lon="-69.06493">
        <ele>5125</ele>
        <time>2025-10-18T15:51:46Z</time>
      </trkpt>
      <trkpt lat="-18.09019" lon="-69.06497">
        <ele>5126</ele>
        <time>2025-10-18T15:52:14Z</time>
      </trkpt>
      <trkpt lat="-18.09021" lon="-69.065">
        <ele>5126</ele>
        <time>2025-10-18T15:53:08Z</time>
      </trkpt>
      <trkpt lat="-18.0902" lon="-69.06504">
        <ele>5128</ele>
        <time>2025-10-18T15:53:58Z</time>
      </trkpt>
      <trkpt lat="-18.09019" lon="-69.06507">
        <ele>5131</ele>
        <time>2025-10-18T15:54:20Z</time>
      </trkpt>
      <trkpt lat="-18.09017" lon="-69.06511">
        <ele>5131</ele>
        <time>2025-10-18T15:54:40Z</time>
      </trkpt>
      <trkpt lat="-18.09014" lon="-69.06517">
        <ele>5134</ele>
        <time>2025-10-18T15:55:32Z</time>
      </trkpt>
      <trkpt lat="-18.09012" lon="-69.06521">
        <ele>5137</ele>
        <time>2025-10-18T15:56:06Z</time>
      </trkpt>
      <trkpt lat="-18.09011" lon="-69.06524">
        <ele>5138</ele>
        <time>2025-10-18T15:56:50Z</time>
      </trkpt>
      <trkpt lat="-18.09009" lon="-69.06527">
        <ele>5142</ele>
        <time>2025-10-18T15:57:08Z</time>
      </trkpt>
      <trkpt lat="-18.0901" lon="-69.06531">
        <ele>5142</ele>
        <time>2025-10-18T15:58:26Z</time>
      </trkpt>
      <trkpt lat="-18.09009" lon="-69.06535">
        <ele>5142</ele>
        <time>2025-10-18T15:58:42Z</time>
      </trkpt>
      <trkpt lat="-18.09007" lon="-69.06538">
        <ele>5141</ele>
        <time>2025-10-18T15:58:58Z</time>
      </trkpt>
      <trkpt lat="-18.09005" lon="-69.06543">
        <ele>5139</ele>
        <time>2025-10-18T15:59:32Z</time>
      </trkpt>
      <trkpt lat="-18.09002" lon="-69.0655">
        <ele>5139</ele>
        <time>2025-10-18T16:00:22Z</time>
      </trkpt>
      <trkpt lat="-18.09001" lon="-69.06554">
        <ele>5140</ele>
        <time>2025-10-18T16:00:32Z</time>
      </trkpt>
      <trkpt lat="-18.08998" lon="-69.06556">
        <ele>5142</ele>
        <time>2025-10-18T16:01:42Z</time>
      </trkpt>
      <trkpt lat="-18.08994" lon="-69.06566">
        <ele>5144</ele>
        <time>2025-10-18T16:02:34Z</time>
      </trkpt>
      <trkpt lat="-18.08988" lon="-69.06572">
        <ele>5143</ele>
        <time>2025-10-18T16:03:08Z</time>
      </trkpt>
      <trkpt lat="-18.08985" lon="-69.0658">
        <ele>5147</ele>
        <time>2025-10-18T16:03:44Z</time>
      </trkpt>
      <trkpt lat="-18.08983" lon="-69.06583">
        <ele>5148</ele>
        <time>2025-10-18T16:04:26Z</time>
      </trkpt>
      <trkpt lat="-18.08983" lon="-69.06587">
        <ele>5148</ele>
        <time>2025-10-18T16:04:46Z</time>
      </trkpt>
      <trkpt lat="-18.0898" lon="-69.0659">
        <ele>5148</ele>
        <time>2025-10-18T16:05:00Z</time>
      </trkpt>
      <trkpt lat="-18.08977" lon="-69.06592">
        <ele>5151</ele>
        <time>2025-10-18T16:05:16Z</time>
      </trkpt>
      <trkpt lat="-18.08976" lon="-69.06596">
        <ele>5151</ele>
        <time>2025-10-18T16:05:34Z</time>
      </trkpt>
      <trkpt lat="-18.08974" lon="-69.06599">
        <ele>5152</ele>
        <time>2025-10-18T16:06:22Z</time>
      </trkpt>
      <trkpt lat="-18.08972" lon="-69.06603">
        <ele>5153</ele>
        <time>2025-10-18T16:06:42Z</time>
      </trkpt>
      <trkpt lat="-18.08969" lon="-69.0661">
        <ele>5156</ele>
        <time>2025-10-18T16:12:08Z</time>
      </trkpt>
      <trkpt lat="-18.08965" lon="-69.06616">
        <ele>5155</ele>
        <time>2025-10-18T16:13:31Z</time>
      </trkpt>
      <trkpt lat="-18.08961" lon="-69.06623">
        <ele>5158</ele>
        <time>2025-10-18T16:13:59Z</time>
      </trkpt>
      <trkpt lat="-18.08953" lon="-69.06632">
        <ele>5160</ele>
        <time>2025-10-18T16:14:35Z</time>
      </trkpt>
      <trkpt lat="-18.08947" lon="-69.06642">
        <ele>5163</ele>
        <time>2025-10-18T16:15:17Z</time>
      </trkpt>
      <trkpt lat="-18.08946" lon="-69.06646">
        <ele>5163</ele>
        <time>2025-10-18T16:15:31Z</time>
      </trkpt>
      <trkpt lat="-18.08939" lon="-69.06654">
        <ele>5167</ele>
        <time>2025-10-18T16:16:03Z</time>
      </trkpt>
      <trkpt lat="-18.08937" lon="-69.06657">
        <ele>5168</ele>
        <time>2025-10-18T16:16:13Z</time>
      </trkpt>
      <trkpt lat="-18.08932" lon="-69.06663">
        <ele>5170</ele>
        <time>2025-10-18T16:16:39Z</time>
      </trkpt>
      <trkpt lat="-18.08929" lon="-69.06666">
        <ele>5171</ele>
        <time>2025-10-18T16:16:53Z</time>
      </trkpt>
      <trkpt lat="-18.08927" lon="-69.0667">
        <ele>5171</ele>
        <time>2025-10-18T16:17:03Z</time>
      </trkpt>
      <trkpt lat="-18.08923" lon="-69.06676">
        <ele>5174</ele>
        <time>2025-10-18T16:18:34Z</time>
      </trkpt>
      <trkpt lat="-18.08922" lon="-69.06684">
        <ele>5178</ele>
        <time>2025-10-18T16:19:24Z</time>
      </trkpt>
      <trkpt lat="-18.08921" lon="-69.06688">
        <ele>5179</ele>
        <time>2025-10-18T16:20:48Z</time>
      </trkpt>
      <trkpt lat="-18.08923" lon="-69.06691">
        <ele>5180</ele>
        <time>2025-10-18T16:21:34Z</time>
      </trkpt>
      <trkpt lat="-18.08921" lon="-69.06698">
        <ele>5184</ele>
        <time>2025-10-18T16:23:02Z</time>
      </trkpt>
      <trkpt lat="-18.08918" lon="-69.06705">
        <ele>5187</ele>
        <time>2025-10-18T16:23:32Z</time>
      </trkpt>
      <trkpt lat="-18.08916" lon="-69.06713">
        <ele>5189</ele>
        <time>2025-10-18T16:24:12Z</time>
      </trkpt>
      <trkpt lat="-18.08913" lon="-69.0672">
        <ele>5191</ele>
        <time>2025-10-18T16:24:36Z</time>
      </trkpt>
      <trkpt lat="-18.08913" lon="-69.06724">
        <ele>5192</ele>
        <time>2025-10-18T16:24:56Z</time>
      </trkpt>
      <trkpt lat="-18.08908" lon="-69.06734">
        <ele>5194</ele>
        <time>2025-10-18T16:25:32Z</time>
      </trkpt>
      <trkpt lat="-18.08905" lon="-69.06741">
        <ele>5195</ele>
        <time>2025-10-18T16:26:02Z</time>
      </trkpt>
      <trkpt lat="-18.08905" lon="-69.06748">
        <ele>5195</ele>
        <time>2025-10-18T16:26:32Z</time>
      </trkpt>
      <trkpt lat="-18.08903" lon="-69.06752">
        <ele>5196</ele>
        <time>2025-10-18T16:26:42Z</time>
      </trkpt>
      <trkpt lat="-18.08898" lon="-69.06759">
        <ele>5198</ele>
        <time>2025-10-18T16:27:08Z</time>
      </trkpt>
      <trkpt lat="-18.08896" lon="-69.06762">
        <ele>5200</ele>
        <time>2025-10-18T16:27:18Z</time>
      </trkpt>
      <trkpt lat="-18.08894" lon="-69.06765">
        <ele>5201</ele>
        <time>2025-10-18T16:27:30Z</time>
      </trkpt>
      <trkpt lat="-18.08887" lon="-69.06775">
        <ele>5203</ele>
        <time>2025-10-18T16:28:04Z</time>
      </trkpt>
      <trkpt lat="-18.08885" lon="-69.06778">
        <ele>5204</ele>
        <time>2025-10-18T16:28:14Z</time>
      </trkpt>
      <trkpt lat="-18.08884" lon="-69.06782">
        <ele>5206</ele>
        <time>2025-10-18T16:28:24Z</time>
      </trkpt>
      <trkpt lat="-18.08885" lon="-69.06785">
        <ele>5207</ele>
        <time>2025-10-18T16:29:44Z</time>
      </trkpt>
      <trkpt lat="-18.08888" lon="-69.06786">
        <ele>5207</ele>
        <time>2025-10-18T16:31:51Z</time>
      </trkpt>
      <trkpt lat="-18.08891" lon="-69.06789">
        <ele>5208</ele>
        <time>2025-10-18T16:32:11Z</time>
      </trkpt>
      <trkpt lat="-18.08895" lon="-69.06791">
        <ele>5210</ele>
        <time>2025-10-18T16:32:35Z</time>
      </trkpt>
      <trkpt lat="-18.08898" lon="-69.06791">
        <ele>5211</ele>
        <time>2025-10-18T16:32:45Z</time>
      </trkpt>
      <trkpt lat="-18.08902" lon="-69.06792">
        <ele>5213</ele>
        <time>2025-10-18T16:33:03Z</time>
      </trkpt>
      <trkpt lat="-18.08905" lon="-69.06793">
        <ele>5215</ele>
        <time>2025-10-18T16:33:19Z</time>
      </trkpt>
      <trkpt lat="-18.08912" lon="-69.06796">
        <ele>5217</ele>
        <time>2025-10-18T16:33:45Z</time>
      </trkpt>
      <trkpt lat="-18.08916" lon="-69.06797">
        <ele>5219</ele>
        <time>2025-10-18T16:33:59Z</time>
      </trkpt>
      <trkpt lat="-18.08927" lon="-69.06799">
        <ele>5223</ele>
        <time>2025-10-18T16:34:41Z</time>
      </trkpt>
      <trkpt lat="-18.0893" lon="-69.06799">
        <ele>5225</ele>
        <time>2025-10-18T16:35:41Z</time>
      </trkpt>
      <trkpt lat="-18.08933" lon="-69.06797">
        <ele>5226</ele>
        <time>2025-10-18T16:35:57Z</time>
      </trkpt>
      <trkpt lat="-18.08936" lon="-69.06799">
        <ele>5226</ele>
        <time>2025-10-18T16:36:09Z</time>
      </trkpt>
      <trkpt lat="-18.08939" lon="-69.06797">
        <ele>5226</ele>
        <time>2025-10-18T16:36:25Z</time>
      </trkpt>
      <trkpt lat="-18.08943" lon="-69.06798">
        <ele>5227</ele>
        <time>2025-10-18T16:36:35Z</time>
      </trkpt>
      <trkpt lat="-18.08945" lon="-69.06802">
        <ele>5228</ele>
        <time>2025-10-18T16:36:47Z</time>
      </trkpt>
      <trkpt lat="-18.08952" lon="-69.06806">
        <ele>5231</ele>
        <time>2025-10-18T16:37:09Z</time>
      </trkpt>
      <trkpt lat="-18.08955" lon="-69.06809">
        <ele>5232</ele>
        <time>2025-10-18T16:37:19Z</time>
      </trkpt>
      <trkpt lat="-18.08964" lon="-69.06819">
        <ele>5235</ele>
        <time>2025-10-18T16:37:51Z</time>
      </trkpt>
      <trkpt lat="-18.08966" lon="-69.06822">
        <ele>5235</ele>
        <time>2025-10-18T16:37:59Z</time>
      </trkpt>
      <trkpt lat="-18.08971" lon="-69.06828">
        <ele>5237</ele>
        <time>2025-10-18T16:38:15Z</time>
      </trkpt>
      <trkpt lat="-18.08974" lon="-69.06829">
        <ele>5238</ele>
        <time>2025-10-18T16:38:23Z</time>
      </trkpt>
      <trkpt lat="-18.08978" lon="-69.06831">
        <ele>5238</ele>
        <time>2025-10-18T16:38:31Z</time>
      </trkpt>
      <trkpt lat="-18.08981" lon="-69.06831">
        <ele>5239</ele>
        <time>2025-10-18T16:38:41Z</time>
      </trkpt>
      <trkpt lat="-18.08985" lon="-69.06831">
        <ele>5240</ele>
        <time>2025-10-18T16:39:09Z</time>
      </trkpt>
      <trkpt lat="-18.08992" lon="-69.06828">
        <ele>5242</ele>
        <time>2025-10-18T16:39:27Z</time>
      </trkpt>
      <trkpt lat="-18.08995" lon="-69.06826">
        <ele>5243</ele>
        <time>2025-10-18T16:39:37Z</time>
      </trkpt>
      <trkpt lat="-18.0901" lon="-69.06831">
        <ele>5243</ele>
        <time>2025-10-18T16:40:13Z</time>
      </trkpt>
      <trkpt lat="-18.09021" lon="-69.06834">
        <ele>5245</ele>
        <time>2025-10-18T16:40:39Z</time>
      </trkpt>
      <trkpt lat="-18.09032" lon="-69.06837">
        <ele>5246</ele>
        <time>2025-10-18T16:41:09Z</time>
      </trkpt>
      <trkpt lat="-18.09039" lon="-69.06841">
        <ele>5249</ele>
        <time>2025-10-18T16:41:29Z</time>
      </trkpt>
      <trkpt lat="-18.09042" lon="-69.06843">
        <ele>5251</ele>
        <time>2025-10-18T16:41:39Z</time>
      </trkpt>
      <trkpt lat="-18.09048" lon="-69.06853">
        <ele>5254</ele>
        <time>2025-10-18T16:42:11Z</time>
      </trkpt>
      <trkpt lat="-18.09049" lon="-69.06857">
        <ele>5257</ele>
        <time>2025-10-18T16:42:27Z</time>
      </trkpt>
      <trkpt lat="-18.09053" lon="-69.06856">
        <ele>5257</ele>
        <time>2025-10-18T16:44:27Z</time>
      </trkpt>
      <trkpt lat="-18.09064" lon="-69.0685">
        <ele>5260</ele>
        <time>2025-10-18T16:44:57Z</time>
      </trkpt>
      <trkpt lat="-18.09066" lon="-69.06847">
        <ele>5261</ele>
        <time>2025-10-18T16:45:09Z</time>
      </trkpt>
      <trkpt lat="-18.09068" lon="-69.06844">
        <ele>5262</ele>
        <time>2025-10-18T16:45:19Z</time>
      </trkpt>
      <trkpt lat="-18.09072" lon="-69.06846">
        <ele>5263</ele>
        <time>2025-10-18T16:45:33Z</time>
      </trkpt>
      <trkpt lat="-18.09079" lon="-69.06854">
        <ele>5269</ele>
        <time>2025-10-18T16:46:05Z</time>
      </trkpt>
      <trkpt lat="-18.09082" lon="-69.06856">
        <ele>5271</ele>
        <time>2025-10-18T16:46:17Z</time>
      </trkpt>
      <trkpt lat="-18.09085" lon="-69.06859">
        <ele>5273</ele>
        <time>2025-10-18T16:46:35Z</time>
      </trkpt>
      <trkpt lat="-18.09089" lon="-69.06859">
        <ele>5274</ele>
        <time>2025-10-18T16:47:33Z</time>
      </trkpt>
      <trkpt lat="-18.09095" lon="-69.06854">
        <ele>5275</ele>
        <time>2025-10-18T16:47:49Z</time>
      </trkpt>
      <trkpt lat="-18.09097" lon="-69.06846">
        <ele>5277</ele>
        <time>2025-10-18T16:48:11Z</time>
      </trkpt>
      <trkpt lat="-18.09097" lon="-69.06843">
        <ele>5278</ele>
        <time>2025-10-18T16:48:23Z</time>
      </trkpt>
      <trkpt lat="-18.09101" lon="-69.06843">
        <ele>5279</ele>
        <time>2025-10-18T16:48:57Z</time>
      </trkpt>
      <trkpt lat="-18.09109" lon="-69.06846">
        <ele>5283</ele>
        <time>2025-10-18T16:49:41Z</time>
      </trkpt>
      <trkpt lat="-18.09112" lon="-69.06848">
        <ele>5285</ele>
        <time>2025-10-18T16:49:53Z</time>
      </trkpt>
      <trkpt lat="-18.09115" lon="-69.06851">
        <ele>5286</ele>
        <time>2025-10-18T16:50:03Z</time>
      </trkpt>
      <trkpt lat="-18.09117" lon="-69.06854">
        <ele>5287</ele>
        <time>2025-10-18T16:50:15Z</time>
      </trkpt>
      <trkpt lat="-18.09121" lon="-69.06855">
        <ele>5288</ele>
        <time>2025-10-18T16:50:33Z</time>
      </trkpt>
      <trkpt lat="-18.09124" lon="-69.06855">
        <ele>5290</ele>
        <time>2025-10-18T16:51:03Z</time>
      </trkpt>
      <trkpt lat="-18.09128" lon="-69.06855">
        <ele>5290</ele>
        <time>2025-10-18T16:51:31Z</time>
      </trkpt>
      <trkpt lat="-18.09135" lon="-69.06857">
        <ele>5295</ele>
        <time>2025-10-18T16:52:01Z</time>
      </trkpt>
      <trkpt lat="-18.09142" lon="-69.06858">
        <ele>5299</ele>
        <time>2025-10-18T16:52:35Z</time>
      </trkpt>
      <trkpt lat="-18.09146" lon="-69.06858">
        <ele>5300</ele>
        <time>2025-10-18T16:52:49Z</time>
      </trkpt>
      <trkpt lat="-18.0915" lon="-69.06859">
        <ele>5301</ele>
        <time>2025-10-18T16:53:01Z</time>
      </trkpt>
      <trkpt lat="-18.09161" lon="-69.06859">
        <ele>5306</ele>
        <time>2025-10-18T16:53:37Z</time>
      </trkpt>
      <trkpt lat="-18.09169" lon="-69.0686">
        <ele>5309</ele>
        <time>2025-10-18T16:54:01Z</time>
      </trkpt>
      <trkpt lat="-18.09173" lon="-69.0686">
        <ele>5311</ele>
        <time>2025-10-18T16:54:11Z</time>
      </trkpt>
      <trkpt lat="-18.0918" lon="-69.06862">
        <ele>5313</ele>
        <time>2025-10-18T16:54:33Z</time>
      </trkpt>
      <trkpt lat="-18.09187" lon="-69.06867">
        <ele>5315</ele>
        <time>2025-10-18T16:54:53Z</time>
      </trkpt>
      <trkpt lat="-18.09189" lon="-69.06869">
        <ele>5315</ele>
        <time>2025-10-18T16:55:13Z</time>
      </trkpt>
      <trkpt lat="-18.09193" lon="-69.06869">
        <ele>5316</ele>
        <time>2025-10-18T16:56:39Z</time>
      </trkpt>
      <trkpt lat="-18.09196" lon="-69.06868">
        <ele>5316</ele>
        <time>2025-10-18T16:57:59Z</time>
      </trkpt>
      <trkpt lat="-18.09199" lon="-69.06871">
        <ele>5317</ele>
        <time>2025-10-18T16:59:15Z</time>
      </trkpt>
      <trkpt lat="-18.09202" lon="-69.06873">
        <ele>5317</ele>
        <time>2025-10-18T16:59:37Z</time>
      </trkpt>
      <trkpt lat="-18.09198" lon="-69.06874">
        <ele>5316</ele>
        <time>2025-10-18T17:01:14Z</time>
      </trkpt>
      <trkpt lat="-18.09195" lon="-69.06877">
        <ele>5317</ele>
        <time>2025-10-18T17:01:26Z</time>
      </trkpt>
      <trkpt lat="-18.09192" lon="-69.06879">
        <ele>5317</ele>
        <time>2025-10-18T17:03:44Z</time>
      </trkpt>
      <trkpt lat="-18.09192" lon="-69.06883">
        <ele>5317</ele>
        <time>2025-10-18T17:04:06Z</time>
      </trkpt>
      <trkpt lat="-18.0919" lon="-69.06885">
        <ele>5318</ele>
        <time>2025-10-18T17:04:12Z</time>
      </trkpt>
      <trkpt lat="-18.09189" lon="-69.06889">
        <ele>5319</ele>
        <time>2025-10-18T17:04:20Z</time>
      </trkpt>
      <trkpt lat="-18.09187" lon="-69.06892">
        <ele>5321</ele>
        <time>2025-10-18T17:04:28Z</time>
      </trkpt>
      <trkpt lat="-18.09186" lon="-69.06896">
        <ele>5322</ele>
        <time>2025-10-18T17:04:38Z</time>
      </trkpt>
      <trkpt lat="-18.09185" lon="-69.06904">
        <ele>5325</ele>
        <time>2025-10-18T17:05:02Z</time>
      </trkpt>
      <trkpt lat="-18.09188" lon="-69.06908">
        <ele>5326</ele>
        <time>2025-10-18T17:05:14Z</time>
      </trkpt>
      <trkpt lat="-18.09185" lon="-69.0691">
        <ele>5326</ele>
        <time>2025-10-18T17:05:24Z</time>
      </trkpt>
      <trkpt lat="-18.09183" lon="-69.06914">
        <ele>5328</ele>
        <time>2025-10-18T17:05:36Z</time>
      </trkpt>
      <trkpt lat="-18.09181" lon="-69.06918">
        <ele>5329</ele>
        <time>2025-10-18T17:05:48Z</time>
      </trkpt>
      <trkpt lat="-18.09178" lon="-69.06921">
        <ele>5330</ele>
        <time>2025-10-18T17:06:00Z</time>
      </trkpt>
      <trkpt lat="-18.09175" lon="-69.06923">
        <ele>5331</ele>
        <time>2025-10-18T17:06:10Z</time>
      </trkpt>
      <trkpt lat="-18.09173" lon="-69.06926">
        <ele>5333</ele>
        <time>2025-10-18T17:06:22Z</time>
      </trkpt>
      <trkpt lat="-18.09171" lon="-69.06929">
        <ele>5334</ele>
        <time>2025-10-18T17:06:32Z</time>
      </trkpt>
      <trkpt lat="-18.09168" lon="-69.06932">
        <ele>5337</ele>
        <time>2025-10-18T17:06:44Z</time>
      </trkpt>
      <trkpt lat="-18.09163" lon="-69.06942">
        <ele>5340</ele>
        <time>2025-10-18T17:07:24Z</time>
      </trkpt>
      <trkpt lat="-18.09162" lon="-69.06946">
        <ele>5341</ele>
        <time>2025-10-18T17:07:34Z</time>
      </trkpt>
      <trkpt lat="-18.0916" lon="-69.06949">
        <ele>5342</ele>
        <time>2025-10-18T17:07:46Z</time>
      </trkpt>
      <trkpt lat="-18.09159" lon="-69.06953">
        <ele>5342</ele>
        <time>2025-10-18T17:07:56Z</time>
      </trkpt>
      <trkpt lat="-18.09162" lon="-69.06955">
        <ele>5343</ele>
        <time>2025-10-18T17:08:46Z</time>
      </trkpt>
      <trkpt lat="-18.09164" lon="-69.06957">
        <ele>5343</ele>
        <time>2025-10-18T17:10:12Z</time>
      </trkpt>
      <trkpt lat="-18.09166" lon="-69.0696">
        <ele>5344</ele>
        <time>2025-10-18T17:11:07Z</time>
      </trkpt>
      <trkpt lat="-18.09169" lon="-69.06963">
        <ele>5344</ele>
        <time>2025-10-18T17:11:17Z</time>
      </trkpt>
      <trkpt lat="-18.09169" lon="-69.06967">
        <ele>5345</ele>
        <time>2025-10-18T17:11:25Z</time>
      </trkpt>
      <trkpt lat="-18.09162" lon="-69.06982">
        <ele>5352</ele>
        <time>2025-10-18T17:12:01Z</time>
      </trkpt>
      <trkpt lat="-18.09161" lon="-69.06986">
        <ele>5353</ele>
        <time>2025-10-18T17:12:11Z</time>
      </trkpt>
      <trkpt lat="-18.09161" lon="-69.0699">
        <ele>5355</ele>
        <time>2025-10-18T17:12:25Z</time>
      </trkpt>
      <trkpt lat="-18.09161" lon="-69.06994">
        <ele>5356</ele>
        <time>2025-10-18T17:12:37Z</time>
      </trkpt>
      <trkpt lat="-18.09162" lon="-69.06993">
        <ele>5358</ele>
        <time>2025-10-18T17:29:28Z</time>
      </trkpt>
      <trkpt lat="-18.09163" lon="-69.0699">
        <ele>5359</ele>
        <time>2025-10-18T17:30:25Z</time>
      </trkpt>
      <trkpt lat="-18.09163" lon="-69.06981">
        <ele>5356</ele>
        <time>2025-10-18T17:30:41Z</time>
      </trkpt>
      <trkpt lat="-18.09164" lon="-69.06977">
        <ele>5354</ele>
        <time>2025-10-18T17:30:49Z</time>
      </trkpt>
      <trkpt lat="-18.09164" lon="-69.06973">
        <ele>5353</ele>
        <time>2025-10-18T17:30:55Z</time>
      </trkpt>
      <trkpt lat="-18.09164" lon="-69.06965">
        <ele>5350</ele>
        <time>2025-10-18T17:31:15Z</time>
      </trkpt>
      <trkpt lat="-18.09163" lon="-69.0696">
        <ele>5348</ele>
        <time>2025-10-18T17:31:23Z</time>
      </trkpt>
      <trkpt lat="-18.09161" lon="-69.06957">
        <ele>5346</ele>
        <time>2025-10-18T17:31:29Z</time>
      </trkpt>
      <trkpt lat="-18.09161" lon="-69.06949">
        <ele>5344</ele>
        <time>2025-10-18T17:31:43Z</time>
      </trkpt>
      <trkpt lat="-18.09162" lon="-69.06946">
        <ele>5343</ele>
        <time>2025-10-18T17:31:51Z</time>
      </trkpt>
      <trkpt lat="-18.09164" lon="-69.06942">
        <ele>5341</ele>
        <time>2025-10-18T17:31:59Z</time>
      </trkpt>
      <trkpt lat="-18.09166" lon="-69.06939">
        <ele>5340</ele>
        <time>2025-10-18T17:32:07Z</time>
      </trkpt>
      <trkpt lat="-18.09168" lon="-69.06935">
        <ele>5338</ele>
        <time>2025-10-18T17:32:37Z</time>
      </trkpt>
      <trkpt lat="-18.09172" lon="-69.06924">
        <ele>5335</ele>
        <time>2025-10-18T17:32:55Z</time>
      </trkpt>
      <trkpt lat="-18.09174" lon="-69.0692">
        <ele>5333</ele>
        <time>2025-10-18T17:33:01Z</time>
      </trkpt>
      <trkpt lat="-18.09175" lon="-69.06916">
        <ele>5331</ele>
        <time>2025-10-18T17:33:07Z</time>
      </trkpt>
      <trkpt lat="-18.09175" lon="-69.06912">
        <ele>5329</ele>
        <time>2025-10-18T17:33:13Z</time>
      </trkpt>
      <trkpt lat="-18.09173" lon="-69.06907">
        <ele>5328</ele>
        <time>2025-10-18T17:33:21Z</time>
      </trkpt>
      <trkpt lat="-18.09172" lon="-69.06904">
        <ele>5325</ele>
        <time>2025-10-18T17:33:29Z</time>
      </trkpt>
      <trkpt lat="-18.09172" lon="-69.069">
        <ele>5324</ele>
        <time>2025-10-18T17:33:37Z</time>
      </trkpt>
      <trkpt lat="-18.09167" lon="-69.06888">
        <ele>5318</ele>
        <time>2025-10-18T17:33:57Z</time>
      </trkpt>
      <trkpt lat="-18.09164" lon="-69.06886">
        <ele>5315</ele>
        <time>2025-10-18T17:34:05Z</time>
      </trkpt>
      <trkpt lat="-18.09154" lon="-69.06872">
        <ele>5306</ele>
        <time>2025-10-18T17:34:31Z</time>
      </trkpt>
      <trkpt lat="-18.09152" lon="-69.06868">
        <ele>5305</ele>
        <time>2025-10-18T17:34:37Z</time>
      </trkpt>
      <trkpt lat="-18.09147" lon="-69.06862">
        <ele>5301</ele>
        <time>2025-10-18T17:34:49Z</time>
      </trkpt>
      <trkpt lat="-18.09143" lon="-69.06859">
        <ele>5300</ele>
        <time>2025-10-18T17:34:55Z</time>
      </trkpt>
      <trkpt lat="-18.09136" lon="-69.06855">
        <ele>5297</ele>
        <time>2025-10-18T17:35:07Z</time>
      </trkpt>
      <trkpt lat="-18.09133" lon="-69.06854">
        <ele>5296</ele>
        <time>2025-10-18T17:36:11Z</time>
      </trkpt>
      <trkpt lat="-18.0913" lon="-69.06854">
        <ele>5295</ele>
        <time>2025-10-18T17:36:19Z</time>
      </trkpt>
      <trkpt lat="-18.09126" lon="-69.06852">
        <ele>5293</ele>
        <time>2025-10-18T17:36:27Z</time>
      </trkpt>
      <trkpt lat="-18.09122" lon="-69.06852">
        <ele>5292</ele>
        <time>2025-10-18T17:36:35Z</time>
      </trkpt>
      <trkpt lat="-18.09118" lon="-69.06852">
        <ele>5289</ele>
        <time>2025-10-18T17:36:41Z</time>
      </trkpt>
      <trkpt lat="-18.09115" lon="-69.06851">
        <ele>5288</ele>
        <time>2025-10-18T17:36:47Z</time>
      </trkpt>
      <trkpt lat="-18.09111" lon="-69.06851">
        <ele>5285</ele>
        <time>2025-10-18T17:36:53Z</time>
      </trkpt>
      <trkpt lat="-18.09095" lon="-69.06847">
        <ele>5276</ele>
        <time>2025-10-18T17:37:17Z</time>
      </trkpt>
      <trkpt lat="-18.09091" lon="-69.06847">
        <ele>5276</ele>
        <time>2025-10-18T17:37:23Z</time>
      </trkpt>
      <trkpt lat="-18.09087" lon="-69.06846">
        <ele>5274</ele>
        <time>2025-10-18T17:37:29Z</time>
      </trkpt>
      <trkpt lat="-18.09082" lon="-69.06846">
        <ele>5272</ele>
        <time>2025-10-18T17:37:35Z</time>
      </trkpt>
      <trkpt lat="-18.09078" lon="-69.06846">
        <ele>5271</ele>
        <time>2025-10-18T17:37:41Z</time>
      </trkpt>
      <trkpt lat="-18.09074" lon="-69.06846">
        <ele>5269</ele>
        <time>2025-10-18T17:37:47Z</time>
      </trkpt>
      <trkpt lat="-18.0907" lon="-69.06847">
        <ele>5268</ele>
        <time>2025-10-18T17:37:53Z</time>
      </trkpt>
      <trkpt lat="-18.09066" lon="-69.06847">
        <ele>5265</ele>
        <time>2025-10-18T17:37:59Z</time>
      </trkpt>
      <trkpt lat="-18.09062" lon="-69.06848">
        <ele>5264</ele>
        <time>2025-10-18T17:38:05Z</time>
      </trkpt>
      <trkpt lat="-18.09054" lon="-69.06849">
        <ele>5260</ele>
        <time>2025-10-18T17:38:17Z</time>
      </trkpt>
      <trkpt lat="-18.09049" lon="-69.06849">
        <ele>5257</ele>
        <time>2025-10-18T17:38:23Z</time>
      </trkpt>
      <trkpt lat="-18.09045" lon="-69.06849">
        <ele>5254</ele>
        <time>2025-10-18T17:38:29Z</time>
      </trkpt>
      <trkpt lat="-18.09041" lon="-69.06849">
        <ele>5253</ele>
        <time>2025-10-18T17:38:35Z</time>
      </trkpt>
      <trkpt lat="-18.09032" lon="-69.06849">
        <ele>5250</ele>
        <time>2025-10-18T17:38:47Z</time>
      </trkpt>
      <trkpt lat="-18.09027" lon="-69.06849">
        <ele>5248</ele>
        <time>2025-10-18T17:38:53Z</time>
      </trkpt>
      <trkpt lat="-18.09024" lon="-69.06846">
        <ele>5248</ele>
        <time>2025-10-18T17:38:57Z</time>
      </trkpt>
      <trkpt lat="-18.09019" lon="-69.06845">
        <ele>5246</ele>
        <time>2025-10-18T17:39:03Z</time>
      </trkpt>
      <trkpt lat="-18.09008" lon="-69.06848">
        <ele>5243</ele>
        <time>2025-10-18T17:39:17Z</time>
      </trkpt>
      <trkpt lat="-18.09004" lon="-69.06849">
        <ele>5243</ele>
        <time>2025-10-18T17:39:21Z</time>
      </trkpt>
      <trkpt lat="-18.08995" lon="-69.06852">
        <ele>5241</ele>
        <time>2025-10-18T17:39:33Z</time>
      </trkpt>
      <trkpt lat="-18.08983" lon="-69.06858">
        <ele>5237</ele>
        <time>2025-10-18T17:39:51Z</time>
      </trkpt>
      <trkpt lat="-18.08979" lon="-69.06857">
        <ele>5236</ele>
        <time>2025-10-18T17:40:03Z</time>
      </trkpt>
      <trkpt lat="-18.08976" lon="-69.0686">
        <ele>5235</ele>
        <time>2025-10-18T17:40:21Z</time>
      </trkpt>
      <trkpt lat="-18.08972" lon="-69.06863">
        <ele>5234</ele>
        <time>2025-10-18T17:40:27Z</time>
      </trkpt>
      <trkpt lat="-18.08968" lon="-69.06865">
        <ele>5232</ele>
        <time>2025-10-18T17:40:33Z</time>
      </trkpt>
      <trkpt lat="-18.08965" lon="-69.06865">
        <ele>5230</ele>
        <time>2025-10-18T17:40:37Z</time>
      </trkpt>
      <trkpt lat="-18.08961" lon="-69.06867">
        <ele>5229</ele>
        <time>2025-10-18T17:40:43Z</time>
      </trkpt>
      <trkpt lat="-18.08956" lon="-69.06868">
        <ele>5227</ele>
        <time>2025-10-18T17:40:49Z</time>
      </trkpt>
      <trkpt lat="-18.08952" lon="-69.06867">
        <ele>5226</ele>
        <time>2025-10-18T17:40:55Z</time>
      </trkpt>
      <trkpt lat="-18.08945" lon="-69.06865">
        <ele>5221</ele>
        <time>2025-10-18T17:41:13Z</time>
      </trkpt>
      <trkpt lat="-18.08941" lon="-69.06865">
        <ele>5220</ele>
        <time>2025-10-18T17:42:05Z</time>
      </trkpt>
      <trkpt lat="-18.08926" lon="-69.06861">
        <ele>5210</ele>
        <time>2025-10-18T17:42:31Z</time>
      </trkpt>
      <trkpt lat="-18.08922" lon="-69.06862">
        <ele>5207</ele>
        <time>2025-10-18T17:42:37Z</time>
      </trkpt>
      <trkpt lat="-18.08918" lon="-69.06864">
        <ele>5205</ele>
        <time>2025-10-18T17:42:45Z</time>
      </trkpt>
      <trkpt lat="-18.08915" lon="-69.06866">
        <ele>5201</ele>
        <time>2025-10-18T17:42:53Z</time>
      </trkpt>
      <trkpt lat="-18.08912" lon="-69.06868">
        <ele>5198</ele>
        <time>2025-10-18T17:43:17Z</time>
      </trkpt>
      <trkpt lat="-18.08908" lon="-69.06869">
        <ele>5196</ele>
        <time>2025-10-18T17:43:25Z</time>
      </trkpt>
      <trkpt lat="-18.08905" lon="-69.0687">
        <ele>5194</ele>
        <time>2025-10-18T17:43:33Z</time>
      </trkpt>
      <trkpt lat="-18.08901" lon="-69.06872">
        <ele>5190</ele>
        <time>2025-10-18T17:43:43Z</time>
      </trkpt>
      <trkpt lat="-18.08894" lon="-69.06873">
        <ele>5186</ele>
        <time>2025-10-18T17:43:57Z</time>
      </trkpt>
      <trkpt lat="-18.08887" lon="-69.06876">
        <ele>5181</ele>
        <time>2025-10-18T17:44:11Z</time>
      </trkpt>
      <trkpt lat="-18.08886" lon="-69.0688">
        <ele>5179</ele>
        <time>2025-10-18T17:44:39Z</time>
      </trkpt>
      <trkpt lat="-18.08883" lon="-69.06879">
        <ele>5176</ele>
        <time>2025-10-18T17:45:53Z</time>
      </trkpt>
      <trkpt lat="-18.08879" lon="-69.0688">
        <ele>5172</ele>
        <time>2025-10-18T17:46:03Z</time>
      </trkpt>
      <trkpt lat="-18.08872" lon="-69.06881">
        <ele>5168</ele>
        <time>2025-10-18T17:46:17Z</time>
      </trkpt>
      <trkpt lat="-18.08868" lon="-69.06881">
        <ele>5166</ele>
        <time>2025-10-18T17:46:23Z</time>
      </trkpt>
      <trkpt lat="-18.08856" lon="-69.06885">
        <ele>5159</ele>
        <time>2025-10-18T17:46:45Z</time>
      </trkpt>
      <trkpt lat="-18.08849" lon="-69.06887">
        <ele>5154</ele>
        <time>2025-10-18T17:46:57Z</time>
      </trkpt>
      <trkpt lat="-18.08836" lon="-69.06887">
        <ele>5145</ele>
        <time>2025-10-18T17:47:15Z</time>
      </trkpt>
      <trkpt lat="-18.08833" lon="-69.06888">
        <ele>5143</ele>
        <time>2025-10-18T17:48:17Z</time>
      </trkpt>
      <trkpt lat="-18.08826" lon="-69.06889">
        <ele>5139</ele>
        <time>2025-10-18T17:48:25Z</time>
      </trkpt>
      <trkpt lat="-18.08814" lon="-69.06895">
        <ele>5130</ele>
        <time>2025-10-18T17:48:41Z</time>
      </trkpt>
      <trkpt lat="-18.0881" lon="-69.06896">
        <ele>5128</ele>
        <time>2025-10-18T17:48:45Z</time>
      </trkpt>
      <trkpt lat="-18.08806" lon="-69.06898">
        <ele>5124</ele>
        <time>2025-10-18T17:48:51Z</time>
      </trkpt>
      <trkpt lat="-18.08801" lon="-69.06899">
        <ele>5121</ele>
        <time>2025-10-18T17:48:57Z</time>
      </trkpt>
      <trkpt lat="-18.08796" lon="-69.06902">
        <ele>5118</ele>
        <time>2025-10-18T17:49:03Z</time>
      </trkpt>
      <trkpt lat="-18.08792" lon="-69.06902">
        <ele>5115</ele>
        <time>2025-10-18T17:49:09Z</time>
      </trkpt>
      <trkpt lat="-18.08766" lon="-69.06905">
        <ele>5102</ele>
        <time>2025-10-18T17:49:41Z</time>
      </trkpt>
      <trkpt lat="-18.08761" lon="-69.06907">
        <ele>5099</ele>
        <time>2025-10-18T17:49:47Z</time>
      </trkpt>
      <trkpt lat="-18.08745" lon="-69.06909">
        <ele>5089</ele>
        <time>2025-10-18T17:50:09Z</time>
      </trkpt>
      <trkpt lat="-18.08741" lon="-69.06911">
        <ele>5086</ele>
        <time>2025-10-18T17:50:15Z</time>
      </trkpt>
      <trkpt lat="-18.08737" lon="-69.06913">
        <ele>5085</ele>
        <time>2025-10-18T17:50:21Z</time>
      </trkpt>
      <trkpt lat="-18.08732" lon="-69.06914">
        <ele>5082</ele>
        <time>2025-10-18T17:50:29Z</time>
      </trkpt>
      <trkpt lat="-18.08728" lon="-69.06915">
        <ele>5079</ele>
        <time>2025-10-18T17:50:35Z</time>
      </trkpt>
      <trkpt lat="-18.08716" lon="-69.0692">
        <ele>5072</ele>
        <time>2025-10-18T17:50:51Z</time>
      </trkpt>
      <trkpt lat="-18.08712" lon="-69.06921">
        <ele>5069</ele>
        <time>2025-10-18T17:50:57Z</time>
      </trkpt>
      <trkpt lat="-18.08704" lon="-69.06926">
        <ele>5064</ele>
        <time>2025-10-18T17:51:09Z</time>
      </trkpt>
      <trkpt lat="-18.08695" lon="-69.06929">
        <ele>5060</ele>
        <time>2025-10-18T17:51:21Z</time>
      </trkpt>
      <trkpt lat="-18.08691" lon="-69.0693">
        <ele>5058</ele>
        <time>2025-10-18T17:51:27Z</time>
      </trkpt>
      <trkpt lat="-18.08688" lon="-69.06933">
        <ele>5057</ele>
        <time>2025-10-18T17:51:33Z</time>
      </trkpt>
      <trkpt lat="-18.08684" lon="-69.06937">
        <ele>5055</ele>
        <time>2025-10-18T17:51:39Z</time>
      </trkpt>
      <trkpt lat="-18.08682" lon="-69.06941">
        <ele>5052</ele>
        <time>2025-10-18T17:51:45Z</time>
      </trkpt>
      <trkpt lat="-18.08664" lon="-69.06944">
        <ele>5044</ele>
        <time>2025-10-18T17:52:10Z</time>
      </trkpt>
      <trkpt lat="-18.08651" lon="-69.06942">
        <ele>5043</ele>
        <time>2025-10-18T17:52:26Z</time>
      </trkpt>
      <trkpt lat="-18.08643" lon="-69.06941">
        <ele>5041</ele>
        <time>2025-10-18T17:52:38Z</time>
      </trkpt>
      <trkpt lat="-18.08621" lon="-69.0694">
        <ele>5036</ele>
        <time>2025-10-18T17:53:08Z</time>
      </trkpt>
      <trkpt lat="-18.08617" lon="-69.0694">
        <ele>5036</ele>
        <time>2025-10-18T17:53:12Z</time>
      </trkpt>
      <trkpt lat="-18.08605" lon="-69.06942">
        <ele>5033</ele>
        <time>2025-10-18T17:53:30Z</time>
      </trkpt>
      <trkpt lat="-18.08597" lon="-69.06944">
        <ele>5032</ele>
        <time>2025-10-18T17:53:38Z</time>
      </trkpt>
      <trkpt lat="-18.08581" lon="-69.06943">
        <ele>5030</ele>
        <time>2025-10-18T17:53:54Z</time>
      </trkpt>
      <trkpt lat="-18.08577" lon="-69.06945">
        <ele>5028</ele>
        <time>2025-10-18T17:53:58Z</time>
      </trkpt>
      <trkpt lat="-18.08569" lon="-69.06943">
        <ele>5027</ele>
        <time>2025-10-18T17:54:06Z</time>
      </trkpt>
      <trkpt lat="-18.0856" lon="-69.06942">
        <ele>5026</ele>
        <time>2025-10-18T17:54:14Z</time>
      </trkpt>
      <trkpt lat="-18.08557" lon="-69.06941">
        <ele>5026</ele>
        <time>2025-10-18T17:54:18Z</time>
      </trkpt>
      <trkpt lat="-18.08553" lon="-69.06939">
        <ele>5025</ele>
        <time>2025-10-18T17:54:24Z</time>
      </trkpt>
      <trkpt lat="-18.08555" lon="-69.06935">
        <ele>5025</ele>
        <time>2025-10-18T17:57:36Z</time>
      </trkpt>
      <trkpt lat="-18.08557" lon="-69.06938">
        <ele>5023</ele>
        <time>2025-10-18T18:01:26Z</time>
      </trkpt>
      <trkpt lat="-18.08555" lon="-69.06945">
        <ele>5023</ele>
        <time>2025-10-18T18:01:38Z</time>
      </trkpt>
      <trkpt lat="-18.08557" lon="-69.06942">
        <ele>5023</ele>
        <time>2025-10-18T18:01:48Z</time>
      </trkpt>
      <trkpt lat="-18.0856" lon="-69.06939">
        <ele>5023</ele>
        <time>2025-10-18T18:01:52Z</time>
      </trkpt>
      <trkpt lat="-18.08559" lon="-69.06932">
        <ele>5022</ele>
        <time>2025-10-18T18:02:20Z</time>
      </trkpt>
      <trkpt lat="-18.08558" lon="-69.06928">
        <ele>5021</ele>
        <time>2025-10-18T18:03:30Z</time>
      </trkpt>
      <trkpt lat="-18.08556" lon="-69.06927">
        <ele>5028</ele>
        <time>2025-10-18T18:04:12Z</time>
      </trkpt>
      <trkpt lat="-18.08554" lon="-69.06924">
        <ele>5026</ele>
        <time>2025-10-18T18:04:18Z</time>
      </trkpt>
      <trkpt lat="-18.08553" lon="-69.0692">
        <ele>5025</ele>
        <time>2025-10-18T18:04:38Z</time>
      </trkpt>
      <trkpt lat="-18.0855" lon="-69.06917">
        <ele>5023</ele>
        <time>2025-10-18T18:04:44Z</time>
      </trkpt>
      <trkpt lat="-18.08548" lon="-69.06914">
        <ele>5022</ele>
        <time>2025-10-18T18:04:50Z</time>
      </trkpt>
      <trkpt lat="-18.08545" lon="-69.06911">
        <ele>5019</ele>
        <time>2025-10-18T18:04:56Z</time>
      </trkpt>
      <trkpt lat="-18.08528" lon="-69.06905">
        <ele>5013</ele>
        <time>2025-10-18T18:05:16Z</time>
      </trkpt>
      <trkpt lat="-18.08525" lon="-69.06902">
        <ele>5011</ele>
        <time>2025-10-18T18:05:21Z</time>
      </trkpt>
      <trkpt lat="-18.08522" lon="-69.06898">
        <ele>5010</ele>
        <time>2025-10-18T18:05:27Z</time>
      </trkpt>
      <trkpt lat="-18.08519" lon="-69.06894">
        <ele>5008</ele>
        <time>2025-10-18T18:05:33Z</time>
      </trkpt>
      <trkpt lat="-18.08518" lon="-69.06889">
        <ele>5007</ele>
        <time>2025-10-18T18:05:39Z</time>
      </trkpt>
      <trkpt lat="-18.08516" lon="-69.06886">
        <ele>5004</ele>
        <time>2025-10-18T18:05:43Z</time>
      </trkpt>
      <trkpt lat="-18.08515" lon="-69.06882">
        <ele>5003</ele>
        <time>2025-10-18T18:05:47Z</time>
      </trkpt>
      <trkpt lat="-18.08509" lon="-69.06869">
        <ele>4997</ele>
        <time>2025-10-18T18:06:03Z</time>
      </trkpt>
      <trkpt lat="-18.08506" lon="-69.06864">
        <ele>4994</ele>
        <time>2025-10-18T18:06:09Z</time>
      </trkpt>
      <trkpt lat="-18.08498" lon="-69.0686">
        <ele>4991</ele>
        <time>2025-10-18T18:06:19Z</time>
      </trkpt>
      <trkpt lat="-18.08495" lon="-69.06858">
        <ele>4990</ele>
        <time>2025-10-18T18:06:23Z</time>
      </trkpt>
      <trkpt lat="-18.08492" lon="-69.06855">
        <ele>4988</ele>
        <time>2025-10-18T18:06:29Z</time>
      </trkpt>
      <trkpt lat="-18.08482" lon="-69.06848">
        <ele>4983</ele>
        <time>2025-10-18T18:06:43Z</time>
      </trkpt>
      <trkpt lat="-18.08479" lon="-69.06844">
        <ele>4982</ele>
        <time>2025-10-18T18:06:49Z</time>
      </trkpt>
      <trkpt lat="-18.08478" lon="-69.06841">
        <ele>4980</ele>
        <time>2025-10-18T18:06:53Z</time>
      </trkpt>
      <trkpt lat="-18.08475" lon="-69.06837">
        <ele>4979</ele>
        <time>2025-10-18T18:06:59Z</time>
      </trkpt>
      <trkpt lat="-18.08474" lon="-69.06833">
        <ele>4977</ele>
        <time>2025-10-18T18:07:05Z</time>
      </trkpt>
      <trkpt lat="-18.0847" lon="-69.0683">
        <ele>4976</ele>
        <time>2025-10-18T18:07:11Z</time>
      </trkpt>
      <trkpt lat="-18.08467" lon="-69.06829">
        <ele>4973</ele>
        <time>2025-10-18T18:07:17Z</time>
      </trkpt>
      <trkpt lat="-18.08463" lon="-69.06828">
        <ele>4970</ele>
        <time>2025-10-18T18:07:45Z</time>
      </trkpt>
      <trkpt lat="-18.08449" lon="-69.0682">
        <ele>4963</ele>
        <time>2025-10-18T18:08:13Z</time>
      </trkpt>
      <trkpt lat="-18.08446" lon="-69.06817">
        <ele>4960</ele>
        <time>2025-10-18T18:08:19Z</time>
      </trkpt>
      <trkpt lat="-18.08433" lon="-69.06806">
        <ele>4949</ele>
        <time>2025-10-18T18:08:43Z</time>
      </trkpt>
      <trkpt lat="-18.08425" lon="-69.06796">
        <ele>4940</ele>
        <time>2025-10-18T18:09:01Z</time>
      </trkpt>
      <trkpt lat="-18.08422" lon="-69.06794">
        <ele>4939</ele>
        <time>2025-10-18T18:09:07Z</time>
      </trkpt>
      <trkpt lat="-18.08419" lon="-69.06793">
        <ele>4937</ele>
        <time>2025-10-18T18:09:19Z</time>
      </trkpt>
      <trkpt lat="-18.08415" lon="-69.0679">
        <ele>4936</ele>
        <time>2025-10-18T18:09:25Z</time>
      </trkpt>
      <trkpt lat="-18.08412" lon="-69.06786">
        <ele>4932</ele>
        <time>2025-10-18T18:09:31Z</time>
      </trkpt>
      <trkpt lat="-18.08408" lon="-69.06785">
        <ele>4928</ele>
        <time>2025-10-18T18:09:37Z</time>
      </trkpt>
      <trkpt lat="-18.08401" lon="-69.06781">
        <ele>4923</ele>
        <time>2025-10-18T18:09:49Z</time>
      </trkpt>
      <trkpt lat="-18.08398" lon="-69.06778">
        <ele>4921</ele>
        <time>2025-10-18T18:09:55Z</time>
      </trkpt>
      <trkpt lat="-18.08396" lon="-69.06773">
        <ele>4917</ele>
        <time>2025-10-18T18:10:01Z</time>
      </trkpt>
      <trkpt lat="-18.08394" lon="-69.0677">
        <ele>4915</ele>
        <time>2025-10-18T18:10:07Z</time>
      </trkpt>
      <trkpt lat="-18.08386" lon="-69.06764">
        <ele>4910</ele>
        <time>2025-10-18T18:10:19Z</time>
      </trkpt>
      <trkpt lat="-18.08377" lon="-69.06756">
        <ele>4904</ele>
        <time>2025-10-18T18:10:43Z</time>
      </trkpt>
      <trkpt lat="-18.08375" lon="-69.06753">
        <ele>4902</ele>
        <time>2025-10-18T18:10:51Z</time>
      </trkpt>
      <trkpt lat="-18.08373" lon="-69.06749">
        <ele>4899</ele>
        <time>2025-10-18T18:11:37Z</time>
      </trkpt>
      <trkpt lat="-18.08366" lon="-69.06732">
        <ele>4890</ele>
        <time>2025-10-18T18:12:07Z</time>
      </trkpt>
      <trkpt lat="-18.08365" lon="-69.06728">
        <ele>4889</ele>
        <time>2025-10-18T18:12:13Z</time>
      </trkpt>
      <trkpt lat="-18.08364" lon="-69.06723">
        <ele>4886</ele>
        <time>2025-10-18T18:12:21Z</time>
      </trkpt>
      <trkpt lat="-18.08358" lon="-69.06711">
        <ele>4878</ele>
        <time>2025-10-18T18:12:41Z</time>
      </trkpt>
      <trkpt lat="-18.08356" lon="-69.06706">
        <ele>4876</ele>
        <time>2025-10-18T18:13:03Z</time>
      </trkpt>
      <trkpt lat="-18.08354" lon="-69.06704">
        <ele>4875</ele>
        <time>2025-10-18T18:13:09Z</time>
      </trkpt>
      <trkpt lat="-18.0835" lon="-69.06697">
        <ele>4872</ele>
        <time>2025-10-18T18:13:21Z</time>
      </trkpt>
      <trkpt lat="-18.08347" lon="-69.0669">
        <ele>4867</ele>
        <time>2025-10-18T18:13:35Z</time>
      </trkpt>
      <trkpt lat="-18.08345" lon="-69.06687">
        <ele>4865</ele>
        <time>2025-10-18T18:13:41Z</time>
      </trkpt>
      <trkpt lat="-18.08343" lon="-69.06683">
        <ele>4863</ele>
        <time>2025-10-18T18:13:49Z</time>
      </trkpt>
      <trkpt lat="-18.0834" lon="-69.06681">
        <ele>4861</ele>
        <time>2025-10-18T18:13:59Z</time>
      </trkpt>
      <trkpt lat="-18.08338" lon="-69.06677">
        <ele>4859</ele>
        <time>2025-10-18T18:14:15Z</time>
      </trkpt>
      <trkpt lat="-18.08338" lon="-69.06673">
        <ele>4857</ele>
        <time>2025-10-18T18:14:23Z</time>
      </trkpt>
      <trkpt lat="-18.08336" lon="-69.06669">
        <ele>4856</ele>
        <time>2025-10-18T18:14:29Z</time>
      </trkpt>
      <trkpt lat="-18.08334" lon="-69.06666">
        <ele>4853</ele>
        <time>2025-10-18T18:14:35Z</time>
      </trkpt>
      <trkpt lat="-18.08332" lon="-69.06663">
        <ele>4852</ele>
        <time>2025-10-18T18:14:41Z</time>
      </trkpt>
      <trkpt lat="-18.08329" lon="-69.06658">
        <ele>4850</ele>
        <time>2025-10-18T18:14:49Z</time>
      </trkpt>
      <trkpt lat="-18.08327" lon="-69.06655">
        <ele>4848</ele>
        <time>2025-10-18T18:14:57Z</time>
      </trkpt>
      <trkpt lat="-18.08326" lon="-69.06651">
        <ele>4846</ele>
        <time>2025-10-18T18:15:05Z</time>
      </trkpt>
      <trkpt lat="-18.08324" lon="-69.06648">
        <ele>4845</ele>
        <time>2025-10-18T18:15:13Z</time>
      </trkpt>
      <trkpt lat="-18.08321" lon="-69.06641">
        <ele>4842</ele>
        <time>2025-10-18T18:16:03Z</time>
      </trkpt>
      <trkpt lat="-18.08319" lon="-69.06639">
        <ele>4840</ele>
        <time>2025-10-18T18:16:15Z</time>
      </trkpt>
      <trkpt lat="-18.08316" lon="-69.06636">
        <ele>4839</ele>
        <time>2025-10-18T18:16:25Z</time>
      </trkpt>
      <trkpt lat="-18.08314" lon="-69.06633">
        <ele>4836</ele>
        <time>2025-10-18T18:16:33Z</time>
      </trkpt>
      <trkpt lat="-18.08311" lon="-69.06631">
        <ele>4835</ele>
        <time>2025-10-18T18:16:41Z</time>
      </trkpt>
      <trkpt lat="-18.08309" lon="-69.06628">
        <ele>4831</ele>
        <time>2025-10-18T18:17:45Z</time>
      </trkpt>
      <trkpt lat="-18.08308" lon="-69.06624">
        <ele>4831</ele>
        <time>2025-10-18T18:17:51Z</time>
      </trkpt>
      <trkpt lat="-18.08303" lon="-69.06623">
        <ele>4828</ele>
        <time>2025-10-18T18:17:59Z</time>
      </trkpt>
      <trkpt lat="-18.083" lon="-69.06623">
        <ele>4826</ele>
        <time>2025-10-18T18:18:07Z</time>
      </trkpt>
      <trkpt lat="-18.08297" lon="-69.0662">
        <ele>4824</ele>
        <time>2025-10-18T18:18:15Z</time>
      </trkpt>
      <trkpt lat="-18.0829" lon="-69.06611">
        <ele>4816</ele>
        <time>2025-10-18T18:18:31Z</time>
      </trkpt>
      <trkpt lat="-18.08289" lon="-69.06607">
        <ele>4814</ele>
        <time>2025-10-18T18:18:37Z</time>
      </trkpt>
      <trkpt lat="-18.08286" lon="-69.06605">
        <ele>4811</ele>
        <time>2025-10-18T18:19:13Z</time>
      </trkpt>
      <trkpt lat="-18.08283" lon="-69.06602">
        <ele>4809</ele>
        <time>2025-10-18T18:19:19Z</time>
      </trkpt>
      <trkpt lat="-18.08281" lon="-69.066">
        <ele>4806</ele>
        <time>2025-10-18T18:19:25Z</time>
      </trkpt>
      <trkpt lat="-18.0827" lon="-69.06597">
        <ele>4799</ele>
        <time>2025-10-18T18:19:43Z</time>
      </trkpt>
      <trkpt lat="-18.08267" lon="-69.06599">
        <ele>4797</ele>
        <time>2025-10-18T18:20:03Z</time>
      </trkpt>
      <trkpt lat="-18.08263" lon="-69.06593">
        <ele>4794</ele>
        <time>2025-10-18T18:20:09Z</time>
      </trkpt>
      <trkpt lat="-18.0826" lon="-69.0659">
        <ele>4791</ele>
        <time>2025-10-18T18:20:15Z</time>
      </trkpt>
      <trkpt lat="-18.08259" lon="-69.06587">
        <ele>4789</ele>
        <time>2025-10-18T18:20:21Z</time>
      </trkpt>
      <trkpt lat="-18.08249" lon="-69.06574">
        <ele>4778</ele>
        <time>2025-10-18T18:20:47Z</time>
      </trkpt>
      <trkpt lat="-18.08247" lon="-69.06571">
        <ele>4774</ele>
        <time>2025-10-18T18:20:55Z</time>
      </trkpt>
      <trkpt lat="-18.08244" lon="-69.06571">
        <ele>4773</ele>
        <time>2025-10-18T18:21:31Z</time>
      </trkpt>
      <trkpt lat="-18.0824" lon="-69.06569">
        <ele>4769</ele>
        <time>2025-10-18T18:21:39Z</time>
      </trkpt>
      <trkpt lat="-18.08236" lon="-69.06568">
        <ele>4767</ele>
        <time>2025-10-18T18:21:53Z</time>
      </trkpt>
      <trkpt lat="-18.08234" lon="-69.06565">
        <ele>4765</ele>
        <time>2025-10-18T18:22:15Z</time>
      </trkpt>
      <trkpt lat="-18.08231" lon="-69.06563">
        <ele>4764</ele>
        <time>2025-10-18T18:22:23Z</time>
      </trkpt>
      <trkpt lat="-18.08227" lon="-69.06562">
        <ele>4761</ele>
        <time>2025-10-18T18:22:35Z</time>
      </trkpt>
      <trkpt lat="-18.08224" lon="-69.0656">
        <ele>4761</ele>
        <time>2025-10-18T18:23:21Z</time>
      </trkpt>
      <trkpt lat="-18.08221" lon="-69.06559">
        <ele>4757</ele>
        <time>2025-10-18T18:25:19Z</time>
      </trkpt>
      <trkpt lat="-18.08218" lon="-69.06556">
        <ele>4755</ele>
        <time>2025-10-18T18:25:29Z</time>
      </trkpt>
      <trkpt lat="-18.08215" lon="-69.06555">
        <ele>4753</ele>
        <time>2025-10-18T18:25:37Z</time>
      </trkpt>
      <trkpt lat="-18.08212" lon="-69.06553">
        <ele>4750</ele>
        <time>2025-10-18T18:25:49Z</time>
      </trkpt>
      <trkpt lat="-18.0821" lon="-69.0655">
        <ele>4746</ele>
        <time>2025-10-18T18:26:15Z</time>
      </trkpt>
      <trkpt lat="-18.08207" lon="-69.06549">
        <ele>4745</ele>
        <time>2025-10-18T18:26:33Z</time>
      </trkpt>
      <trkpt lat="-18.08203" lon="-69.06548">
        <ele>4743</ele>
        <time>2025-10-18T18:27:07Z</time>
      </trkpt>
      <trkpt lat="-18.08201" lon="-69.06545">
        <ele>4742</ele>
        <time>2025-10-18T18:27:53Z</time>
      </trkpt>
      <trkpt lat="-18.08198" lon="-69.06542">
        <ele>4740</ele>
        <time>2025-10-18T18:28:11Z</time>
      </trkpt>
      <trkpt lat="-18.082" lon="-69.06539">
        <ele>4739</ele>
        <time>2025-10-18T18:28:39Z</time>
      </trkpt>
      <trkpt lat="-18.08199" lon="-69.06535">
        <ele>4737</ele>
        <time>2025-10-18T18:28:45Z</time>
      </trkpt>
      <trkpt lat="-18.08199" lon="-69.06532">
        <ele>4736</ele>
        <time>2025-10-18T18:28:53Z</time>
      </trkpt>
      <trkpt lat="-18.08198" lon="-69.06528">
        <ele>4734</ele>
        <time>2025-10-18T18:29:57Z</time>
      </trkpt>
      <trkpt lat="-18.08197" lon="-69.06525">
        <ele>4733</ele>
        <time>2025-10-18T18:30:11Z</time>
      </trkpt>
      <trkpt lat="-18.08193" lon="-69.06523">
        <ele>4732</ele>
        <time>2025-10-18T18:30:37Z</time>
      </trkpt>
      <trkpt lat="-18.0819" lon="-69.06521">
        <ele>4731</ele>
        <time>2025-10-18T18:30:59Z</time>
      </trkpt>
      <trkpt lat="-18.08186" lon="-69.0652">
        <ele>4730</ele>
        <time>2025-10-18T18:31:31Z</time>
      </trkpt>
      <trkpt lat="-18.08183" lon="-69.06519">
        <ele>4728</ele>
        <time>2025-10-18T18:31:49Z</time>
      </trkpt>
      <trkpt lat="-18.08181" lon="-69.06516">
        <ele>4726</ele>
        <time>2025-10-18T18:32:19Z</time>
      </trkpt>
      <trkpt lat="-18.08177" lon="-69.06516">
        <ele>4723</ele>
        <time>2025-10-18T18:32:45Z</time>
      </trkpt>
      <trkpt lat="-18.08176" lon="-69.06512">
        <ele>4721</ele>
        <time>2025-10-18T18:32:57Z</time>
      </trkpt>
      <trkpt lat="-18.08173" lon="-69.0651">
        <ele>4719</ele>
        <time>2025-10-18T18:33:05Z</time>
      </trkpt>
      <trkpt lat="-18.0817" lon="-69.06508">
        <ele>4719</ele>
        <time>2025-10-18T18:33:15Z</time>
      </trkpt>
      <trkpt lat="-18.08167" lon="-69.06509">
        <ele>4718</ele>
        <time>2025-10-18T18:33:25Z</time>
      </trkpt>
      <trkpt lat="-18.08163" lon="-69.06509">
        <ele>4717</ele>
        <time>2025-10-18T18:34:03Z</time>
      </trkpt>
      <trkpt lat="-18.08156" lon="-69.06505">
        <ele>4713</ele>
        <time>2025-10-18T18:34:25Z</time>
      </trkpt>
      <trkpt lat="-18.08153" lon="-69.06505">
        <ele>4712</ele>
        <time>2025-10-18T18:34:35Z</time>
      </trkpt>
      <trkpt lat="-18.08155" lon="-69.06498">
        <ele>4708</ele>
        <time>2025-10-18T18:35:05Z</time>
      </trkpt>
      <trkpt lat="-18.08151" lon="-69.06495">
        <ele>4707</ele>
        <time>2025-10-18T18:35:15Z</time>
      </trkpt>
      <trkpt lat="-18.08149" lon="-69.06493">
        <ele>4705</ele>
        <time>2025-10-18T18:35:33Z</time>
      </trkpt>
      <trkpt lat="-18.08146" lon="-69.0649">
        <ele>4704</ele>
        <time>2025-10-18T18:35:53Z</time>
      </trkpt>
      <trkpt lat="-18.08146" lon="-69.06486">
        <ele>4701</ele>
        <time>2025-10-18T18:36:07Z</time>
      </trkpt>
      <trkpt lat="-18.08146" lon="-69.06482">
        <ele>4700</ele>
        <time>2025-10-18T18:37:05Z</time>
      </trkpt>
      <trkpt lat="-18.08146" lon="-69.06479">
        <ele>4697</ele>
        <time>2025-10-18T18:37:13Z</time>
      </trkpt>
      <trkpt lat="-18.08142" lon="-69.06469">
        <ele>4692</ele>
        <time>2025-10-18T18:37:51Z</time>
      </trkpt>
      <trkpt lat="-18.08141" lon="-69.06461">
        <ele>4690</ele>
        <time>2025-10-18T18:38:15Z</time>
      </trkpt>
      <trkpt lat="-18.08137" lon="-69.0646">
        <ele>4690</ele>
        <time>2025-10-18T18:38:23Z</time>
      </trkpt>
      <trkpt lat="-18.08134" lon="-69.06462">
        <ele>4690</ele>
        <time>2025-10-18T18:38:37Z</time>
      </trkpt>
      <trkpt lat="-18.08133" lon="-69.06458">
        <ele>4690</ele>
        <time>2025-10-18T18:38:47Z</time>
      </trkpt>
      <trkpt lat="-18.08133" lon="-69.06454">
        <ele>4689</ele>
        <time>2025-10-18T18:38:57Z</time>
      </trkpt>
      <trkpt lat="-18.0813" lon="-69.06452">
        <ele>4689</ele>
        <time>2025-10-18T18:39:15Z</time>
      </trkpt>
      <trkpt lat="-18.08132" lon="-69.0645">
        <ele>4688</ele>
        <time>2025-10-18T18:39:33Z</time>
      </trkpt>
      <trkpt lat="-18.08133" lon="-69.06446">
        <ele>4686</ele>
        <time>2025-10-18T18:39:43Z</time>
      </trkpt>
      <trkpt lat="-18.08134" lon="-69.06442">
        <ele>4684</ele>
        <time>2025-10-18T18:40:15Z</time>
      </trkpt>
      <trkpt lat="-18.08134" lon="-69.06438">
        <ele>4682</ele>
        <time>2025-10-18T18:40:25Z</time>
      </trkpt>
      <trkpt lat="-18.08134" lon="-69.06434">
        <ele>4681</ele>
        <time>2025-10-18T18:40:35Z</time>
      </trkpt>
      <trkpt lat="-18.08135" lon="-69.0643">
        <ele>4679</ele>
        <time>2025-10-18T18:40:43Z</time>
      </trkpt>
      <trkpt lat="-18.08135" lon="-69.06426">
        <ele>4678</ele>
        <time>2025-10-18T18:40:51Z</time>
      </trkpt>
      <trkpt lat="-18.08135" lon="-69.06422">
        <ele>4676</ele>
        <time>2025-10-18T18:40:57Z</time>
      </trkpt>
      <trkpt lat="-18.08134" lon="-69.06418">
        <ele>4676</ele>
        <time>2025-10-18T18:41:05Z</time>
      </trkpt>
      <trkpt lat="-18.08135" lon="-69.06415">
        <ele>4674</ele>
        <time>2025-10-18T18:41:11Z</time>
      </trkpt>
      <trkpt lat="-18.08134" lon="-69.0641">
        <ele>4674</ele>
        <time>2025-10-18T18:41:19Z</time>
      </trkpt>
      <trkpt lat="-18.08135" lon="-69.06407">
        <ele>4672</ele>
        <time>2025-10-18T18:41:27Z</time>
      </trkpt>
      <trkpt lat="-18.08135" lon="-69.06403">
        <ele>4671</ele>
        <time>2025-10-18T18:41:47Z</time>
      </trkpt>
      <trkpt lat="-18.08132" lon="-69.06396">
        <ele>4671</ele>
        <time>2025-10-18T18:42:01Z</time>
      </trkpt>
      <trkpt lat="-18.08132" lon="-69.06391">
        <ele>4669</ele>
        <time>2025-10-18T18:42:11Z</time>
      </trkpt>
      <trkpt lat="-18.08129" lon="-69.06388">
        <ele>4668</ele>
        <time>2025-10-18T18:42:17Z</time>
      </trkpt>
      <trkpt lat="-18.08129" lon="-69.06379">
        <ele>4667</ele>
        <time>2025-10-18T18:42:29Z</time>
      </trkpt>
      <trkpt lat="-18.08128" lon="-69.06376">
        <ele>4666</ele>
        <time>2025-10-18T18:42:37Z</time>
      </trkpt>
      <trkpt lat="-18.08126" lon="-69.06368">
        <ele>4665</ele>
        <time>2025-10-18T18:42:53Z</time>
      </trkpt>
      <trkpt lat="-18.08124" lon="-69.06364">
        <ele>4664</ele>
        <time>2025-10-18T18:43:01Z</time>
      </trkpt>
      <trkpt lat="-18.08123" lon="-69.06361">
        <ele>4662</ele>
        <time>2025-10-18T18:43:09Z</time>
      </trkpt>
      <trkpt lat="-18.08124" lon="-69.06357">
        <ele>4661</ele>
        <time>2025-10-18T18:43:17Z</time>
      </trkpt>
      <trkpt lat="-18.08122" lon="-69.06353">
        <ele>4661</ele>
        <time>2025-10-18T18:43:23Z</time>
      </trkpt>
      <trkpt lat="-18.08121" lon="-69.06349">
        <ele>4661</ele>
        <time>2025-10-18T18:43:31Z</time>
      </trkpt>
      <trkpt lat="-18.0812" lon="-69.06346">
        <ele>4659</ele>
        <time>2025-10-18T18:43:41Z</time>
      </trkpt>
      <trkpt lat="-18.08117" lon="-69.06342">
        <ele>4657</ele>
        <time>2025-10-18T18:44:07Z</time>
      </trkpt>
      <trkpt lat="-18.08107" lon="-69.06337">
        <ele>4654</ele>
        <time>2025-10-18T18:44:33Z</time>
      </trkpt>
      <trkpt lat="-18.08104" lon="-69.06334">
        <ele>4652</ele>
        <time>2025-10-18T18:44:41Z</time>
      </trkpt>
      <trkpt lat="-18.08101" lon="-69.06332">
        <ele>4651</ele>
        <time>2025-10-18T18:44:51Z</time>
      </trkpt>
      <trkpt lat="-18.08099" lon="-69.06328">
        <ele>4648</ele>
        <time>2025-10-18T18:45:09Z</time>
      </trkpt>
      <trkpt lat="-18.081" lon="-69.06324">
        <ele>4648</ele>
        <time>2025-10-18T18:45:15Z</time>
      </trkpt>
      <trkpt lat="-18.08099" lon="-69.0632">
        <ele>4647</ele>
        <time>2025-10-18T18:45:23Z</time>
      </trkpt>
      <trkpt lat="-18.08096" lon="-69.06318">
        <ele>4647</ele>
        <time>2025-10-18T18:45:29Z</time>
      </trkpt>
      <trkpt lat="-18.08097" lon="-69.06314">
        <ele>4645</ele>
        <time>2025-10-18T18:45:37Z</time>
      </trkpt>
      <trkpt lat="-18.08098" lon="-69.0631">
        <ele>4644</ele>
        <time>2025-10-18T18:45:43Z</time>
      </trkpt>
      <trkpt lat="-18.08097" lon="-69.06306">
        <ele>4643</ele>
        <time>2025-10-18T18:45:49Z</time>
      </trkpt>
      <trkpt lat="-18.08096" lon="-69.06303">
        <ele>4643</ele>
        <time>2025-10-18T18:45:59Z</time>
      </trkpt>
      <trkpt lat="-18.08096" lon="-69.06297">
        <ele>4642</ele>
        <time>2025-10-18T18:46:11Z</time>
      </trkpt>
      <trkpt lat="-18.08098" lon="-69.0629">
        <ele>4641</ele>
        <time>2025-10-18T18:46:35Z</time>
      </trkpt>
      <trkpt lat="-18.08099" lon="-69.06286">
        <ele>4640</ele>
        <time>2025-10-18T18:46:43Z</time>
      </trkpt>
      <trkpt lat="-18.08098" lon="-69.06282">
        <ele>4639</ele>
        <time>2025-10-18T18:46:55Z</time>
      </trkpt>
      <trkpt lat="-18.08097" lon="-69.06279">
        <ele>4637</ele>
        <time>2025-10-18T18:52:35Z</time>
      </trkpt>
      <trkpt lat="-18.08096" lon="-69.06275">
        <ele>4637</ele>
        <time>2025-10-18T18:55:15Z</time>
      </trkpt>
      <trkpt lat="-18.081" lon="-69.06268">
        <ele>4638</ele>
        <time>2025-10-18T18:55:45Z</time>
      </trkpt>
      <trkpt lat="-18.08101" lon="-69.06264">
        <ele>4638</ele>
        <time>2025-10-18T18:55:55Z</time>
      </trkpt>
      <trkpt lat="-18.08102" lon="-69.0626">
        <ele>4638</ele>
        <time>2025-10-18T18:56:17Z</time>
      </trkpt>
      <trkpt lat="-18.08105" lon="-69.06258">
        <ele>4638</ele>
        <time>2025-10-18T18:56:25Z</time>
      </trkpt>
      <trkpt lat="-18.08105" lon="-69.06254">
        <ele>4637</ele>
        <time>2025-10-18T18:56:35Z</time>
      </trkpt>
      <trkpt lat="-18.08102" lon="-69.06251">
        <ele>4637</ele>
        <time>2025-10-18T18:56:41Z</time>
      </trkpt>
      <trkpt lat="-18.08099" lon="-69.06249">
        <ele>4636</ele>
        <time>2025-10-18T18:56:49Z</time>
      </trkpt>
      <trkpt lat="-18.081" lon="-69.06245">
        <ele>4635</ele>
        <time>2025-10-18T18:57:03Z</time>
      </trkpt>
      <trkpt lat="-18.08101" lon="-69.06241">
        <ele>4632</ele>
        <time>2025-10-18T18:57:11Z</time>
      </trkpt>
      <trkpt lat="-18.08101" lon="-69.06237">
        <ele>4631</ele>
        <time>2025-10-18T18:57:19Z</time>
      </trkpt>
      <trkpt lat="-18.08094" lon="-69.06229">
        <ele>4629</ele>
        <time>2025-10-18T18:58:03Z</time>
      </trkpt>
      <trkpt lat="-18.08092" lon="-69.06226">
        <ele>4628</ele>
        <time>2025-10-18T18:58:33Z</time>
      </trkpt>
      <trkpt lat="-18.08092" lon="-69.06221">
        <ele>4625</ele>
        <time>2025-10-18T18:58:59Z</time>
      </trkpt>
      <trkpt lat="-18.08094" lon="-69.06218">
        <ele>4624</ele>
        <time>2025-10-18T18:59:07Z</time>
      </trkpt>
      <trkpt lat="-18.08094" lon="-69.06214">
        <ele>4620</ele>
        <time>2025-10-18T18:59:21Z</time>
      </trkpt>
      <trkpt lat="-18.08096" lon="-69.0621">
        <ele>4619</ele>
        <time>2025-10-18T18:59:29Z</time>
      </trkpt>
      <trkpt lat="-18.08095" lon="-69.06206">
        <ele>4618</ele>
        <time>2025-10-18T18:59:39Z</time>
      </trkpt>
      <trkpt lat="-18.08095" lon="-69.06202">
        <ele>4617</ele>
        <time>2025-10-18T18:59:55Z</time>
      </trkpt>
      <trkpt lat="-18.08097" lon="-69.06198">
        <ele>4615</ele>
        <time>2025-10-18T19:00:03Z</time>
      </trkpt>
      <trkpt lat="-18.08099" lon="-69.06195">
        <ele>4613</ele>
        <time>2025-10-18T19:00:09Z</time>
      </trkpt>
      <trkpt lat="-18.08099" lon="-69.06191">
        <ele>4612</ele>
        <time>2025-10-18T19:00:17Z</time>
      </trkpt>
      <trkpt lat="-18.08098" lon="-69.06187">
        <ele>4612</ele>
        <time>2025-10-18T19:00:25Z</time>
      </trkpt>
      <trkpt lat="-18.08096" lon="-69.06183">
        <ele>4612</ele>
        <time>2025-10-18T19:00:35Z</time>
      </trkpt>
      <trkpt lat="-18.08095" lon="-69.0618">
        <ele>4611</ele>
        <time>2025-10-18T19:00:41Z</time>
      </trkpt>
      <trkpt lat="-18.08095" lon="-69.06176">
        <ele>4611</ele>
        <time>2025-10-18T19:00:49Z</time>
      </trkpt>
      <trkpt lat="-18.08092" lon="-69.06172">
        <ele>4609</ele>
        <time>2025-10-18T19:00:57Z</time>
      </trkpt>
      <trkpt lat="-18.08088" lon="-69.06171">
        <ele>4609</ele>
        <time>2025-10-18T19:01:03Z</time>
      </trkpt>
      <trkpt lat="-18.08084" lon="-69.06169">
        <ele>4608</ele>
        <time>2025-10-18T19:01:09Z</time>
      </trkpt>
      <trkpt lat="-18.08083" lon="-69.06165">
        <ele>4607</ele>
        <time>2025-10-18T19:01:17Z</time>
      </trkpt>
      <trkpt lat="-18.08079" lon="-69.06157">
        <ele>4606</ele>
        <time>2025-10-18T19:01:29Z</time>
      </trkpt>
      <trkpt lat="-18.08075" lon="-69.06154">
        <ele>4606</ele>
        <time>2025-10-18T19:01:35Z</time>
      </trkpt>
      <trkpt lat="-18.08076" lon="-69.0615">
        <ele>4606</ele>
        <time>2025-10-18T19:01:45Z</time>
      </trkpt>
      <trkpt lat="-18.08069" lon="-69.06144">
        <ele>4605</ele>
        <time>2025-10-18T19:02:08Z</time>
      </trkpt>
      <trkpt lat="-18.08067" lon="-69.0614">
        <ele>4605</ele>
        <time>2025-10-18T19:02:12Z</time>
      </trkpt>
      <trkpt lat="-18.08067" lon="-69.06136">
        <ele>4604</ele>
        <time>2025-10-18T19:02:20Z</time>
      </trkpt>
      <trkpt lat="-18.08068" lon="-69.06131">
        <ele>4603</ele>
        <time>2025-10-18T19:02:28Z</time>
      </trkpt>
      <trkpt lat="-18.0807" lon="-69.06127">
        <ele>4602</ele>
        <time>2025-10-18T19:02:34Z</time>
      </trkpt>
      <trkpt lat="-18.08071" lon="-69.06122">
        <ele>4600</ele>
        <time>2025-10-18T19:02:40Z</time>
      </trkpt>
      <trkpt lat="-18.08072" lon="-69.06117">
        <ele>4600</ele>
        <time>2025-10-18T19:02:44Z</time>
      </trkpt>
      <trkpt lat="-18.08075" lon="-69.06115">
        <ele>4599</ele>
        <time>2025-10-18T19:02:48Z</time>
      </trkpt>
      <trkpt lat="-18.08082" lon="-69.06091">
        <ele>4597</ele>
        <time>2025-10-18T19:03:14Z</time>
      </trkpt>
      <trkpt lat="-18.08084" lon="-69.06086">
        <ele>4596</ele>
        <time>2025-10-18T19:03:20Z</time>
      </trkpt>
      <trkpt lat="-18.08086" lon="-69.06083">
        <ele>4596</ele>
        <time>2025-10-18T19:03:24Z</time>
      </trkpt>
      <trkpt lat="-18.08088" lon="-69.06079">
        <ele>4595</ele>
        <time>2025-10-18T19:03:28Z</time>
      </trkpt>
      <trkpt lat="-18.08091" lon="-69.06077">
        <ele>4594</ele>
        <time>2025-10-18T19:03:32Z</time>
      </trkpt>
      <trkpt lat="-18.08107" lon="-69.06059">
        <ele>4592</ele>
        <time>2025-10-18T19:03:56Z</time>
      </trkpt>
      <trkpt lat="-18.0811" lon="-69.06056">
        <ele>4592</ele>
        <time>2025-10-18T19:04:00Z</time>
      </trkpt>
      <trkpt lat="-18.08113" lon="-69.06053">
        <ele>4592</ele>
        <time>2025-10-18T19:04:04Z</time>
      </trkpt>
      <trkpt lat="-18.08116" lon="-69.0604">
        <ele>4597</ele>
        <time>2025-10-18T19:04:16Z</time>
      </trkpt>
      <trkpt lat="-18.08116" lon="-69.06036">
        <ele>4599</ele>
        <time>2025-10-18T19:04:22Z</time>
      </trkpt>
      <trkpt lat="-18.08117" lon="-69.06031">
        <ele>4600</ele>
        <time>2025-10-18T19:04:38Z</time>
      </trkpt>
      <trkpt lat="-18.08119" lon="-69.06028">
        <ele>4599</ele>
        <time>2025-10-18T19:04:44Z</time>
      </trkpt>
      <trkpt lat="-18.0812" lon="-69.06024">
        <ele>4597</ele>
        <time>2025-10-18T19:04:50Z</time>
      </trkpt>
      <trkpt lat="-18.08123" lon="-69.06021">
        <ele>4597</ele>
        <time>2025-10-18T19:04:54Z</time>
      </trkpt>
      <trkpt lat="-18.08125" lon="-69.06018">
        <ele>4595</ele>
        <time>2025-10-18T19:04:58Z</time>
      </trkpt>
      <trkpt lat="-18.08129" lon="-69.06001">
        <ele>4594</ele>
        <time>2025-10-18T19:05:28Z</time>
      </trkpt>
      <trkpt lat="-18.08131" lon="-69.05998">
        <ele>4595</ele>
        <time>2025-10-18T19:05:32Z</time>
      </trkpt>
      <trkpt lat="-18.08132" lon="-69.05993">
        <ele>4596</ele>
        <time>2025-10-18T19:05:36Z</time>
      </trkpt>
      <trkpt lat="-18.08132" lon="-69.05989">
        <ele>4596</ele>
        <time>2025-10-18T19:05:40Z</time>
      </trkpt>
      <trkpt lat="-18.08132" lon="-69.05984">
        <ele>4595</ele>
        <time>2025-10-18T19:05:46Z</time>
      </trkpt>
      <trkpt lat="-18.08132" lon="-69.05979">
        <ele>4594</ele>
        <time>2025-10-18T19:05:50Z</time>
      </trkpt>
      <trkpt lat="-18.08134" lon="-69.05976">
        <ele>4594</ele>
        <time>2025-10-18T19:05:54Z</time>
      </trkpt>
      <trkpt lat="-18.08138" lon="-69.05953">
        <ele>4593</ele>
        <time>2025-10-18T19:06:16Z</time>
      </trkpt>
      <trkpt lat="-18.08138" lon="-69.05946">
        <ele>4594</ele>
        <time>2025-10-18T19:06:24Z</time>
      </trkpt>
      <trkpt lat="-18.08146" lon="-69.05922">
        <ele>4595</ele>
        <time>2025-10-18T19:06:48Z</time>
      </trkpt>
      <trkpt lat="-18.08145" lon="-69.05918">
        <ele>4595</ele>
        <time>2025-10-18T19:06:52Z</time>
      </trkpt>
      <trkpt lat="-18.08143" lon="-69.05915">
        <ele>4595</ele>
        <time>2025-10-18T19:06:56Z</time>
      </trkpt>
      <trkpt lat="-18.08144" lon="-69.05894">
        <ele>4593</ele>
        <time>2025-10-18T19:07:18Z</time>
      </trkpt>
      <trkpt lat="-18.08145" lon="-69.0589">
        <ele>4592</ele>
        <time>2025-10-18T19:07:22Z</time>
      </trkpt>
      <trkpt lat="-18.08145" lon="-69.05885">
        <ele>4591</ele>
        <time>2025-10-18T19:07:26Z</time>
      </trkpt>
      <trkpt lat="-18.08146" lon="-69.05881">
        <ele>4591</ele>
        <time>2025-10-18T19:07:30Z</time>
      </trkpt>
      <trkpt lat="-18.08148" lon="-69.05873">
        <ele>4591</ele>
        <time>2025-10-18T19:07:40Z</time>
      </trkpt>
      <trkpt lat="-18.08156" lon="-69.05854">
        <ele>4590</ele>
        <time>2025-10-18T19:08:02Z</time>
      </trkpt>
      <trkpt lat="-18.0816" lon="-69.05846">
        <ele>4590</ele>
        <time>2025-10-18T19:08:12Z</time>
      </trkpt>
      <trkpt lat="-18.08161" lon="-69.05846">
        <ele>4590</ele>
        <time>2025-10-18T19:09:20Z</time>
      </trkpt>
      <trkpt lat="-18.08163" lon="-69.05842">
        <ele>4590</ele>
        <time>2025-10-18T19:10:52Z</time>
      </trkpt>
      <trkpt lat="-18.08165" lon="-69.05839">
        <ele>4592</ele>
        <time>2025-10-18T19:11:06Z</time>
      </trkpt>
      <trkpt lat="-18.08167" lon="-69.05835">
        <ele>4593</ele>
        <time>2025-10-18T19:11:16Z</time>
      </trkpt>
      <trkpt lat="-18.0817" lon="-69.05832">
        <ele>4593</ele>
        <time>2025-10-18T19:11:34Z</time>
      </trkpt>
      <trkpt lat="-18.08172" lon="-69.05828">
        <ele>4593</ele>
        <time>2025-10-18T19:11:42Z</time>
      </trkpt>
      <trkpt lat="-18.08173" lon="-69.05824">
        <ele>4592</ele>
        <time>2025-10-18T19:11:48Z</time>
      </trkpt>
      <trkpt lat="-18.08178" lon="-69.05807">
        <ele>4590</ele>
        <time>2025-10-18T19:12:08Z</time>
      </trkpt>
      <trkpt lat="-18.08182" lon="-69.058">
        <ele>4588</ele>
        <time>2025-10-18T19:12:18Z</time>
      </trkpt>
      <trkpt lat="-18.08185" lon="-69.05791">
        <ele>4585</ele>
        <time>2025-10-18T19:12:30Z</time>
      </trkpt>
      <trkpt lat="-18.08185" lon="-69.05787">
        <ele>4585</ele>
        <time>2025-10-18T19:12:34Z</time>
      </trkpt>
      <trkpt lat="-18.08185" lon="-69.05783">
        <ele>4584</ele>
        <time>2025-10-18T19:12:40Z</time>
      </trkpt>
      <trkpt lat="-18.08184" lon="-69.05778">
        <ele>4583</ele>
        <time>2025-10-18T19:12:46Z</time>
      </trkpt>
      <trkpt lat="-18.08185" lon="-69.05771">
        <ele>4581</ele>
        <time>2025-10-18T19:12:54Z</time>
      </trkpt>
      <trkpt lat="-18.08188" lon="-69.05767">
        <ele>4580</ele>
        <time>2025-10-18T19:13:00Z</time>
      </trkpt>
      <trkpt lat="-18.08189" lon="-69.05763">
        <ele>4580</ele>
        <time>2025-10-18T19:13:04Z</time>
      </trkpt>
      <trkpt lat="-18.08194" lon="-69.05753">
        <ele>4579</ele>
        <time>2025-10-18T19:13:16Z</time>
      </trkpt>
      <trkpt lat="-18.08196" lon="-69.05749">
        <ele>4579</ele>
        <time>2025-10-18T19:13:20Z</time>
      </trkpt>
      <trkpt lat="-18.082" lon="-69.05741">
        <ele>4579</ele>
        <time>2025-10-18T19:13:30Z</time>
      </trkpt>
      <trkpt lat="-18.082" lon="-69.05737">
        <ele>4578</ele>
        <time>2025-10-18T19:13:34Z</time>
      </trkpt>
      <trkpt lat="-18.08201" lon="-69.05732">
        <ele>4578</ele>
        <time>2025-10-18T19:13:40Z</time>
      </trkpt>
      <trkpt lat="-18.08201" lon="-69.05729">
        <ele>4579</ele>
        <time>2025-10-18T19:13:44Z</time>
      </trkpt>
      <trkpt lat="-18.08201" lon="-69.05725">
        <ele>4579</ele>
        <time>2025-10-18T19:13:48Z</time>
      </trkpt>
      <trkpt lat="-18.08201" lon="-69.05721">
        <ele>4579</ele>
        <time>2025-10-18T19:13:52Z</time>
      </trkpt>
      <trkpt lat="-18.08202" lon="-69.05716">
        <ele>4579</ele>
        <time>2025-10-18T19:14:00Z</time>
      </trkpt>
      <trkpt lat="-18.08203" lon="-69.05713">
        <ele>4578</ele>
        <time>2025-10-18T19:14:06Z</time>
      </trkpt>
      <trkpt lat="-18.08203" lon="-69.05708">
        <ele>4577</ele>
        <time>2025-10-18T19:14:12Z</time>
      </trkpt>
      <trkpt lat="-18.08203" lon="-69.05703">
        <ele>4576</ele>
        <time>2025-10-18T19:14:18Z</time>
      </trkpt>
      <trkpt lat="-18.08204" lon="-69.05699">
        <ele>4576</ele>
        <time>2025-10-18T19:14:22Z</time>
      </trkpt>
      <trkpt lat="-18.08203" lon="-69.05695">
        <ele>4575</ele>
        <time>2025-10-18T19:14:28Z</time>
      </trkpt>
      <trkpt lat="-18.08209" lon="-69.05679">
        <ele>4574</ele>
        <time>2025-10-18T19:14:48Z</time>
      </trkpt>
      <trkpt lat="-18.08208" lon="-69.05675">
        <ele>4573</ele>
        <time>2025-10-18T19:14:54Z</time>
      </trkpt>
      <trkpt lat="-18.08209" lon="-69.05671">
        <ele>4573</ele>
        <time>2025-10-18T19:14:58Z</time>
      </trkpt>
      <trkpt lat="-18.08211" lon="-69.05668">
        <ele>4572</ele>
        <time>2025-10-18T19:15:02Z</time>
      </trkpt>
      <trkpt lat="-18.08215" lon="-69.05662">
        <ele>4571</ele>
        <time>2025-10-18T19:15:10Z</time>
      </trkpt>
      <trkpt lat="-18.08218" lon="-69.05654">
        <ele>4569</ele>
        <time>2025-10-18T19:15:20Z</time>
      </trkpt>
      <trkpt lat="-18.08218" lon="-69.0565">
        <ele>4569</ele>
        <time>2025-10-18T19:15:24Z</time>
      </trkpt>
      <trkpt lat="-18.08219" lon="-69.05646">
        <ele>4567</ele>
        <time>2025-10-18T19:15:30Z</time>
      </trkpt>
      <trkpt lat="-18.08223" lon="-69.05637">
        <ele>4567</ele>
        <time>2025-10-18T19:15:42Z</time>
      </trkpt>
      <trkpt lat="-18.08222" lon="-69.05634">
        <ele>4567</ele>
        <time>2025-10-18T19:15:50Z</time>
      </trkpt>
      <trkpt lat="-18.08224" lon="-69.05614">
        <ele>4564</ele>
        <time>2025-10-18T19:16:24Z</time>
      </trkpt>
      <trkpt lat="-18.08225" lon="-69.0561">
        <ele>4564</ele>
        <time>2025-10-18T19:16:30Z</time>
      </trkpt>
      <trkpt lat="-18.08224" lon="-69.05607">
        <ele>4564</ele>
        <time>2025-10-18T19:16:36Z</time>
      </trkpt>
      <trkpt lat="-18.08225" lon="-69.05603">
        <ele>4564</ele>
        <time>2025-10-18T19:16:42Z</time>
      </trkpt>
      <trkpt lat="-18.08223" lon="-69.05599">
        <ele>4563</ele>
        <time>2025-10-18T19:16:50Z</time>
      </trkpt>
      <trkpt lat="-18.08225" lon="-69.05595">
        <ele>4563</ele>
        <time>2025-10-18T19:16:56Z</time>
      </trkpt>
      <trkpt lat="-18.08227" lon="-69.05586">
        <ele>4565</ele>
        <time>2025-10-18T19:17:08Z</time>
      </trkpt>
      <trkpt lat="-18.08226" lon="-69.05581">
        <ele>4565</ele>
        <time>2025-10-18T19:17:14Z</time>
      </trkpt>
      <trkpt lat="-18.08227" lon="-69.05577">
        <ele>4564</ele>
        <time>2025-10-18T19:17:20Z</time>
      </trkpt>
      <trkpt lat="-18.08232" lon="-69.05558">
        <ele>4562</ele>
        <time>2025-10-18T19:17:44Z</time>
      </trkpt>
      <trkpt lat="-18.08233" lon="-69.05554">
        <ele>4561</ele>
        <time>2025-10-18T19:17:48Z</time>
      </trkpt>
      <trkpt lat="-18.08234" lon="-69.05549">
        <ele>4560</ele>
        <time>2025-10-18T19:17:54Z</time>
      </trkpt>
      <trkpt lat="-18.08236" lon="-69.05541">
        <ele>4558</ele>
        <time>2025-10-18T19:18:04Z</time>
      </trkpt>
      <trkpt lat="-18.08236" lon="-69.05537">
        <ele>4557</ele>
        <time>2025-10-18T19:18:08Z</time>
      </trkpt>
      <trkpt lat="-18.08237" lon="-69.05534">
        <ele>4557</ele>
        <time>2025-10-18T19:18:12Z</time>
      </trkpt>
      <trkpt lat="-18.08237" lon="-69.0553">
        <ele>4557</ele>
        <time>2025-10-18T19:18:16Z</time>
      </trkpt>
      <trkpt lat="-18.08236" lon="-69.05526">
        <ele>4557</ele>
        <time>2025-10-18T19:18:20Z</time>
      </trkpt>
      <trkpt lat="-18.08236" lon="-69.05521">
        <ele>4558</ele>
        <time>2025-10-18T19:18:26Z</time>
      </trkpt>
      <trkpt lat="-18.08236" lon="-69.05517">
        <ele>4557</ele>
        <time>2025-10-18T19:18:32Z</time>
      </trkpt>
      <trkpt lat="-18.08244" lon="-69.05493">
        <ele>4557</ele>
        <time>2025-10-18T19:18:58Z</time>
      </trkpt>
      <trkpt lat="-18.08245" lon="-69.05485">
        <ele>4557</ele>
        <time>2025-10-18T19:19:08Z</time>
      </trkpt>
      <trkpt lat="-18.08249" lon="-69.05467">
        <ele>4553</ele>
        <time>2025-10-18T19:19:28Z</time>
      </trkpt>
      <trkpt lat="-18.08251" lon="-69.05458">
        <ele>4553</ele>
        <time>2025-10-18T19:19:38Z</time>
      </trkpt>
      <trkpt lat="-18.08251" lon="-69.05454">
        <ele>4552</ele>
        <time>2025-10-18T19:19:44Z</time>
      </trkpt>
      <trkpt lat="-18.08252" lon="-69.05449">
        <ele>4552</ele>
        <time>2025-10-18T19:19:50Z</time>
      </trkpt>
      <trkpt lat="-18.08253" lon="-69.05439">
        <ele>4549</ele>
        <time>2025-10-18T19:20:02Z</time>
      </trkpt>
      <trkpt lat="-18.08255" lon="-69.05435">
        <ele>4549</ele>
        <time>2025-10-18T19:20:08Z</time>
      </trkpt>
      <trkpt lat="-18.08255" lon="-69.0543">
        <ele>4549</ele>
        <time>2025-10-18T19:20:14Z</time>
      </trkpt>
      <trkpt lat="-18.08258" lon="-69.05422">
        <ele>4548</ele>
        <time>2025-10-18T19:20:24Z</time>
      </trkpt>
      <trkpt lat="-18.08259" lon="-69.05417">
        <ele>4548</ele>
        <time>2025-10-18T19:20:30Z</time>
      </trkpt>
      <trkpt lat="-18.0826" lon="-69.05408">
        <ele>4546</ele>
        <time>2025-10-18T19:20:42Z</time>
      </trkpt>
      <trkpt lat="-18.08261" lon="-69.05403">
        <ele>4545</ele>
        <time>2025-10-18T19:20:48Z</time>
      </trkpt>
      <trkpt lat="-18.08262" lon="-69.05398">
        <ele>4544</ele>
        <time>2025-10-18T19:20:54Z</time>
      </trkpt>
      <trkpt lat="-18.08262" lon="-69.05393">
        <ele>4543</ele>
        <time>2025-10-18T19:21:00Z</time>
      </trkpt>
      <trkpt lat="-18.08264" lon="-69.05389">
        <ele>4541</ele>
        <time>2025-10-18T19:21:04Z</time>
      </trkpt>
      <trkpt lat="-18.08265" lon="-69.05384">
        <ele>4540</ele>
        <time>2025-10-18T19:21:10Z</time>
      </trkpt>
      <trkpt lat="-18.08272" lon="-69.05367">
        <ele>4536</ele>
        <time>2025-10-18T19:21:34Z</time>
      </trkpt>
      <trkpt lat="-18.0827" lon="-69.05363">
        <ele>4536</ele>
        <time>2025-10-18T19:21:38Z</time>
      </trkpt>
      <trkpt lat="-18.08273" lon="-69.05359">
        <ele>4536</ele>
        <time>2025-10-18T19:21:44Z</time>
      </trkpt>
      <trkpt lat="-18.08277" lon="-69.05356">
        <ele>4535</ele>
        <time>2025-10-18T19:21:50Z</time>
      </trkpt>
      <trkpt lat="-18.08281" lon="-69.0535">
        <ele>4532</ele>
        <time>2025-10-18T19:21:58Z</time>
      </trkpt>
      <trkpt lat="-18.08281" lon="-69.05346">
        <ele>4531</ele>
        <time>2025-10-18T19:22:02Z</time>
      </trkpt>
      <trkpt lat="-18.08285" lon="-69.05343">
        <ele>4530</ele>
        <time>2025-10-18T19:22:14Z</time>
      </trkpt>
      <trkpt lat="-18.08288" lon="-69.05339">
        <ele>4528</ele>
        <time>2025-10-18T19:22:20Z</time>
      </trkpt>
      <trkpt lat="-18.08296" lon="-69.05333">
        <ele>4525</ele>
        <time>2025-10-18T19:22:32Z</time>
      </trkpt>
      <trkpt lat="-18.08299" lon="-69.0533">
        <ele>4524</ele>
        <time>2025-10-18T19:22:36Z</time>
      </trkpt>
      <trkpt lat="-18.08301" lon="-69.05322">
        <ele>4523</ele>
        <time>2025-10-18T19:22:44Z</time>
      </trkpt>
      <trkpt lat="-18.08312" lon="-69.05304">
        <ele>4520</ele>
        <time>2025-10-18T19:23:06Z</time>
      </trkpt>
      <trkpt lat="-18.08315" lon="-69.05301">
        <ele>4519</ele>
        <time>2025-10-18T19:23:10Z</time>
      </trkpt>
      <trkpt lat="-18.08318" lon="-69.05299">
        <ele>4519</ele>
        <time>2025-10-18T19:23:14Z</time>
      </trkpt>
      <trkpt lat="-18.08334" lon="-69.05286">
        <ele>4516</ele>
        <time>2025-10-18T19:23:36Z</time>
      </trkpt>
      <trkpt lat="-18.08338" lon="-69.05281">
        <ele>4514</ele>
        <time>2025-10-18T19:23:44Z</time>
      </trkpt>
      <trkpt lat="-18.08346" lon="-69.05267">
        <ele>4511</ele>
        <time>2025-10-18T19:24:00Z</time>
      </trkpt>
      <trkpt lat="-18.08346" lon="-69.05261">
        <ele>4511</ele>
        <time>2025-10-18T19:24:06Z</time>
      </trkpt>
      <trkpt lat="-18.08348" lon="-69.05258">
        <ele>4510</ele>
        <time>2025-10-18T19:24:10Z</time>
      </trkpt>
      <trkpt lat="-18.0835" lon="-69.05248">
        <ele>4511</ele>
        <time>2025-10-18T19:24:22Z</time>
      </trkpt>
      <trkpt lat="-18.08351" lon="-69.05244">
        <ele>4509</ele>
        <time>2025-10-18T19:24:28Z</time>
      </trkpt>
      <trkpt lat="-18.08353" lon="-69.05241">
        <ele>4508</ele>
        <time>2025-10-18T19:24:34Z</time>
      </trkpt>
      <trkpt lat="-18.08353" lon="-69.05237">
        <ele>4507</ele>
        <time>2025-10-18T19:24:38Z</time>
      </trkpt>
      <trkpt lat="-18.08356" lon="-69.05235">
        <ele>4507</ele>
        <time>2025-10-18T19:24:44Z</time>
      </trkpt>
      <trkpt lat="-18.08359" lon="-69.05233">
        <ele>4505</ele>
        <time>2025-10-18T19:24:48Z</time>
      </trkpt>
      <trkpt lat="-18.0836" lon="-69.0523">
        <ele>4505</ele>
        <time>2025-10-18T19:24:52Z</time>
      </trkpt>
      <trkpt lat="-18.08363" lon="-69.05225">
        <ele>4505</ele>
        <time>2025-10-18T19:24:58Z</time>
      </trkpt>
      <trkpt lat="-18.08358" lon="-69.05223">
        <ele>4505</ele>
        <time>2025-10-18T19:25:02Z</time>
      </trkpt>
      <trkpt lat="-18.08356" lon="-69.05218">
        <ele>4505</ele>
        <time>2025-10-18T19:25:12Z</time>
      </trkpt>
      <trkpt lat="-18.08357" lon="-69.05213">
        <ele>4503</ele>
        <time>2025-10-18T19:25:18Z</time>
      </trkpt>
      <trkpt lat="-18.08363" lon="-69.05208">
        <ele>4499</ele>
        <time>2025-10-18T19:25:30Z</time>
      </trkpt>
      <trkpt lat="-18.08368" lon="-69.052">
        <ele>4496</ele>
        <time>2025-10-18T19:25:40Z</time>
      </trkpt>
      <trkpt lat="-18.08369" lon="-69.05195">
        <ele>4495</ele>
        <time>2025-10-18T19:25:46Z</time>
      </trkpt>
      <trkpt lat="-18.08368" lon="-69.0519">
        <ele>4493</ele>
        <time>2025-10-18T19:25:52Z</time>
      </trkpt>
      <trkpt lat="-18.08369" lon="-69.05185">
        <ele>4491</ele>
        <time>2025-10-18T19:25:58Z</time>
      </trkpt>
      <trkpt lat="-18.08369" lon="-69.0518">
        <ele>4490</ele>
        <time>2025-10-18T19:26:04Z</time>
      </trkpt>
      <trkpt lat="-18.08369" lon="-69.05177">
        <ele>4489</ele>
        <time>2025-10-18T19:26:08Z</time>
      </trkpt>
      <trkpt lat="-18.08369" lon="-69.05172">
        <ele>4489</ele>
        <time>2025-10-18T19:26:12Z</time>
      </trkpt>
      <trkpt lat="-18.0837" lon="-69.05162">
        <ele>4486</ele>
        <time>2025-10-18T19:26:24Z</time>
      </trkpt>
      <trkpt lat="-18.08369" lon="-69.05158">
        <ele>4485</ele>
        <time>2025-10-18T19:26:28Z</time>
      </trkpt>
      <trkpt lat="-18.0837" lon="-69.0515">
        <ele>4484</ele>
        <time>2025-10-18T19:26:36Z</time>
      </trkpt>
      <trkpt lat="-18.08369" lon="-69.05141">
        <ele>4483</ele>
        <time>2025-10-18T19:26:46Z</time>
      </trkpt>
      <trkpt lat="-18.08369" lon="-69.05132">
        <ele>4481</ele>
        <time>2025-10-18T19:26:58Z</time>
      </trkpt>
      <trkpt lat="-18.08372" lon="-69.05132">
        <ele>4480</ele>
        <time>2025-10-18T19:27:06Z</time>
      </trkpt>
      <trkpt lat="-18.08373" lon="-69.05127">
        <ele>4481</ele>
        <time>2025-10-18T19:27:12Z</time>
      </trkpt>
      <trkpt lat="-18.08383" lon="-69.05101">
        <ele>4484</ele>
        <time>2025-10-18T19:27:42Z</time>
      </trkpt>
      <trkpt lat="-18.08386" lon="-69.05098">
        <ele>4482</ele>
        <time>2025-10-18T19:27:50Z</time>
      </trkpt>
      <trkpt lat="-18.08389" lon="-69.05096">
        <ele>4480</ele>
        <time>2025-10-18T19:27:56Z</time>
      </trkpt>
      <trkpt lat="-18.08392" lon="-69.05093">
        <ele>4479</ele>
        <time>2025-10-18T19:28:20Z</time>
      </trkpt>
      <trkpt lat="-18.08393" lon="-69.05089">
        <ele>4477</ele>
        <time>2025-10-18T19:28:26Z</time>
      </trkpt>
      <trkpt lat="-18.08394" lon="-69.05085">
        <ele>4476</ele>
        <time>2025-10-18T19:28:32Z</time>
      </trkpt>
      <trkpt lat="-18.08403" lon="-69.05072">
        <ele>4470</ele>
        <time>2025-10-18T19:28:48Z</time>
      </trkpt>
      <trkpt lat="-18.08405" lon="-69.05067">
        <ele>4471</ele>
        <time>2025-10-18T19:28:52Z</time>
      </trkpt>
      <trkpt lat="-18.08406" lon="-69.05063">
        <ele>4471</ele>
        <time>2025-10-18T19:28:56Z</time>
      </trkpt>
      <trkpt lat="-18.08413" lon="-69.05051">
        <ele>4469</ele>
        <time>2025-10-18T19:29:08Z</time>
      </trkpt>
      <trkpt lat="-18.08415" lon="-69.05047">
        <ele>4470</ele>
        <time>2025-10-18T19:29:12Z</time>
      </trkpt>
      <trkpt lat="-18.0842" lon="-69.0504">
        <ele>4470</ele>
        <time>2025-10-18T19:29:20Z</time>
      </trkpt>
      <trkpt lat="-18.08426" lon="-69.0503">
        <ele>4468</ele>
        <time>2025-10-18T19:29:32Z</time>
      </trkpt>
      <trkpt lat="-18.08429" lon="-69.05028">
        <ele>4467</ele>
        <time>2025-10-18T19:29:36Z</time>
      </trkpt>
      <trkpt lat="-18.08437" lon="-69.05027">
        <ele>4466</ele>
        <time>2025-10-18T19:29:44Z</time>
      </trkpt>
      <trkpt lat="-18.08444" lon="-69.05023">
        <ele>4465</ele>
        <time>2025-10-18T19:29:52Z</time>
      </trkpt>
      <trkpt lat="-18.08447" lon="-69.0502">
        <ele>4465</ele>
        <time>2025-10-18T19:29:56Z</time>
      </trkpt>
      <trkpt lat="-18.08446" lon="-69.05016">
        <ele>4465</ele>
        <time>2025-10-18T19:30:06Z</time>
      </trkpt>
      <trkpt lat="-18.08444" lon="-69.05013">
        <ele>4465</ele>
        <time>2025-10-18T19:30:10Z</time>
      </trkpt>
      <trkpt lat="-18.08444" lon="-69.05009">
        <ele>4466</ele>
        <time>2025-10-18T19:30:14Z</time>
      </trkpt>
      <trkpt lat="-18.08443" lon="-69.05005">
        <ele>4466</ele>
        <time>2025-10-18T19:30:20Z</time>
      </trkpt>
      <trkpt lat="-18.08442" lon="-69.05001">
        <ele>4467</ele>
        <time>2025-10-18T19:30:26Z</time>
      </trkpt>
      <trkpt lat="-18.08442" lon="-69.04996">
        <ele>4468</ele>
        <time>2025-10-18T19:30:32Z</time>
      </trkpt>
      <trkpt lat="-18.08443" lon="-69.04993">
        <ele>4469</ele>
        <time>2025-10-18T19:30:38Z</time>
      </trkpt>
      <trkpt lat="-18.08445" lon="-69.04989">
        <ele>4468</ele>
        <time>2025-10-18T19:30:54Z</time>
      </trkpt>
      <trkpt lat="-18.08446" lon="-69.04986">
        <ele>4471</ele>
        <time>2025-10-18T19:31:10Z</time>
      </trkpt>
      <trkpt lat="-18.08449" lon="-69.04982">
        <ele>4471</ele>
        <time>2025-10-18T19:31:56Z</time>
      </trkpt>
      <trkpt lat="-18.0845" lon="-69.04978">
        <ele>4471</ele>
        <time>2025-10-18T19:32:06Z</time>
      </trkpt>
      <trkpt lat="-18.08454" lon="-69.04971">
        <ele>4471</ele>
        <time>2025-10-18T19:32:24Z</time>
      </trkpt>
      <trkpt lat="-18.08455" lon="-69.04967">
        <ele>4471</ele>
        <time>2025-10-18T19:32:32Z</time>
      </trkpt>
      <trkpt lat="-18.08455" lon="-69.04963">
        <ele>4472</ele>
        <time>2025-10-18T19:32:46Z</time>
      </trkpt>
      <trkpt lat="-18.08457" lon="-69.04959">
        <ele>4472</ele>
        <time>2025-10-18T19:33:02Z</time>
      </trkpt>
      <trkpt lat="-18.08465" lon="-69.04948">
        <ele>4466</ele>
        <time>2025-10-18T19:33:28Z</time>
      </trkpt>
      <trkpt lat="-18.08472" lon="-69.04938">
        <ele>4465</ele>
        <time>2025-10-18T19:34:00Z</time>
      </trkpt>
      <trkpt lat="-18.08474" lon="-69.04934">
        <ele>4464</ele>
        <time>2025-10-18T19:34:06Z</time>
      </trkpt>
      <trkpt lat="-18.08479" lon="-69.04927">
        <ele>4463</ele>
        <time>2025-10-18T19:34:18Z</time>
      </trkpt>
      <trkpt lat="-18.08482" lon="-69.04923">
        <ele>4462</ele>
        <time>2025-10-18T19:34:24Z</time>
      </trkpt>
      <trkpt lat="-18.085" lon="-69.049">
        <ele>4461</ele>
        <time>2025-10-18T19:35:00Z</time>
      </trkpt>
      <trkpt lat="-18.08507" lon="-69.04892">
        <ele>4461</ele>
        <time>2025-10-18T19:35:14Z</time>
      </trkpt>
      <trkpt lat="-18.08527" lon="-69.04872">
        <ele>4462</ele>
        <time>2025-10-18T19:35:52Z</time>
      </trkpt>
      <trkpt lat="-18.08534" lon="-69.04867">
        <ele>4461</ele>
        <time>2025-10-18T19:36:02Z</time>
      </trkpt>
      <trkpt lat="-18.08557" lon="-69.0485">
        <ele>4458</ele>
        <time>2025-10-18T19:36:32Z</time>
      </trkpt>
      <trkpt lat="-18.08582" lon="-69.04834">
        <ele>4459</ele>
        <time>2025-10-18T19:37:04Z</time>
      </trkpt>
      <trkpt lat="-18.08599" lon="-69.04823">
        <ele>4457</ele>
        <time>2025-10-18T19:37:24Z</time>
      </trkpt>
      <trkpt lat="-18.08619" lon="-69.04815">
        <ele>4457</ele>
        <time>2025-10-18T19:37:44Z</time>
      </trkpt>
      <trkpt lat="-18.08639" lon="-69.04812">
        <ele>4454</ele>
        <time>2025-10-18T19:38:02Z</time>
      </trkpt>
      <trkpt lat="-18.08658" lon="-69.04805">
        <ele>4453</ele>
        <time>2025-10-18T19:38:22Z</time>
      </trkpt>
      <trkpt lat="-18.08668" lon="-69.048">
        <ele>4453</ele>
        <time>2025-10-18T19:38:32Z</time>
      </trkpt>
      <trkpt lat="-18.08686" lon="-69.04789">
        <ele>4451</ele>
        <time>2025-10-18T19:38:52Z</time>
      </trkpt>
      <trkpt lat="-18.08698" lon="-69.04772">
        <ele>4449</ele>
        <time>2025-10-18T19:39:12Z</time>
      </trkpt>
      <trkpt lat="-18.08703" lon="-69.04764">
        <ele>4448</ele>
        <time>2025-10-18T19:39:20Z</time>
      </trkpt>
      <trkpt lat="-18.08707" lon="-69.04755">
        <ele>4447</ele>
        <time>2025-10-18T19:39:28Z</time>
      </trkpt>
      <trkpt lat="-18.08713" lon="-69.04747">
        <ele>4445</ele>
        <time>2025-10-18T19:39:38Z</time>
      </trkpt>
      <trkpt lat="-18.08722" lon="-69.04743">
        <ele>4444</ele>
        <time>2025-10-18T19:39:46Z</time>
      </trkpt>
      <trkpt lat="-18.08729" lon="-69.04735">
        <ele>4445</ele>
        <time>2025-10-18T19:39:56Z</time>
      </trkpt>
      <trkpt lat="-18.08733" lon="-69.04724">
        <ele>4446</ele>
        <time>2025-10-18T19:40:06Z</time>
      </trkpt>
      <trkpt lat="-18.08737" lon="-69.04715">
        <ele>4446</ele>
        <time>2025-10-18T19:40:16Z</time>
      </trkpt>
      <trkpt lat="-18.08742" lon="-69.04706">
        <ele>4445</ele>
        <time>2025-10-18T19:40:26Z</time>
      </trkpt>
      <trkpt lat="-18.08753" lon="-69.04689">
        <ele>4444</ele>
        <time>2025-10-18T19:40:46Z</time>
      </trkpt>
      <trkpt lat="-18.08761" lon="-69.0467">
        <ele>4445</ele>
        <time>2025-10-18T19:41:08Z</time>
      </trkpt>
      <trkpt lat="-18.08783" lon="-69.04638">
        <ele>4445</ele>
        <time>2025-10-18T19:41:44Z</time>
      </trkpt>
      <trkpt lat="-18.08789" lon="-69.04628">
        <ele>4444</ele>
        <time>2025-10-18T19:41:54Z</time>
      </trkpt>
      <trkpt lat="-18.08803" lon="-69.04613">
        <ele>4444</ele>
        <time>2025-10-18T19:42:14Z</time>
      </trkpt>
      <trkpt lat="-18.08818" lon="-69.04583">
        <ele>4443</ele>
        <time>2025-10-18T19:42:44Z</time>
      </trkpt>
      <trkpt lat="-18.08823" lon="-69.04574">
        <ele>4443</ele>
        <time>2025-10-18T19:42:54Z</time>
      </trkpt>
      <trkpt lat="-18.0883" lon="-69.04566">
        <ele>4441</ele>
        <time>2025-10-18T19:43:04Z</time>
      </trkpt>
      <trkpt lat="-18.08843" lon="-69.0455">
        <ele>4440</ele>
        <time>2025-10-18T19:43:20Z</time>
      </trkpt>
      <trkpt lat="-18.08846" lon="-69.0454">
        <ele>4440</ele>
        <time>2025-10-18T19:43:30Z</time>
      </trkpt>
      <trkpt lat="-18.08849" lon="-69.04517">
        <ele>4442</ele>
        <time>2025-10-18T19:43:50Z</time>
      </trkpt>
      <trkpt lat="-18.08855" lon="-69.04504">
        <ele>4440</ele>
        <time>2025-10-18T19:44:02Z</time>
      </trkpt>
      <trkpt lat="-18.08877" lon="-69.04478">
        <ele>4438</ele>
        <time>2025-10-18T19:44:34Z</time>
      </trkpt>
      <trkpt lat="-18.0888" lon="-69.04474">
        <ele>4438</ele>
        <time>2025-10-18T19:44:38Z</time>
      </trkpt>
      <trkpt lat="-18.08882" lon="-69.0447">
        <ele>4438</ele>
        <time>2025-10-18T19:44:42Z</time>
      </trkpt>
      <trkpt lat="-18.08898" lon="-69.04449">
        <ele>4437</ele>
        <time>2025-10-18T19:45:08Z</time>
      </trkpt>
      <trkpt lat="-18.089" lon="-69.04446">
        <ele>4436</ele>
        <time>2025-10-18T19:45:12Z</time>
      </trkpt>
      <trkpt lat="-18.08904" lon="-69.04444">
        <ele>4436</ele>
        <time>2025-10-18T19:45:16Z</time>
      </trkpt>
      <trkpt lat="-18.08911" lon="-69.04441">
        <ele>4435</ele>
        <time>2025-10-18T19:45:24Z</time>
      </trkpt>
      <trkpt lat="-18.08924" lon="-69.04437">
        <ele>4436</ele>
        <time>2025-10-18T19:45:36Z</time>
      </trkpt>
      <trkpt lat="-18.08932" lon="-69.04428">
        <ele>4434</ele>
        <time>2025-10-18T19:45:48Z</time>
      </trkpt>
      <trkpt lat="-18.08935" lon="-69.04424">
        <ele>4433</ele>
        <time>2025-10-18T19:45:52Z</time>
      </trkpt>
      <trkpt lat="-18.08962" lon="-69.04395">
        <ele>4439</ele>
        <time>2025-10-18T19:46:24Z</time>
      </trkpt>
      <trkpt lat="-18.08987" lon="-69.0437">
        <ele>4433</ele>
        <time>2025-10-18T19:46:56Z</time>
      </trkpt>
      <trkpt lat="-18.08996" lon="-69.0436">
        <ele>4433</ele>
        <time>2025-10-18T19:47:08Z</time>
      </trkpt>
      <trkpt lat="-18.09001" lon="-69.04357">
        <ele>4432</ele>
        <time>2025-10-18T19:47:12Z</time>
      </trkpt>
      <trkpt lat="-18.09021" lon="-69.04331">
        <ele>4432</ele>
        <time>2025-10-18T19:47:40Z</time>
      </trkpt>
      <trkpt lat="-18.09023" lon="-69.04328">
        <ele>4432</ele>
        <time>2025-10-18T19:47:42Z</time>
      </trkpt>
      <trkpt lat="-18.09025" lon="-69.04325">
        <ele>4432</ele>
        <time>2025-10-18T19:47:46Z</time>
      </trkpt>
      <trkpt lat="-18.09027" lon="-69.04321">
        <ele>4431</ele>
        <time>2025-10-18T19:47:50Z</time>
      </trkpt>
      <trkpt lat="-18.0903" lon="-69.04317">
        <ele>4431</ele>
        <time>2025-10-18T19:47:54Z</time>
      </trkpt>
      <trkpt lat="-18.09043" lon="-69.04301">
        <ele>4431</ele>
        <time>2025-10-18T19:48:14Z</time>
      </trkpt>
      <trkpt lat="-18.09063" lon="-69.04277">
        <ele>4429</ele>
        <time>2025-10-18T19:48:42Z</time>
      </trkpt>
      <trkpt lat="-18.09066" lon="-69.04274">
        <ele>4429</ele>
        <time>2025-10-18T19:48:46Z</time>
      </trkpt>
      <trkpt lat="-18.09069" lon="-69.04271">
        <ele>4429</ele>
        <time>2025-10-18T19:48:50Z</time>
      </trkpt>
      <trkpt lat="-18.09089" lon="-69.04245">
        <ele>4430</ele>
        <time>2025-10-18T19:49:20Z</time>
      </trkpt>
      <trkpt lat="-18.09111" lon="-69.04216">
        <ele>4432</ele>
        <time>2025-10-18T19:49:50Z</time>
      </trkpt>
      <trkpt lat="-18.09122" lon="-69.04199">
        <ele>4432</ele>
        <time>2025-10-18T19:50:10Z</time>
      </trkpt>
      <trkpt lat="-18.09131" lon="-69.04177">
        <ele>4431</ele>
        <time>2025-10-18T19:50:30Z</time>
      </trkpt>
      <trkpt lat="-18.09141" lon="-69.04152">
        <ele>4431</ele>
        <time>2025-10-18T19:50:54Z</time>
      </trkpt>
      <trkpt lat="-18.09143" lon="-69.04147">
        <ele>4431</ele>
        <time>2025-10-18T19:50:58Z</time>
      </trkpt>
      <trkpt lat="-18.09154" lon="-69.04112">
        <ele>4432</ele>
        <time>2025-10-18T19:51:30Z</time>
      </trkpt>
      <trkpt lat="-18.0916" lon="-69.04099">
        <ele>4432</ele>
        <time>2025-10-18T19:51:42Z</time>
      </trkpt>
      <trkpt lat="-18.09165" lon="-69.04074">
        <ele>4431</ele>
        <time>2025-10-18T19:52:06Z</time>
      </trkpt>
      <trkpt lat="-18.09167" lon="-69.04065">
        <ele>4430</ele>
        <time>2025-10-18T19:52:14Z</time>
      </trkpt>
      <trkpt lat="-18.09171" lon="-69.04043">
        <ele>4430</ele>
        <time>2025-10-18T19:52:34Z</time>
      </trkpt>
      <trkpt lat="-18.09172" lon="-69.04039">
        <ele>4431</ele>
        <time>2025-10-18T19:52:38Z</time>
      </trkpt>
      <trkpt lat="-18.09169" lon="-69.04035">
        <ele>4431</ele>
        <time>2025-10-18T19:52:44Z</time>
      </trkpt>
      <trkpt lat="-18.09176" lon="-69.04006">
        <ele>4430</ele>
        <time>2025-10-18T19:53:14Z</time>
      </trkpt>
      <trkpt lat="-18.09178" lon="-69.03998">
        <ele>4428</ele>
        <time>2025-10-18T19:53:20Z</time>
      </trkpt>
      <trkpt lat="-18.09183" lon="-69.03976">
        <ele>4426</ele>
        <time>2025-10-18T19:53:40Z</time>
      </trkpt>
      <trkpt lat="-18.09183" lon="-69.03972">
        <ele>4426</ele>
        <time>2025-10-18T19:53:44Z</time>
      </trkpt>
      <trkpt lat="-18.09184" lon="-69.03963">
        <ele>4425</ele>
        <time>2025-10-18T19:53:52Z</time>
      </trkpt>
      <trkpt lat="-18.09184" lon="-69.03959">
        <ele>4426</ele>
        <time>2025-10-18T19:53:56Z</time>
      </trkpt>
      <trkpt lat="-18.09184" lon="-69.03954">
        <ele>4425</ele>
        <time>2025-10-18T19:54:00Z</time>
      </trkpt>
      <trkpt lat="-18.09184" lon="-69.0395">
        <ele>4425</ele>
        <time>2025-10-18T19:54:04Z</time>
      </trkpt>
      <trkpt lat="-18.09184" lon="-69.03945">
        <ele>4424</ele>
        <time>2025-10-18T19:54:08Z</time>
      </trkpt>
      <trkpt lat="-18.09184" lon="-69.03941">
        <ele>4424</ele>
        <time>2025-10-18T19:54:12Z</time>
      </trkpt>
      <trkpt lat="-18.09186" lon="-69.03927">
        <ele>4423</ele>
        <time>2025-10-18T19:54:24Z</time>
      </trkpt>
      <trkpt lat="-18.09186" lon="-69.03922">
        <ele>4424</ele>
        <time>2025-10-18T19:54:28Z</time>
      </trkpt>
      <trkpt lat="-18.09183" lon="-69.03918">
        <ele>4425</ele>
        <time>2025-10-18T19:54:32Z</time>
      </trkpt>
      <trkpt lat="-18.09185" lon="-69.03915">
        <ele>4426</ele>
        <time>2025-10-18T19:54:40Z</time>
      </trkpt>
      <trkpt lat="-18.09186" lon="-69.03902">
        <ele>4428</ele>
        <time>2025-10-18T19:54:52Z</time>
      </trkpt>
      <trkpt lat="-18.09185" lon="-69.03882">
        <ele>4426</ele>
        <time>2025-10-18T19:55:12Z</time>
      </trkpt>
      <trkpt lat="-18.09186" lon="-69.03864">
        <ele>4425</ele>
        <time>2025-10-18T19:55:30Z</time>
      </trkpt>
      <trkpt lat="-18.09188" lon="-69.03846">
        <ele>4426</ele>
        <time>2025-10-18T19:55:46Z</time>
      </trkpt>
      <trkpt lat="-18.09191" lon="-69.03834">
        <ele>4424</ele>
        <time>2025-10-18T19:55:58Z</time>
      </trkpt>
      <trkpt lat="-18.09195" lon="-69.03832">
        <ele>4424</ele>
        <time>2025-10-18T19:56:04Z</time>
      </trkpt>
      <trkpt lat="-18.09199" lon="-69.03831">
        <ele>4425</ele>
        <time>2025-10-18T19:56:52Z</time>
      </trkpt>
      <trkpt lat="-18.09202" lon="-69.03829">
        <ele>4425</ele>
        <time>2025-10-18T19:57:04Z</time>
      </trkpt>
      <trkpt lat="-18.092" lon="-69.03821">
        <ele>4424</ele>
        <time>2025-10-18T19:57:42Z</time>
      </trkpt>
      <trkpt lat="-18.09199" lon="-69.03814">
        <ele>4426</ele>
        <time>2025-10-18T19:57:46Z</time>
      </trkpt>
      <trkpt lat="-18.09206" lon="-69.03798">
        <ele>4427</ele>
        <time>2025-10-18T19:58:02Z</time>
      </trkpt>
      <trkpt lat="-18.09208" lon="-69.03794">
        <ele>4426</ele>
        <time>2025-10-18T19:58:06Z</time>
      </trkpt>
      <trkpt lat="-18.09211" lon="-69.03785">
        <ele>4425</ele>
        <time>2025-10-18T19:58:14Z</time>
      </trkpt>
      <trkpt lat="-18.09212" lon="-69.03781">
        <ele>4423</ele>
        <time>2025-10-18T19:58:18Z</time>
      </trkpt>
      <trkpt lat="-18.09216" lon="-69.03773">
        <ele>4423</ele>
        <time>2025-10-18T19:58:26Z</time>
      </trkpt>
      <trkpt lat="-18.09221" lon="-69.0376">
        <ele>4422</ele>
        <time>2025-10-18T19:58:38Z</time>
      </trkpt>
      <trkpt lat="-18.09222" lon="-69.03756">
        <ele>4422</ele>
        <time>2025-10-18T19:58:42Z</time>
      </trkpt>
      <trkpt lat="-18.09226" lon="-69.03748">
        <ele>4421</ele>
        <time>2025-10-18T19:58:50Z</time>
      </trkpt>
      <trkpt lat="-18.09228" lon="-69.03744">
        <ele>4421</ele>
        <time>2025-10-18T19:58:54Z</time>
      </trkpt>
      <trkpt lat="-18.09247" lon="-69.03714">
        <ele>4418</ele>
        <time>2025-10-18T19:59:26Z</time>
      </trkpt>
      <trkpt lat="-18.09249" lon="-69.0371">
        <ele>4418</ele>
        <time>2025-10-18T19:59:30Z</time>
      </trkpt>
      <trkpt lat="-18.09263" lon="-69.03692">
        <ele>4417</ele>
        <time>2025-10-18T19:59:50Z</time>
      </trkpt>
      <trkpt lat="-18.09279" lon="-69.03678">
        <ele>4417</ele>
        <time>2025-10-18T20:00:10Z</time>
      </trkpt>
      <trkpt lat="-18.09297" lon="-69.03665">
        <ele>4415</ele>
        <time>2025-10-18T20:00:30Z</time>
      </trkpt>
      <trkpt lat="-18.09321" lon="-69.03641">
        <ele>4412</ele>
        <time>2025-10-18T20:01:02Z</time>
      </trkpt>
      <trkpt lat="-18.09326" lon="-69.03638">
        <ele>4412</ele>
        <time>2025-10-18T20:01:08Z</time>
      </trkpt>
      <trkpt lat="-18.09351" lon="-69.0361">
        <ele>4416</ele>
        <time>2025-10-18T20:01:40Z</time>
      </trkpt>
      <trkpt lat="-18.09373" lon="-69.03585">
        <ele>4413</ele>
        <time>2025-10-18T20:02:12Z</time>
      </trkpt>
      <trkpt lat="-18.09398" lon="-69.03559">
        <ele>4416</ele>
        <time>2025-10-18T20:02:44Z</time>
      </trkpt>
      <trkpt lat="-18.09412" lon="-69.03541">
        <ele>4414</ele>
        <time>2025-10-18T20:03:04Z</time>
      </trkpt>
      <trkpt lat="-18.09414" lon="-69.03538">
        <ele>4413</ele>
        <time>2025-10-18T20:03:08Z</time>
      </trkpt>
      <trkpt lat="-18.09432" lon="-69.03518">
        <ele>4411</ele>
        <time>2025-10-18T20:03:32Z</time>
      </trkpt>
      <trkpt lat="-18.09448" lon="-69.03501">
        <ele>4409</ele>
        <time>2025-10-18T20:03:52Z</time>
      </trkpt>
      <trkpt lat="-18.09467" lon="-69.03471">
        <ele>4411</ele>
        <time>2025-10-18T20:04:24Z</time>
      </trkpt>
      <trkpt lat="-18.09473" lon="-69.03456">
        <ele>4412</ele>
        <time>2025-10-18T20:04:40Z</time>
      </trkpt>
      <trkpt lat="-18.09475" lon="-69.03452">
        <ele>4412</ele>
        <time>2025-10-18T20:04:44Z</time>
      </trkpt>
      <trkpt lat="-18.09478" lon="-69.03445">
        <ele>4412</ele>
        <time>2025-10-18T20:04:52Z</time>
      </trkpt>
      <trkpt lat="-18.09488" lon="-69.03426">
        <ele>4409</ele>
        <time>2025-10-18T20:05:14Z</time>
      </trkpt>
      <trkpt lat="-18.09507" lon="-69.03399">
        <ele>4406</ele>
        <time>2025-10-18T20:05:46Z</time>
      </trkpt>
      <trkpt lat="-18.0951" lon="-69.03396">
        <ele>4405</ele>
        <time>2025-10-18T20:05:50Z</time>
      </trkpt>
      <trkpt lat="-18.09522" lon="-69.0339">
        <ele>4403</ele>
        <time>2025-10-18T20:06:02Z</time>
      </trkpt>
      <trkpt lat="-18.09548" lon="-69.03371">
        <ele>4402</ele>
        <time>2025-10-18T20:06:34Z</time>
      </trkpt>
      <trkpt lat="-18.09552" lon="-69.03368">
        <ele>4402</ele>
        <time>2025-10-18T20:06:38Z</time>
      </trkpt>
      <trkpt lat="-18.0958" lon="-69.03349">
        <ele>4401</ele>
        <time>2025-10-18T20:07:10Z</time>
      </trkpt>
      <trkpt lat="-18.09608" lon="-69.03329">
        <ele>4399</ele>
        <time>2025-10-18T20:07:42Z</time>
      </trkpt>
      <trkpt lat="-18.09611" lon="-69.03326">
        <ele>4400</ele>
        <time>2025-10-18T20:07:46Z</time>
      </trkpt>
      <trkpt lat="-18.09614" lon="-69.03318">
        <ele>4401</ele>
        <time>2025-10-18T20:08:16Z</time>
      </trkpt>
      <trkpt lat="-18.09618" lon="-69.0331">
        <ele>4401</ele>
        <time>2025-10-18T20:08:24Z</time>
      </trkpt>
      <trkpt lat="-18.0962" lon="-69.03307">
        <ele>4401</ele>
        <time>2025-10-18T20:08:28Z</time>
      </trkpt>
      <trkpt lat="-18.09624" lon="-69.03299">
        <ele>4401</ele>
        <time>2025-10-18T20:08:36Z</time>
      </trkpt>
      <trkpt lat="-18.09637" lon="-69.03282">
        <ele>4399</ele>
        <time>2025-10-18T20:08:56Z</time>
      </trkpt>
      <trkpt lat="-18.0964" lon="-69.03278">
        <ele>4399</ele>
        <time>2025-10-18T20:09:00Z</time>
      </trkpt>
      <trkpt lat="-18.09642" lon="-69.03275">
        <ele>4399</ele>
        <time>2025-10-18T20:09:04Z</time>
      </trkpt>
      <trkpt lat="-18.09644" lon="-69.03271">
        <ele>4399</ele>
        <time>2025-10-18T20:09:08Z</time>
      </trkpt>
      <trkpt lat="-18.09647" lon="-69.03269">
        <ele>4399</ele>
        <time>2025-10-18T20:09:12Z</time>
      </trkpt>
      <trkpt lat="-18.09647" lon="-69.03263">
        <ele>4399</ele>
        <time>2025-10-18T20:09:32Z</time>
      </trkpt>
      <trkpt lat="-18.09651" lon="-69.03262">
        <ele>4399</ele>
        <time>2025-10-18T20:09:36Z</time>
      </trkpt>
      <trkpt lat="-18.09674" lon="-69.03233">
        <ele>4397</ele>
        <time>2025-10-18T20:10:08Z</time>
      </trkpt>
      <trkpt lat="-18.09679" lon="-69.03226">
        <ele>4397</ele>
        <time>2025-10-18T20:10:16Z</time>
      </trkpt>
      <trkpt lat="-18.09683" lon="-69.03218">
        <ele>4397</ele>
        <time>2025-10-18T20:10:24Z</time>
      </trkpt>
      <trkpt lat="-18.09701" lon="-69.03187">
        <ele>4395</ele>
        <time>2025-10-18T20:10:56Z</time>
      </trkpt>
      <trkpt lat="-18.09713" lon="-69.03163">
        <ele>4398</ele>
        <time>2025-10-18T20:11:20Z</time>
      </trkpt>
      <trkpt lat="-18.09713" lon="-69.03151">
        <ele>4398</ele>
        <time>2025-10-18T20:11:32Z</time>
      </trkpt>
      <trkpt lat="-18.09718" lon="-69.03135">
        <ele>4400</ele>
        <time>2025-10-18T20:11:48Z</time>
      </trkpt>
      <trkpt lat="-18.09718" lon="-69.03131">
        <ele>4400</ele>
        <time>2025-10-18T20:11:52Z</time>
      </trkpt>
      <trkpt lat="-18.09716" lon="-69.03123">
        <ele>4399</ele>
        <time>2025-10-18T20:12:00Z</time>
      </trkpt>
      <trkpt lat="-18.09715" lon="-69.03118">
        <ele>4399</ele>
        <time>2025-10-18T20:12:04Z</time>
      </trkpt>
      <trkpt lat="-18.09714" lon="-69.03114">
        <ele>4399</ele>
        <time>2025-10-18T20:12:08Z</time>
      </trkpt>
      <trkpt lat="-18.09705" lon="-69.0309">
        <ele>4398</ele>
        <time>2025-10-18T20:12:32Z</time>
      </trkpt>
      <trkpt lat="-18.09703" lon="-69.03081">
        <ele>4397</ele>
        <time>2025-10-18T20:12:40Z</time>
      </trkpt>
      <trkpt lat="-18.09704" lon="-69.03068">
        <ele>4396</ele>
        <time>2025-10-18T20:12:52Z</time>
      </trkpt>
      <trkpt lat="-18.09702" lon="-69.03059">
        <ele>4395</ele>
        <time>2025-10-18T20:13:00Z</time>
      </trkpt>
      <trkpt lat="-18.09702" lon="-69.03055">
        <ele>4394</ele>
        <time>2025-10-18T20:13:04Z</time>
      </trkpt>
      <trkpt lat="-18.09703" lon="-69.0305">
        <ele>4393</ele>
        <time>2025-10-18T20:13:08Z</time>
      </trkpt>
      <trkpt lat="-18.09706" lon="-69.03047">
        <ele>4393</ele>
        <time>2025-10-18T20:13:12Z</time>
      </trkpt>
      <trkpt lat="-18.09711" lon="-69.0304">
        <ele>4392</ele>
        <time>2025-10-18T20:13:20Z</time>
      </trkpt>
      <trkpt lat="-18.09714" lon="-69.03032">
        <ele>4391</ele>
        <time>2025-10-18T20:13:28Z</time>
      </trkpt>
      <trkpt lat="-18.09716" lon="-69.03028">
        <ele>4391</ele>
        <time>2025-10-18T20:13:32Z</time>
      </trkpt>
      <trkpt lat="-18.09723" lon="-69.0302">
        <ele>4389</ele>
        <time>2025-10-18T20:13:40Z</time>
      </trkpt>
      <trkpt lat="-18.0973" lon="-69.03011">
        <ele>4391</ele>
        <time>2025-10-18T20:14:10Z</time>
      </trkpt>
      <trkpt lat="-18.09733" lon="-69.03008">
        <ele>4391</ele>
        <time>2025-10-18T20:14:14Z</time>
      </trkpt>
      <trkpt lat="-18.09735" lon="-69.03005">
        <ele>4391</ele>
        <time>2025-10-18T20:14:18Z</time>
      </trkpt>
      <trkpt lat="-18.09738" lon="-69.02997">
        <ele>4390</ele>
        <time>2025-10-18T20:14:26Z</time>
      </trkpt>
      <trkpt lat="-18.09741" lon="-69.02992">
        <ele>4390</ele>
        <time>2025-10-18T20:14:30Z</time>
      </trkpt>
      <trkpt lat="-18.09743" lon="-69.02989">
        <ele>4389</ele>
        <time>2025-10-18T20:14:38Z</time>
      </trkpt>
      <trkpt lat="-18.09745" lon="-69.0298">
        <ele>4389</ele>
        <time>2025-10-18T20:14:48Z</time>
      </trkpt>
      <trkpt lat="-18.09745" lon="-69.02976">
        <ele>4388</ele>
        <time>2025-10-18T20:14:54Z</time>
      </trkpt>
      <trkpt lat="-18.09748" lon="-69.02972">
        <ele>4387</ele>
        <time>2025-10-18T20:15:08Z</time>
      </trkpt>
      <trkpt lat="-18.09752" lon="-69.02968">
        <ele>4386</ele>
        <time>2025-10-18T20:15:14Z</time>
      </trkpt>
      <trkpt lat="-18.09761" lon="-69.02959">
        <ele>4388</ele>
        <time>2025-10-18T20:15:46Z</time>
      </trkpt>
      <trkpt lat="-18.09776" lon="-69.02934">
        <ele>4388</ele>
        <time>2025-10-18T20:16:16Z</time>
      </trkpt>
      <trkpt lat="-18.0978" lon="-69.02927">
        <ele>4388</ele>
        <time>2025-10-18T20:16:24Z</time>
      </trkpt>
      <trkpt lat="-18.09782" lon="-69.02924">
        <ele>4388</ele>
        <time>2025-10-18T20:16:30Z</time>
      </trkpt>
      <trkpt lat="-18.09786" lon="-69.02921">
        <ele>4388</ele>
        <time>2025-10-18T20:16:44Z</time>
      </trkpt>
      <trkpt lat="-18.09787" lon="-69.02917">
        <ele>4388</ele>
        <time>2025-10-18T20:16:50Z</time>
      </trkpt>
      <trkpt lat="-18.09789" lon="-69.02912">
        <ele>4388</ele>
        <time>2025-10-18T20:17:32Z</time>
      </trkpt>
      <trkpt lat="-18.09798" lon="-69.02903">
        <ele>4387</ele>
        <time>2025-10-18T20:17:48Z</time>
      </trkpt>
      <trkpt lat="-18.09802" lon="-69.02896">
        <ele>4387</ele>
        <time>2025-10-18T20:18:10Z</time>
      </trkpt>
      <trkpt lat="-18.09805" lon="-69.02892">
        <ele>4388</ele>
        <time>2025-10-18T20:18:16Z</time>
      </trkpt>
      <trkpt lat="-18.09809" lon="-69.02892">
        <ele>4388</ele>
        <time>2025-10-18T20:18:44Z</time>
      </trkpt>
      <trkpt lat="-18.09813" lon="-69.02891">
        <ele>4387</ele>
        <time>2025-10-18T20:18:52Z</time>
      </trkpt>
      <trkpt lat="-18.09816" lon="-69.02888">
        <ele>4386</ele>
        <time>2025-10-18T20:18:56Z</time>
      </trkpt>
      <trkpt lat="-18.09817" lon="-69.02884">
        <ele>4386</ele>
        <time>2025-10-18T20:19:14Z</time>
      </trkpt>
      <trkpt lat="-18.0982" lon="-69.02882">
        <ele>4386</ele>
        <time>2025-10-18T20:19:18Z</time>
      </trkpt>
      <trkpt lat="-18.09832" lon="-69.0288">
        <ele>4387</ele>
        <time>2025-10-18T20:19:34Z</time>
      </trkpt>
      <trkpt lat="-18.09834" lon="-69.02883">
        <ele>4386</ele>
        <time>2025-10-18T20:19:52Z</time>
      </trkpt>
      <trkpt lat="-18.09837" lon="-69.02883">
        <ele>4385</ele>
        <time>2025-10-18T20:20:23Z</time>
      </trkpt>
      <trkpt lat="-18.09841" lon="-69.02882">
        <ele>4383</ele>
        <time>2025-10-18T20:20:29Z</time>
      </trkpt>
      <trkpt lat="-18.09849" lon="-69.0288">
        <ele>4382</ele>
        <time>2025-10-18T20:20:39Z</time>
      </trkpt>
      <trkpt lat="-18.09853" lon="-69.0288">
        <ele>4382</ele>
        <time>2025-10-18T20:20:43Z</time>
      </trkpt>
      <trkpt lat="-18.09861" lon="-69.02879">
        <ele>4381</ele>
        <time>2025-10-18T20:20:53Z</time>
      </trkpt>
      <trkpt lat="-18.09864" lon="-69.02879">
        <ele>4380</ele>
        <time>2025-10-18T20:20:57Z</time>
      </trkpt>
      <trkpt lat="-18.09868" lon="-69.0288">
        <ele>4379</ele>
        <time>2025-10-18T20:21:03Z</time>
      </trkpt>
      <trkpt lat="-18.09877" lon="-69.02881">
        <ele>4379</ele>
        <time>2025-10-18T20:21:15Z</time>
      </trkpt>
      <trkpt lat="-18.09881" lon="-69.02883">
        <ele>4380</ele>
        <time>2025-10-18T20:22:31Z</time>
      </trkpt>
      <trkpt lat="-18.09884" lon="-69.02881">
        <ele>4380</ele>
        <time>2025-10-18T20:22:39Z</time>
      </trkpt>
      <trkpt lat="-18.09887" lon="-69.02882">
        <ele>4381</ele>
        <time>2025-10-18T20:23:21Z</time>
      </trkpt>
      <trkpt lat="-18.0989" lon="-69.02885">
        <ele>4381</ele>
        <time>2025-10-18T20:23:27Z</time>
      </trkpt>
      <trkpt lat="-18.09894" lon="-69.02886">
        <ele>4382</ele>
        <time>2025-10-18T20:23:33Z</time>
      </trkpt>
      <trkpt lat="-18.09902" lon="-69.02882">
        <ele>4381</ele>
        <time>2025-10-18T20:23:55Z</time>
      </trkpt>
      <trkpt lat="-18.09904" lon="-69.02878">
        <ele>4381</ele>
        <time>2025-10-18T20:24:01Z</time>
      </trkpt>
      <trkpt lat="-18.0992" lon="-69.02872">
        <ele>4381</ele>
        <time>2025-10-18T20:24:23Z</time>
      </trkpt>
      <trkpt lat="-18.09925" lon="-69.02873">
        <ele>4381</ele>
        <time>2025-10-18T20:24:29Z</time>
      </trkpt>
      <trkpt lat="-18.09928" lon="-69.02872">
        <ele>4381</ele>
        <time>2025-10-18T20:24:33Z</time>
      </trkpt>
      <trkpt lat="-18.09936" lon="-69.0287">
        <ele>4381</ele>
        <time>2025-10-18T20:24:43Z</time>
      </trkpt>
      <trkpt lat="-18.0994" lon="-69.02868">
        <ele>4381</ele>
        <time>2025-10-18T20:24:47Z</time>
      </trkpt>
      <trkpt lat="-18.0996" lon="-69.02865">
        <ele>4380</ele>
        <time>2025-10-18T20:25:09Z</time>
      </trkpt>
      <trkpt lat="-18.09963" lon="-69.02864">
        <ele>4380</ele>
        <time>2025-10-18T20:25:13Z</time>
      </trkpt>
      <trkpt lat="-18.09986" lon="-69.0286">
        <ele>4381</ele>
        <time>2025-10-18T20:25:37Z</time>
      </trkpt>
      <trkpt lat="-18.09989" lon="-69.02857">
        <ele>4382</ele>
        <time>2025-10-18T20:25:41Z</time>
      </trkpt>
      <trkpt lat="-18.09992" lon="-69.02851">
        <ele>4382</ele>
        <time>2025-10-18T20:25:49Z</time>
      </trkpt>
      <trkpt lat="-18.09993" lon="-69.02847">
        <ele>4383</ele>
        <time>2025-10-18T20:25:55Z</time>
      </trkpt>
      <trkpt lat="-18.09993" lon="-69.02843">
        <ele>4383</ele>
        <time>2025-10-18T20:26:15Z</time>
      </trkpt>
      <trkpt lat="-18.09999" lon="-69.02829">
        <ele>4385</ele>
        <time>2025-10-18T20:27:11Z</time>
      </trkpt>
      <trkpt lat="-18.10003" lon="-69.02815">
        <ele>4385</ele>
        <time>2025-10-18T20:27:27Z</time>
      </trkpt>
      <trkpt lat="-18.10004" lon="-69.02811">
        <ele>4384</ele>
        <time>2025-10-18T20:27:31Z</time>
      </trkpt>
      <trkpt lat="-18.10006" lon="-69.02806">
        <ele>4384</ele>
        <time>2025-10-18T20:27:35Z</time>
      </trkpt>
      <trkpt lat="-18.10015" lon="-69.02781">
        <ele>4382</ele>
        <time>2025-10-18T20:28:05Z</time>
      </trkpt>
      <trkpt lat="-18.10016" lon="-69.02777">
        <ele>4382</ele>
        <time>2025-10-18T20:28:09Z</time>
      </trkpt>
      <trkpt lat="-18.10018" lon="-69.02774">
        <ele>4382</ele>
        <time>2025-10-18T20:28:13Z</time>
      </trkpt>
      <trkpt lat="-18.1003" lon="-69.02752">
        <ele>4382</ele>
        <time>2025-10-18T20:28:43Z</time>
      </trkpt>
      <trkpt lat="-18.10032" lon="-69.02748">
        <ele>4382</ele>
        <time>2025-10-18T20:28:47Z</time>
      </trkpt>
      <trkpt lat="-18.10037" lon="-69.02738">
        <ele>4381</ele>
        <time>2025-10-18T20:28:59Z</time>
      </trkpt>
      <trkpt lat="-18.10038" lon="-69.02734">
        <ele>4381</ele>
        <time>2025-10-18T20:29:05Z</time>
      </trkpt>
      <trkpt lat="-18.10042" lon="-69.02726">
        <ele>4381</ele>
        <time>2025-10-18T20:29:15Z</time>
      </trkpt>
      <trkpt lat="-18.10044" lon="-69.02722">
        <ele>4382</ele>
        <time>2025-10-18T20:29:19Z</time>
      </trkpt>
      <trkpt lat="-18.10044" lon="-69.02717">
        <ele>4381</ele>
        <time>2025-10-18T20:29:25Z</time>
      </trkpt>
      <trkpt lat="-18.10058" lon="-69.02695">
        <ele>4378</ele>
        <time>2025-10-18T20:29:55Z</time>
      </trkpt>
      <trkpt lat="-18.10068" lon="-69.02679">
        <ele>4378</ele>
        <time>2025-10-18T20:30:15Z</time>
      </trkpt>
      <trkpt lat="-18.10087" lon="-69.02652">
        <ele>4379</ele>
        <time>2025-10-18T20:30:49Z</time>
      </trkpt>
      <trkpt lat="-18.10097" lon="-69.02636">
        <ele>4378</ele>
        <time>2025-10-18T20:31:09Z</time>
      </trkpt>
      <trkpt lat="-18.10099" lon="-69.02633">
        <ele>4378</ele>
        <time>2025-10-18T20:31:13Z</time>
      </trkpt>
      <trkpt lat="-18.10101" lon="-69.02629">
        <ele>4378</ele>
        <time>2025-10-18T20:31:17Z</time>
      </trkpt>
      <trkpt lat="-18.10103" lon="-69.02626">
        <ele>4378</ele>
        <time>2025-10-18T20:31:21Z</time>
      </trkpt>
      <trkpt lat="-18.10109" lon="-69.02612">
        <ele>4379</ele>
        <time>2025-10-18T20:31:37Z</time>
      </trkpt>
      <trkpt lat="-18.10113" lon="-69.02601">
        <ele>4379</ele>
        <time>2025-10-18T20:31:49Z</time>
      </trkpt>
      <trkpt lat="-18.10118" lon="-69.02588">
        <ele>4380</ele>
        <time>2025-10-18T20:32:05Z</time>
      </trkpt>
      <trkpt lat="-18.1013" lon="-69.02564">
        <ele>4380</ele>
        <time>2025-10-18T20:32:35Z</time>
      </trkpt>
      <trkpt lat="-18.10147" lon="-69.02538">
        <ele>4378</ele>
        <time>2025-10-18T20:33:07Z</time>
      </trkpt>
      <trkpt lat="-18.10152" lon="-69.0253">
        <ele>4377</ele>
        <time>2025-10-18T20:33:19Z</time>
      </trkpt>
      <trkpt lat="-18.10158" lon="-69.02524">
        <ele>4377</ele>
        <time>2025-10-18T20:33:27Z</time>
      </trkpt>
      <trkpt lat="-18.1016" lon="-69.02521">
        <ele>4377</ele>
        <time>2025-10-18T20:33:31Z</time>
      </trkpt>
      <trkpt lat="-18.10172" lon="-69.02506">
        <ele>4376</ele>
        <time>2025-10-18T20:33:51Z</time>
      </trkpt>
      <trkpt lat="-18.10186" lon="-69.02485">
        <ele>4377</ele>
        <time>2025-10-18T20:34:17Z</time>
      </trkpt>
      <trkpt lat="-18.1019" lon="-69.02479">
        <ele>4377</ele>
        <time>2025-10-18T20:34:25Z</time>
      </trkpt>
      <trkpt lat="-18.10192" lon="-69.02475">
        <ele>4377</ele>
        <time>2025-10-18T20:34:29Z</time>
      </trkpt>
      <trkpt lat="-18.10194" lon="-69.02471">
        <ele>4377</ele>
        <time>2025-10-18T20:34:33Z</time>
      </trkpt>
      <trkpt lat="-18.10196" lon="-69.02468">
        <ele>4377</ele>
        <time>2025-10-18T20:34:37Z</time>
      </trkpt>
      <trkpt lat="-18.10199" lon="-69.02465">
        <ele>4376</ele>
        <time>2025-10-18T20:34:43Z</time>
      </trkpt>
      <trkpt lat="-18.102" lon="-69.0246">
        <ele>4376</ele>
        <time>2025-10-18T20:34:49Z</time>
      </trkpt>
      <trkpt lat="-18.10204" lon="-69.02457">
        <ele>4376</ele>
        <time>2025-10-18T20:34:53Z</time>
      </trkpt>
      <trkpt lat="-18.10211" lon="-69.02446">
        <ele>4375</ele>
        <time>2025-10-18T20:35:07Z</time>
      </trkpt>
      <trkpt lat="-18.10214" lon="-69.02438">
        <ele>4376</ele>
        <time>2025-10-18T20:35:15Z</time>
      </trkpt>
      <trkpt lat="-18.10214" lon="-69.02434">
        <ele>4376</ele>
        <time>2025-10-18T20:35:19Z</time>
      </trkpt>
      <trkpt lat="-18.1023" lon="-69.02415">
        <ele>4374</ele>
        <time>2025-10-18T20:35:43Z</time>
      </trkpt>
      <trkpt lat="-18.10233" lon="-69.02407">
        <ele>4373</ele>
        <time>2025-10-18T20:35:51Z</time>
      </trkpt>
      <trkpt lat="-18.10234" lon="-69.02403">
        <ele>4372</ele>
        <time>2025-10-18T20:35:55Z</time>
      </trkpt>
      <trkpt lat="-18.10235" lon="-69.024">
        <ele>4372</ele>
        <time>2025-10-18T20:35:59Z</time>
      </trkpt>
      <trkpt lat="-18.1024" lon="-69.02393">
        <ele>4371</ele>
        <time>2025-10-18T20:36:09Z</time>
      </trkpt>
      <trkpt lat="-18.10243" lon="-69.02389">
        <ele>4371</ele>
        <time>2025-10-18T20:36:15Z</time>
      </trkpt>
      <trkpt lat="-18.1025" lon="-69.02384">
        <ele>4370</ele>
        <time>2025-10-18T20:36:23Z</time>
      </trkpt>
      <trkpt lat="-18.10257" lon="-69.02368">
        <ele>4371</ele>
        <time>2025-10-18T20:36:39Z</time>
      </trkpt>
      <trkpt lat="-18.10257" lon="-69.02356">
        <ele>4370</ele>
        <time>2025-10-18T20:36:51Z</time>
      </trkpt>
      <trkpt lat="-18.10257" lon="-69.02352">
        <ele>4371</ele>
        <time>2025-10-18T20:36:55Z</time>
      </trkpt>
      <trkpt lat="-18.10255" lon="-69.02348">
        <ele>4371</ele>
        <time>2025-10-18T20:36:59Z</time>
      </trkpt>
      <trkpt lat="-18.10261" lon="-69.02313">
        <ele>4370</ele>
        <time>2025-10-18T20:37:31Z</time>
      </trkpt>
      <trkpt lat="-18.10262" lon="-69.023">
        <ele>4370</ele>
        <time>2025-10-18T20:37:43Z</time>
      </trkpt>
      <trkpt lat="-18.10263" lon="-69.02296">
        <ele>4371</ele>
        <time>2025-10-18T20:37:47Z</time>
      </trkpt>
      <trkpt lat="-18.10266" lon="-69.02283">
        <ele>4369</ele>
        <time>2025-10-18T20:37:59Z</time>
      </trkpt>
      <trkpt lat="-18.10276" lon="-69.02252">
        <ele>4369</ele>
        <time>2025-10-18T20:38:31Z</time>
      </trkpt>
      <trkpt lat="-18.10277" lon="-69.02244">
        <ele>4369</ele>
        <time>2025-10-18T20:38:39Z</time>
      </trkpt>
      <trkpt lat="-18.10277" lon="-69.0224">
        <ele>4369</ele>
        <time>2025-10-18T20:38:43Z</time>
      </trkpt>
      <trkpt lat="-18.10291" lon="-69.0221">
        <ele>4369</ele>
        <time>2025-10-18T20:39:15Z</time>
      </trkpt>
      <trkpt lat="-18.10293" lon="-69.02205">
        <ele>4369</ele>
        <time>2025-10-18T20:39:21Z</time>
      </trkpt>
      <trkpt lat="-18.10296" lon="-69.02202">
        <ele>4370</ele>
        <time>2025-10-18T20:39:27Z</time>
      </trkpt>
      <trkpt lat="-18.10299" lon="-69.02198">
        <ele>4370</ele>
        <time>2025-10-18T20:39:33Z</time>
      </trkpt>
      <trkpt lat="-18.10305" lon="-69.02192">
        <ele>4370</ele>
        <time>2025-10-18T20:39:43Z</time>
      </trkpt>
      <trkpt lat="-18.10307" lon="-69.02189">
        <ele>4370</ele>
        <time>2025-10-18T20:39:47Z</time>
      </trkpt>
      <trkpt lat="-18.10314" lon="-69.02185">
        <ele>4368</ele>
        <time>2025-10-18T20:39:57Z</time>
      </trkpt>
      <trkpt lat="-18.10319" lon="-69.02185">
        <ele>4367</ele>
        <time>2025-10-18T20:40:03Z</time>
      </trkpt>
      <trkpt lat="-18.10323" lon="-69.02186">
        <ele>4367</ele>
        <time>2025-10-18T20:40:07Z</time>
      </trkpt>
      <trkpt lat="-18.10327" lon="-69.02188">
        <ele>4366</ele>
        <time>2025-10-18T20:40:11Z</time>
      </trkpt>
      <trkpt lat="-18.10331" lon="-69.02187">
        <ele>4366</ele>
        <time>2025-10-18T20:40:15Z</time>
      </trkpt>
      <trkpt lat="-18.10335" lon="-69.02184">
        <ele>4365</ele>
        <time>2025-10-18T20:40:21Z</time>
      </trkpt>
      <trkpt lat="-18.10337" lon="-69.0218">
        <ele>4365</ele>
        <time>2025-10-18T20:40:25Z</time>
      </trkpt>
      <trkpt lat="-18.10339" lon="-69.02169">
        <ele>4365</ele>
        <time>2025-10-18T20:40:37Z</time>
      </trkpt>
      <trkpt lat="-18.10342" lon="-69.02159">
        <ele>4365</ele>
        <time>2025-10-18T20:40:49Z</time>
      </trkpt>
      <trkpt lat="-18.10344" lon="-69.02156">
        <ele>4365</ele>
        <time>2025-10-18T20:40:53Z</time>
      </trkpt>
      <trkpt lat="-18.10346" lon="-69.02152">
        <ele>4365</ele>
        <time>2025-10-18T20:40:57Z</time>
      </trkpt>
      <trkpt lat="-18.1036" lon="-69.02139">
        <ele>4363</ele>
        <time>2025-10-18T20:41:17Z</time>
      </trkpt>
      <trkpt lat="-18.10368" lon="-69.02128">
        <ele>4362</ele>
        <time>2025-10-18T20:41:33Z</time>
      </trkpt>
      <trkpt lat="-18.10372" lon="-69.02122">
        <ele>4361</ele>
        <time>2025-10-18T20:41:41Z</time>
      </trkpt>
      <trkpt lat="-18.10372" lon="-69.02119">
        <ele>4362</ele>
        <time>2025-10-18T20:41:45Z</time>
      </trkpt>
      <trkpt lat="-18.10375" lon="-69.02115">
        <ele>4361</ele>
        <time>2025-10-18T20:41:51Z</time>
      </trkpt>
      <trkpt lat="-18.10376" lon="-69.02111">
        <ele>4361</ele>
        <time>2025-10-18T20:41:55Z</time>
      </trkpt>
      <trkpt lat="-18.10382" lon="-69.02096">
        <ele>4359</ele>
        <time>2025-10-18T20:42:13Z</time>
      </trkpt>
      <trkpt lat="-18.10385" lon="-69.02087">
        <ele>4358</ele>
        <time>2025-10-18T20:42:23Z</time>
      </trkpt>
      <trkpt lat="-18.10395" lon="-69.02068">
        <ele>4356</ele>
        <time>2025-10-18T20:42:45Z</time>
      </trkpt>
      <trkpt lat="-18.10399" lon="-69.02045">
        <ele>4357</ele>
        <time>2025-10-18T20:43:15Z</time>
      </trkpt>
      <trkpt lat="-18.10402" lon="-69.02035">
        <ele>4356</ele>
        <time>2025-10-18T20:43:27Z</time>
      </trkpt>
      <trkpt lat="-18.10404" lon="-69.02027">
        <ele>4354</ele>
        <time>2025-10-18T20:43:37Z</time>
      </trkpt>
      <trkpt lat="-18.10405" lon="-69.02024">
        <ele>4354</ele>
        <time>2025-10-18T20:43:41Z</time>
      </trkpt>
      <trkpt lat="-18.10407" lon="-69.02016">
        <ele>4353</ele>
        <time>2025-10-18T20:43:49Z</time>
      </trkpt>
      <trkpt lat="-18.10409" lon="-69.02012">
        <ele>4353</ele>
        <time>2025-10-18T20:43:53Z</time>
      </trkpt>
      <trkpt lat="-18.1041" lon="-69.02008">
        <ele>4352</ele>
        <time>2025-10-18T20:43:59Z</time>
      </trkpt>
      <trkpt lat="-18.10412" lon="-69.02004">
        <ele>4352</ele>
        <time>2025-10-18T20:44:05Z</time>
      </trkpt>
      <trkpt lat="-18.10414" lon="-69.02">
        <ele>4352</ele>
        <time>2025-10-18T20:44:13Z</time>
      </trkpt>
      <trkpt lat="-18.10415" lon="-69.01996">
        <ele>4351</ele>
        <time>2025-10-18T20:44:17Z</time>
      </trkpt>
      <trkpt lat="-18.10424" lon="-69.01965">
        <ele>4348</ele>
        <time>2025-10-18T20:44:49Z</time>
      </trkpt>
      <trkpt lat="-18.10433" lon="-69.01946">
        <ele>4346</ele>
        <time>2025-10-18T20:45:09Z</time>
      </trkpt>
      <trkpt lat="-18.10434" lon="-69.01942">
        <ele>4346</ele>
        <time>2025-10-18T20:45:13Z</time>
      </trkpt>
      <trkpt lat="-18.10439" lon="-69.01936">
        <ele>4346</ele>
        <time>2025-10-18T20:45:21Z</time>
      </trkpt>
      <trkpt lat="-18.10442" lon="-69.01933">
        <ele>4346</ele>
        <time>2025-10-18T20:45:25Z</time>
      </trkpt>
      <trkpt lat="-18.10446" lon="-69.01926">
        <ele>4346</ele>
        <time>2025-10-18T20:45:33Z</time>
      </trkpt>
      <trkpt lat="-18.10462" lon="-69.01896">
        <ele>4345</ele>
        <time>2025-10-18T20:46:05Z</time>
      </trkpt>
      <trkpt lat="-18.10463" lon="-69.01892">
        <ele>4345</ele>
        <time>2025-10-18T20:46:09Z</time>
      </trkpt>
      <trkpt lat="-18.10467" lon="-69.01858">
        <ele>4346</ele>
        <time>2025-10-18T20:46:41Z</time>
      </trkpt>
      <trkpt lat="-18.1047" lon="-69.01824">
        <ele>4343</ele>
        <time>2025-10-18T20:47:13Z</time>
      </trkpt>
      <trkpt lat="-18.10471" lon="-69.01811">
        <ele>4343</ele>
        <time>2025-10-18T20:47:25Z</time>
      </trkpt>
      <trkpt lat="-18.10471" lon="-69.01808">
        <ele>4344</ele>
        <time>2025-10-18T20:47:29Z</time>
      </trkpt>
      <trkpt lat="-18.10474" lon="-69.01777">
        <ele>4344</ele>
        <time>2025-10-18T20:48:01Z</time>
      </trkpt>
      <trkpt lat="-18.10474" lon="-69.01774">
        <ele>4343</ele>
        <time>2025-10-18T20:48:05Z</time>
      </trkpt>
      <trkpt lat="-18.10476" lon="-69.01765">
        <ele>4343</ele>
        <time>2025-10-18T20:48:15Z</time>
      </trkpt>
      <trkpt lat="-18.10476" lon="-69.01761">
        <ele>4344</ele>
        <time>2025-10-18T20:48:19Z</time>
      </trkpt>
      <trkpt lat="-18.10479" lon="-69.01747">
        <ele>4344</ele>
        <time>2025-10-18T20:48:35Z</time>
      </trkpt>
      <trkpt lat="-18.10481" lon="-69.01742">
        <ele>4344</ele>
        <time>2025-10-18T20:48:41Z</time>
      </trkpt>
      <trkpt lat="-18.10486" lon="-69.01731">
        <ele>4344</ele>
        <time>2025-10-18T20:48:55Z</time>
      </trkpt>
      <trkpt lat="-18.10488" lon="-69.01726">
        <ele>4344</ele>
        <time>2025-10-18T20:49:01Z</time>
      </trkpt>
      <trkpt lat="-18.10489" lon="-69.01722">
        <ele>4344</ele>
        <time>2025-10-18T20:49:05Z</time>
      </trkpt>
      <trkpt lat="-18.10505" lon="-69.01698">
        <ele>4342</ele>
        <time>2025-10-18T20:49:35Z</time>
      </trkpt>
      <trkpt lat="-18.10516" lon="-69.01687">
        <ele>4344</ele>
        <time>2025-10-18T20:49:51Z</time>
      </trkpt>
      <trkpt lat="-18.10537" lon="-69.0167">
        <ele>4344</ele>
        <time>2025-10-18T20:50:15Z</time>
      </trkpt>
      <trkpt lat="-18.1054" lon="-69.01668">
        <ele>4344</ele>
        <time>2025-10-18T20:50:19Z</time>
      </trkpt>
      <trkpt lat="-18.10551" lon="-69.0166">
        <ele>4343</ele>
        <time>2025-10-18T20:50:31Z</time>
      </trkpt>
      <trkpt lat="-18.10558" lon="-69.01656">
        <ele>4343</ele>
        <time>2025-10-18T20:50:39Z</time>
      </trkpt>
      <trkpt lat="-18.10586" lon="-69.01637">
        <ele>4340</ele>
        <time>2025-10-18T20:51:11Z</time>
      </trkpt>
      <trkpt lat="-18.10601" lon="-69.01623">
        <ele>4339</ele>
        <time>2025-10-18T20:51:31Z</time>
      </trkpt>
      <trkpt lat="-18.10604" lon="-69.0162">
        <ele>4339</ele>
        <time>2025-10-18T20:51:35Z</time>
      </trkpt>
      <trkpt lat="-18.10605" lon="-69.01616">
        <ele>4338</ele>
        <time>2025-10-18T20:51:39Z</time>
      </trkpt>
      <trkpt lat="-18.10625" lon="-69.01598">
        <ele>4340</ele>
        <time>2025-10-18T20:52:09Z</time>
      </trkpt>
      <trkpt lat="-18.10631" lon="-69.01594">
        <ele>4341</ele>
        <time>2025-10-18T20:52:17Z</time>
      </trkpt>
      <trkpt lat="-18.10634" lon="-69.0159">
        <ele>4341</ele>
        <time>2025-10-18T20:52:23Z</time>
      </trkpt>
      <trkpt lat="-18.10641" lon="-69.01585">
        <ele>4341</ele>
        <time>2025-10-18T20:52:41Z</time>
      </trkpt>
      <trkpt lat="-18.10665" lon="-69.01565">
        <ele>4340</ele>
        <time>2025-10-18T20:53:13Z</time>
      </trkpt>
      <trkpt lat="-18.10684" lon="-69.01543">
        <ele>4340</ele>
        <time>2025-10-18T20:53:41Z</time>
      </trkpt>
      <trkpt lat="-18.10692" lon="-69.01533">
        <ele>4339</ele>
        <time>2025-10-18T20:53:53Z</time>
      </trkpt>
      <trkpt lat="-18.10702" lon="-69.01523">
        <ele>4339</ele>
        <time>2025-10-18T20:54:05Z</time>
      </trkpt>
      <trkpt lat="-18.10706" lon="-69.01515">
        <ele>4338</ele>
        <time>2025-10-18T20:54:15Z</time>
      </trkpt>
      <trkpt lat="-18.10709" lon="-69.0151">
        <ele>4338</ele>
        <time>2025-10-18T20:54:19Z</time>
      </trkpt>
      <trkpt lat="-18.10717" lon="-69.015">
        <ele>4339</ele>
        <time>2025-10-18T20:54:31Z</time>
      </trkpt>
      <trkpt lat="-18.10719" lon="-69.01497">
        <ele>4339</ele>
        <time>2025-10-18T20:54:35Z</time>
      </trkpt>
      <trkpt lat="-18.10725" lon="-69.01487">
        <ele>4339</ele>
        <time>2025-10-18T20:54:47Z</time>
      </trkpt>
      <trkpt lat="-18.10728" lon="-69.01485">
        <ele>4339</ele>
        <time>2025-10-18T20:54:51Z</time>
      </trkpt>
      <trkpt lat="-18.10732" lon="-69.01478">
        <ele>4339</ele>
        <time>2025-10-18T20:54:59Z</time>
      </trkpt>
      <trkpt lat="-18.10736" lon="-69.01476">
        <ele>4338</ele>
        <time>2025-10-18T20:55:03Z</time>
      </trkpt>
      <trkpt lat="-18.10761" lon="-69.01455">
        <ele>4340</ele>
        <time>2025-10-18T20:55:35Z</time>
      </trkpt>
      <trkpt lat="-18.10769" lon="-69.01444">
        <ele>4339</ele>
        <time>2025-10-18T20:55:51Z</time>
      </trkpt>
      <trkpt lat="-18.10783" lon="-69.01429">
        <ele>4337</ele>
        <time>2025-10-18T20:56:13Z</time>
      </trkpt>
      <trkpt lat="-18.10805" lon="-69.01406">
        <ele>4337</ele>
        <time>2025-10-18T20:56:45Z</time>
      </trkpt>
      <trkpt lat="-18.10808" lon="-69.01403">
        <ele>4337</ele>
        <time>2025-10-18T20:56:49Z</time>
      </trkpt>
      <trkpt lat="-18.10813" lon="-69.01398">
        <ele>4336</ele>
        <time>2025-10-18T20:56:57Z</time>
      </trkpt>
      <trkpt lat="-18.10822" lon="-69.01388">
        <ele>4335</ele>
        <time>2025-10-18T20:57:09Z</time>
      </trkpt>
      <trkpt lat="-18.10824" lon="-69.01386">
        <ele>4335</ele>
        <time>2025-10-18T20:57:13Z</time>
      </trkpt>
      <trkpt lat="-18.10847" lon="-69.01361">
        <ele>4334</ele>
        <time>2025-10-18T20:57:45Z</time>
      </trkpt>
      <trkpt lat="-18.10872" lon="-69.01337">
        <ele>4331</ele>
        <time>2025-10-18T20:58:17Z</time>
      </trkpt>
      <trkpt lat="-18.10877" lon="-69.01331">
        <ele>4330</ele>
        <time>2025-10-18T20:58:25Z</time>
      </trkpt>
      <trkpt lat="-18.10887" lon="-69.01322">
        <ele>4330</ele>
        <time>2025-10-18T20:58:37Z</time>
      </trkpt>
      <trkpt lat="-18.10892" lon="-69.01317">
        <ele>4330</ele>
        <time>2025-10-18T20:58:45Z</time>
      </trkpt>
      <trkpt lat="-18.10917" lon="-69.01294">
        <ele>4329</ele>
        <time>2025-10-18T20:59:17Z</time>
      </trkpt>
      <trkpt lat="-18.1094" lon="-69.01279">
        <ele>4330</ele>
        <time>2025-10-18T20:59:49Z</time>
      </trkpt>
      <trkpt lat="-18.10962" lon="-69.01259">
        <ele>4330</ele>
        <time>2025-10-18T21:00:21Z</time>
      </trkpt>
      <trkpt lat="-18.10974" lon="-69.01242">
        <ele>4330</ele>
        <time>2025-10-18T21:00:43Z</time>
      </trkpt>
      <trkpt lat="-18.10984" lon="-69.01225">
        <ele>4330</ele>
        <time>2025-10-18T21:01:03Z</time>
      </trkpt>
      <trkpt lat="-18.10998" lon="-69.01201">
        <ele>4329</ele>
        <time>2025-10-18T21:01:33Z</time>
      </trkpt>
      <trkpt lat="-18.11003" lon="-69.01195">
        <ele>4328</ele>
        <time>2025-10-18T21:01:41Z</time>
      </trkpt>
      <trkpt lat="-18.11007" lon="-69.01193">
        <ele>4328</ele>
        <time>2025-10-18T21:01:45Z</time>
      </trkpt>
      <trkpt lat="-18.11009" lon="-69.01193">
        <ele>4328</ele>
        <time>2025-10-18T21:02:01Z</time>
      </trkpt>
      <trkpt lat="-18.1101" lon="-69.01189">
        <ele>4328</ele>
        <time>2025-10-18T21:02:07Z</time>
      </trkpt>
      <trkpt lat="-18.11015" lon="-69.01182">
        <ele>4327</ele>
        <time>2025-10-18T21:02:15Z</time>
      </trkpt>
      <trkpt lat="-18.11021" lon="-69.01176">
        <ele>4327</ele>
        <time>2025-10-18T21:02:23Z</time>
      </trkpt>
      <trkpt lat="-18.11032" lon="-69.01161">
        <ele>4326</ele>
        <time>2025-10-18T21:02:41Z</time>
      </trkpt>
      <trkpt lat="-18.11055" lon="-69.01132">
        <ele>4325</ele>
        <time>2025-10-18T21:03:13Z</time>
      </trkpt>
      <trkpt lat="-18.11066" lon="-69.01117">
        <ele>4324</ele>
        <time>2025-10-18T21:03:29Z</time>
      </trkpt>
      <trkpt lat="-18.11069" lon="-69.01113">
        <ele>4324</ele>
        <time>2025-10-18T21:03:33Z</time>
      </trkpt>
      <trkpt lat="-18.11086" lon="-69.01091">
        <ele>4324</ele>
        <time>2025-10-18T21:03:57Z</time>
      </trkpt>
      <trkpt lat="-18.11089" lon="-69.01085">
        <ele>4323</ele>
        <time>2025-10-18T21:04:01Z</time>
      </trkpt>
      <trkpt lat="-18.11107" lon="-69.01063">
        <ele>4323</ele>
        <time>2025-10-18T21:04:29Z</time>
      </trkpt>
      <trkpt lat="-18.11113" lon="-69.01056">
        <ele>4324</ele>
        <time>2025-10-18T21:04:37Z</time>
      </trkpt>
      <trkpt lat="-18.11135" lon="-69.0103">
        <ele>4324</ele>
        <time>2025-10-18T21:05:09Z</time>
      </trkpt>
      <trkpt lat="-18.1116" lon="-69.01004">
        <ele>4323</ele>
        <time>2025-10-18T21:05:41Z</time>
      </trkpt>
      <trkpt lat="-18.11163" lon="-69.01">
        <ele>4323</ele>
        <time>2025-10-18T21:05:45Z</time>
      </trkpt>
      <trkpt lat="-18.1117" lon="-69.00989">
        <ele>4323</ele>
        <time>2025-10-18T21:05:57Z</time>
      </trkpt>
      <trkpt lat="-18.11172" lon="-69.00984">
        <ele>4322</ele>
        <time>2025-10-18T21:06:01Z</time>
      </trkpt>
      <trkpt lat="-18.11184" lon="-69.00972">
        <ele>4321</ele>
        <time>2025-10-18T21:06:17Z</time>
      </trkpt>
      <trkpt lat="-18.11208" lon="-69.00943">
        <ele>4320</ele>
        <time>2025-10-18T21:06:49Z</time>
      </trkpt>
      <trkpt lat="-18.11224" lon="-69.00923">
        <ele>4319</ele>
        <time>2025-10-18T21:07:13Z</time>
      </trkpt>
      <trkpt lat="-18.11225" lon="-69.00919">
        <ele>4319</ele>
        <time>2025-10-18T21:07:17Z</time>
      </trkpt>
      <trkpt lat="-18.11243" lon="-69.009">
        <ele>4318</ele>
        <time>2025-10-18T21:07:41Z</time>
      </trkpt>
      <trkpt lat="-18.11264" lon="-69.00874">
        <ele>4318</ele>
        <time>2025-10-18T21:08:13Z</time>
      </trkpt>
      <trkpt lat="-18.11288" lon="-69.00848">
        <ele>4317</ele>
        <time>2025-10-18T21:08:45Z</time>
      </trkpt>
      <trkpt lat="-18.11302" lon="-69.00833">
        <ele>4316</ele>
        <time>2025-10-18T21:09:05Z</time>
      </trkpt>
      <trkpt lat="-18.11315" lon="-69.00821">
        <ele>4317</ele>
        <time>2025-10-18T21:09:27Z</time>
      </trkpt>
      <trkpt lat="-18.11334" lon="-69.00802">
        <ele>4318</ele>
        <time>2025-10-18T21:09:59Z</time>
      </trkpt>
      <trkpt lat="-18.11337" lon="-69.008">
        <ele>4318</ele>
        <time>2025-10-18T21:10:03Z</time>
      </trkpt>
      <trkpt lat="-18.11341" lon="-69.00799">
        <ele>4318</ele>
        <time>2025-10-18T21:10:07Z</time>
      </trkpt>
      <trkpt lat="-18.11354" lon="-69.00788">
        <ele>4318</ele>
        <time>2025-10-18T21:10:25Z</time>
      </trkpt>
      <trkpt lat="-18.11374" lon="-69.00775">
        <ele>4318</ele>
        <time>2025-10-18T21:10:53Z</time>
      </trkpt>
      <trkpt lat="-18.11393" lon="-69.0076">
        <ele>4317</ele>
        <time>2025-10-18T21:11:19Z</time>
      </trkpt>
      <trkpt lat="-18.11396" lon="-69.00756">
        <ele>4316</ele>
        <time>2025-10-18T21:11:31Z</time>
      </trkpt>
      <trkpt lat="-18.11399" lon="-69.00753">
        <ele>4316</ele>
        <time>2025-10-18T21:12:09Z</time>
      </trkpt>
      <trkpt lat="-18.11402" lon="-69.0075">
        <ele>4316</ele>
        <time>2025-10-18T21:12:15Z</time>
      </trkpt>
      <trkpt lat="-18.11406" lon="-69.00746">
        <ele>4316</ele>
        <time>2025-10-18T21:12:27Z</time>
      </trkpt>
      <trkpt lat="-18.1141" lon="-69.00743">
        <ele>4317</ele>
        <time>2025-10-18T21:12:33Z</time>
      </trkpt>
      <trkpt lat="-18.1142" lon="-69.00734">
        <ele>4317</ele>
        <time>2025-10-18T21:12:47Z</time>
      </trkpt>
      <trkpt lat="-18.11422" lon="-69.00731">
        <ele>4317</ele>
        <time>2025-10-18T21:12:51Z</time>
      </trkpt>
      <trkpt lat="-18.11433" lon="-69.00721">
        <ele>4316</ele>
        <time>2025-10-18T21:13:51Z</time>
      </trkpt>
      <trkpt lat="-18.11436" lon="-69.00718">
        <ele>4316</ele>
        <time>2025-10-18T21:13:57Z</time>
      </trkpt>
      <trkpt lat="-18.11449" lon="-69.00706">
        <ele>4314</ele>
        <time>2025-10-18T21:14:15Z</time>
      </trkpt>
      <trkpt lat="-18.11474" lon="-69.00684">
        <ele>4312</ele>
        <time>2025-10-18T21:14:47Z</time>
      </trkpt>
      <trkpt lat="-18.1148" lon="-69.00679">
        <ele>4312</ele>
        <time>2025-10-18T21:14:55Z</time>
      </trkpt>
      <trkpt lat="-18.1149" lon="-69.00672">
        <ele>4311</ele>
        <time>2025-10-18T21:15:09Z</time>
      </trkpt>
      <trkpt lat="-18.11521" lon="-69.00653">
        <ele>4312</ele>
        <time>2025-10-18T21:15:39Z</time>
      </trkpt>
      <trkpt lat="-18.11531" lon="-69.00644">
        <ele>4311</ele>
        <time>2025-10-18T21:15:55Z</time>
      </trkpt>
      <trkpt lat="-18.11543" lon="-69.00637">
        <ele>4311</ele>
        <time>2025-10-18T21:16:07Z</time>
      </trkpt>
      <trkpt lat="-18.11549" lon="-69.00631">
        <ele>4311</ele>
        <time>2025-10-18T21:16:17Z</time>
      </trkpt>
      <trkpt lat="-18.11553" lon="-69.00628">
        <ele>4311</ele>
        <time>2025-10-18T21:16:21Z</time>
      </trkpt>
      <trkpt lat="-18.11577" lon="-69.00605">
        <ele>4308</ele>
        <time>2025-10-18T21:16:53Z</time>
      </trkpt>
      <trkpt lat="-18.11601" lon="-69.00583">
        <ele>4307</ele>
        <time>2025-10-18T21:17:25Z</time>
      </trkpt>
      <trkpt lat="-18.11628" lon="-69.0056">
        <ele>4306</ele>
        <time>2025-10-18T21:17:57Z</time>
      </trkpt>
      <trkpt lat="-18.11644" lon="-69.00548">
        <ele>4306</ele>
        <time>2025-10-18T21:18:17Z</time>
      </trkpt>
      <trkpt lat="-18.11646" lon="-69.00543">
        <ele>4305</ele>
        <time>2025-10-18T21:18:33Z</time>
      </trkpt>
      <trkpt lat="-18.1165" lon="-69.00541">
        <ele>4304</ele>
        <time>2025-10-18T21:18:39Z</time>
      </trkpt>
      <trkpt lat="-18.11677" lon="-69.0052">
        <ele>4304</ele>
        <time>2025-10-18T21:19:11Z</time>
      </trkpt>
      <trkpt lat="-18.11703" lon="-69.00495">
        <ele>4303</ele>
        <time>2025-10-18T21:19:43Z</time>
      </trkpt>
      <trkpt lat="-18.11731" lon="-69.00468">
        <ele>4303</ele>
        <time>2025-10-18T21:20:15Z</time>
      </trkpt>
      <trkpt lat="-18.11756" lon="-69.00442">
        <ele>4302</ele>
        <time>2025-10-18T21:20:47Z</time>
      </trkpt>
      <trkpt lat="-18.11779" lon="-69.00415">
        <ele>4301</ele>
        <time>2025-10-18T21:21:19Z</time>
      </trkpt>
      <trkpt lat="-18.11799" lon="-69.00388">
        <ele>4298</ele>
        <time>2025-10-18T21:21:51Z</time>
      </trkpt>
      <trkpt lat="-18.11802" lon="-69.00385">
        <ele>4298</ele>
        <time>2025-10-18T21:21:55Z</time>
      </trkpt>
      <trkpt lat="-18.11805" lon="-69.00383">
        <ele>4297</ele>
        <time>2025-10-18T21:21:59Z</time>
      </trkpt>
      <trkpt lat="-18.11815" lon="-69.00367">
        <ele>4297</ele>
        <time>2025-10-18T21:22:19Z</time>
      </trkpt>
      <trkpt lat="-18.11817" lon="-69.00363">
        <ele>4296</ele>
        <time>2025-10-18T21:22:23Z</time>
      </trkpt>
      <trkpt lat="-18.11834" lon="-69.00333">
        <ele>4295</ele>
        <time>2025-10-18T21:22:55Z</time>
      </trkpt>
      <trkpt lat="-18.1184" lon="-69.00322">
        <ele>4295</ele>
        <time>2025-10-18T21:23:07Z</time>
      </trkpt>
      <trkpt lat="-18.11846" lon="-69.0031">
        <ele>4295</ele>
        <time>2025-10-18T21:23:21Z</time>
      </trkpt>
      <trkpt lat="-18.11847" lon="-69.00306">
        <ele>4295</ele>
        <time>2025-10-18T21:23:25Z</time>
      </trkpt>
      <trkpt lat="-18.11856" lon="-69.00274">
        <ele>4295</ele>
        <time>2025-10-18T21:23:57Z</time>
      </trkpt>
      <trkpt lat="-18.11863" lon="-69.00249">
        <ele>4296</ele>
        <time>2025-10-18T21:24:21Z</time>
      </trkpt>
      <trkpt lat="-18.11866" lon="-69.00239">
        <ele>4296</ele>
        <time>2025-10-18T21:24:29Z</time>
      </trkpt>
      <trkpt lat="-18.11868" lon="-69.00235">
        <ele>4296</ele>
        <time>2025-10-18T21:24:33Z</time>
      </trkpt>
      <trkpt lat="-18.11877" lon="-69.00203">
        <ele>4293</ele>
        <time>2025-10-18T21:25:05Z</time>
      </trkpt>
      <trkpt lat="-18.11882" lon="-69.00182">
        <ele>4292</ele>
        <time>2025-10-18T21:25:25Z</time>
      </trkpt>
      <trkpt lat="-18.11886" lon="-69.00169">
        <ele>4291</ele>
        <time>2025-10-18T21:25:37Z</time>
      </trkpt>
      <trkpt lat="-18.11892" lon="-69.00149">
        <ele>4292</ele>
        <time>2025-10-18T21:25:57Z</time>
      </trkpt>
      <trkpt lat="-18.11893" lon="-69.00144">
        <ele>4292</ele>
        <time>2025-10-18T21:26:01Z</time>
      </trkpt>
      <trkpt lat="-18.11897" lon="-69.00131">
        <ele>4291</ele>
        <time>2025-10-18T21:26:15Z</time>
      </trkpt>
      <trkpt lat="-18.11901" lon="-69.00118">
        <ele>4292</ele>
        <time>2025-10-18T21:26:27Z</time>
      </trkpt>
      <trkpt lat="-18.11913" lon="-69.00083">
        <ele>4291</ele>
        <time>2025-10-18T21:26:59Z</time>
      </trkpt>
      <trkpt lat="-18.11928" lon="-69.00049">
        <ele>4290</ele>
        <time>2025-10-18T21:27:31Z</time>
      </trkpt>
      <trkpt lat="-18.11942" lon="-69.00019">
        <ele>4290</ele>
        <time>2025-10-18T21:27:59Z</time>
      </trkpt>
      <trkpt lat="-18.11945" lon="-69.00014">
        <ele>4291</ele>
        <time>2025-10-18T21:28:03Z</time>
      </trkpt>
      <trkpt lat="-18.11956" lon="-68.99985">
        <ele>4290</ele>
        <time>2025-10-18T21:28:31Z</time>
      </trkpt>
      <trkpt lat="-18.11959" lon="-68.99981">
        <ele>4290</ele>
        <time>2025-10-18T21:28:35Z</time>
      </trkpt>
      <trkpt lat="-18.11972" lon="-68.99947">
        <ele>4289</ele>
        <time>2025-10-18T21:29:07Z</time>
      </trkpt>
      <trkpt lat="-18.11975" lon="-68.99939">
        <ele>4288</ele>
        <time>2025-10-18T21:29:15Z</time>
      </trkpt>
      <trkpt lat="-18.11977" lon="-68.99935">
        <ele>4288</ele>
        <time>2025-10-18T21:29:19Z</time>
      </trkpt>
      <trkpt lat="-18.11978" lon="-68.9993">
        <ele>4288</ele>
        <time>2025-10-18T21:29:23Z</time>
      </trkpt>
      <trkpt lat="-18.11983" lon="-68.99915">
        <ele>4287</ele>
        <time>2025-10-18T21:29:39Z</time>
      </trkpt>
      <trkpt lat="-18.11988" lon="-68.99903">
        <ele>4287</ele>
        <time>2025-10-18T21:29:58Z</time>
      </trkpt>
      <trkpt lat="-18.12001" lon="-68.99868">
        <ele>4288</ele>
        <time>2025-10-18T21:30:30Z</time>
      </trkpt>
      <trkpt lat="-18.12013" lon="-68.99834">
        <ele>4287</ele>
        <time>2025-10-18T21:31:02Z</time>
      </trkpt>
      <trkpt lat="-18.12024" lon="-68.99799">
        <ele>4286</ele>
        <time>2025-10-18T21:31:34Z</time>
      </trkpt>
      <trkpt lat="-18.12024" lon="-68.99793">
        <ele>4285</ele>
        <time>2025-10-18T21:31:38Z</time>
      </trkpt>
      <trkpt lat="-18.12029" lon="-68.99766">
        <ele>4284</ele>
        <time>2025-10-18T21:32:02Z</time>
      </trkpt>
      <trkpt lat="-18.12036" lon="-68.99741">
        <ele>4284</ele>
        <time>2025-10-18T21:32:26Z</time>
      </trkpt>
      <trkpt lat="-18.12039" lon="-68.99729">
        <ele>4284</ele>
        <time>2025-10-18T21:32:38Z</time>
      </trkpt>
      <trkpt lat="-18.1204" lon="-68.99725">
        <ele>4284</ele>
        <time>2025-10-18T21:32:42Z</time>
      </trkpt>
      <trkpt lat="-18.12043" lon="-68.99716">
        <ele>4284</ele>
        <time>2025-10-18T21:32:50Z</time>
      </trkpt>
      <trkpt lat="-18.12045" lon="-68.99707">
        <ele>4283</ele>
        <time>2025-10-18T21:32:58Z</time>
      </trkpt>
      <trkpt lat="-18.12046" lon="-68.99703">
        <ele>4283</ele>
        <time>2025-10-18T21:33:02Z</time>
      </trkpt>
      <trkpt lat="-18.12055" lon="-68.9967">
        <ele>4283</ele>
        <time>2025-10-18T21:33:34Z</time>
      </trkpt>
      <trkpt lat="-18.12059" lon="-68.99658">
        <ele>4283</ele>
        <time>2025-10-18T21:33:46Z</time>
      </trkpt>
      <trkpt lat="-18.12061" lon="-68.99654">
        <ele>4283</ele>
        <time>2025-10-18T21:33:50Z</time>
      </trkpt>
      <trkpt lat="-18.12073" lon="-68.99619">
        <ele>4281</ele>
        <time>2025-10-18T21:34:22Z</time>
      </trkpt>
      <trkpt lat="-18.1208" lon="-68.99593">
        <ele>4280</ele>
        <time>2025-10-18T21:34:46Z</time>
      </trkpt>
      <trkpt lat="-18.12081" lon="-68.99589">
        <ele>4280</ele>
        <time>2025-10-18T21:34:50Z</time>
      </trkpt>
      <trkpt lat="-18.12083" lon="-68.99585">
        <ele>4280</ele>
        <time>2025-10-18T21:34:56Z</time>
      </trkpt>
      <trkpt lat="-18.12086" lon="-68.99573">
        <ele>4280</ele>
        <time>2025-10-18T21:35:08Z</time>
      </trkpt>
      <trkpt lat="-18.12091" lon="-68.99554">
        <ele>4282</ele>
        <time>2025-10-18T21:35:32Z</time>
      </trkpt>
      <trkpt lat="-18.12093" lon="-68.99551">
        <ele>4282</ele>
        <time>2025-10-18T21:35:40Z</time>
      </trkpt>
      <trkpt lat="-18.12096" lon="-68.99541">
        <ele>4282</ele>
        <time>2025-10-18T21:35:57Z</time>
      </trkpt>
      <trkpt lat="-18.121" lon="-68.99529">
        <ele>4280</ele>
        <time>2025-10-18T21:36:23Z</time>
      </trkpt>
      <trkpt lat="-18.121" lon="-68.99525">
        <ele>4280</ele>
        <time>2025-10-18T21:36:33Z</time>
      </trkpt>
      <trkpt lat="-18.12108" lon="-68.99497">
        <ele>4279</ele>
        <time>2025-10-18T21:37:05Z</time>
      </trkpt>
      <trkpt lat="-18.12117" lon="-68.99466">
        <ele>4277</ele>
        <time>2025-10-18T21:37:37Z</time>
      </trkpt>
      <trkpt lat="-18.12127" lon="-68.99434">
        <ele>4278</ele>
        <time>2025-10-18T21:38:09Z</time>
      </trkpt>
      <trkpt lat="-18.12133" lon="-68.99404">
        <ele>4277</ele>
        <time>2025-10-18T21:38:41Z</time>
      </trkpt>
      <trkpt lat="-18.12134" lon="-68.994">
        <ele>4276</ele>
        <time>2025-10-18T21:38:45Z</time>
      </trkpt>
      <trkpt lat="-18.12135" lon="-68.99396">
        <ele>4276</ele>
        <time>2025-10-18T21:38:49Z</time>
      </trkpt>
      <trkpt lat="-18.12146" lon="-68.99366">
        <ele>4275</ele>
        <time>2025-10-18T21:39:21Z</time>
      </trkpt>
      <trkpt lat="-18.12152" lon="-68.99351">
        <ele>4275</ele>
        <time>2025-10-18T21:39:37Z</time>
      </trkpt>
      <trkpt lat="-18.12153" lon="-68.99347">
        <ele>4274</ele>
        <time>2025-10-18T21:39:41Z</time>
      </trkpt>
      <trkpt lat="-18.12155" lon="-68.99344">
        <ele>4274</ele>
        <time>2025-10-18T21:39:47Z</time>
      </trkpt>
      <trkpt lat="-18.12159" lon="-68.99331">
        <ele>4273</ele>
        <time>2025-10-18T21:39:59Z</time>
      </trkpt>
      <trkpt lat="-18.12163" lon="-68.99322">
        <ele>4273</ele>
        <time>2025-10-18T21:40:07Z</time>
      </trkpt>
      <trkpt lat="-18.12175" lon="-68.99291">
        <ele>4273</ele>
        <time>2025-10-18T21:40:35Z</time>
      </trkpt>
      <trkpt lat="-18.12182" lon="-68.99274">
        <ele>4273</ele>
        <time>2025-10-18T21:40:51Z</time>
      </trkpt>
      <trkpt lat="-18.12201" lon="-68.99241">
        <ele>4273</ele>
        <time>2025-10-18T21:41:23Z</time>
      </trkpt>
      <trkpt lat="-18.12226" lon="-68.99214">
        <ele>4272</ele>
        <time>2025-10-18T21:41:55Z</time>
      </trkpt>
      <trkpt lat="-18.12229" lon="-68.99211">
        <ele>4272</ele>
        <time>2025-10-18T21:41:59Z</time>
      </trkpt>
      <trkpt lat="-18.12231" lon="-68.99207">
        <ele>4272</ele>
        <time>2025-10-18T21:42:03Z</time>
      </trkpt>
      <trkpt lat="-18.12232" lon="-68.99202">
        <ele>4271</ele>
        <time>2025-10-18T21:42:11Z</time>
      </trkpt>
      <trkpt lat="-18.1224" lon="-68.99201">
        <ele>4270</ele>
        <time>2025-10-18T21:42:19Z</time>
      </trkpt>
      <trkpt lat="-18.12244" lon="-68.99201">
        <ele>4270</ele>
        <time>2025-10-18T21:42:23Z</time>
      </trkpt>
      <trkpt lat="-18.12244" lon="-68.99197">
        <ele>4271</ele>
        <time>2025-10-18T21:42:59Z</time>
      </trkpt>
      <trkpt lat="-18.12239" lon="-68.99195">
        <ele>4270</ele>
        <time>2025-10-18T21:43:05Z</time>
      </trkpt>
      <trkpt lat="-18.12236" lon="-68.99192">
        <ele>4270</ele>
        <time>2025-10-18T21:43:09Z</time>
      </trkpt>
      <trkpt lat="-18.12233" lon="-68.99184">
        <ele>4270</ele>
        <time>2025-10-18T21:43:17Z</time>
      </trkpt>
      <trkpt lat="-18.12231" lon="-68.9918">
        <ele>4270</ele>
        <time>2025-10-18T21:43:21Z</time>
      </trkpt>
      <trkpt lat="-18.12229" lon="-68.99176">
        <ele>4270</ele>
        <time>2025-10-18T21:43:25Z</time>
      </trkpt>
      <trkpt lat="-18.12227" lon="-68.99167">
        <ele>4270</ele>
        <time>2025-10-18T21:43:33Z</time>
      </trkpt>
      <trkpt lat="-18.12227" lon="-68.99157">
        <ele>4270</ele>
        <time>2025-10-18T21:43:41Z</time>
      </trkpt>
      <trkpt lat="-18.12244" lon="-68.99125">
        <ele>4269</ele>
        <time>2025-10-18T21:44:13Z</time>
      </trkpt>
      <trkpt lat="-18.12247" lon="-68.99122">
        <ele>4269</ele>
        <time>2025-10-18T21:44:17Z</time>
      </trkpt>
      <trkpt lat="-18.12265" lon="-68.99091">
        <ele>4267</ele>
        <time>2025-10-18T21:44:49Z</time>
      </trkpt>
      <trkpt lat="-18.1226" lon="-68.99089">
        <ele>4267</ele>
        <time>2025-10-18T21:44:55Z</time>
      </trkpt>
      <trkpt lat="-18.12262" lon="-68.99085">
        <ele>4267</ele>
        <time>2025-10-18T21:44:57Z</time>
      </trkpt>
      <trkpt lat="-18.12288" lon="-68.99053">
        <ele>4266</ele>
        <time>2025-10-18T21:45:29Z</time>
      </trkpt>
      <trkpt lat="-18.12303" lon="-68.9903">
        <ele>4267</ele>
        <time>2025-10-18T21:45:53Z</time>
      </trkpt>
      <trkpt lat="-18.12309" lon="-68.99018">
        <ele>4266</ele>
        <time>2025-10-18T21:46:05Z</time>
      </trkpt>
      <trkpt lat="-18.12322" lon="-68.98997">
        <ele>4265</ele>
        <time>2025-10-18T21:46:25Z</time>
      </trkpt>
      <trkpt lat="-18.12328" lon="-68.98985">
        <ele>4265</ele>
        <time>2025-10-18T21:46:37Z</time>
      </trkpt>
      <trkpt lat="-18.12349" lon="-68.98955">
        <ele>4264</ele>
        <time>2025-10-18T21:47:09Z</time>
      </trkpt>
      <trkpt lat="-18.12368" lon="-68.98929">
        <ele>4263</ele>
        <time>2025-10-18T21:47:37Z</time>
      </trkpt>
      <trkpt lat="-18.12381" lon="-68.98904">
        <ele>4263</ele>
        <time>2025-10-18T21:48:01Z</time>
      </trkpt>
      <trkpt lat="-18.12398" lon="-68.9887">
        <ele>4262</ele>
        <time>2025-10-18T21:48:33Z</time>
      </trkpt>
      <trkpt lat="-18.12411" lon="-68.9884">
        <ele>4262</ele>
        <time>2025-10-18T21:49:01Z</time>
      </trkpt>
      <trkpt lat="-18.12419" lon="-68.98829">
        <ele>4263</ele>
        <time>2025-10-18T21:49:13Z</time>
      </trkpt>
      <trkpt lat="-18.12438" lon="-68.98797">
        <ele>4261</ele>
        <time>2025-10-18T21:49:45Z</time>
      </trkpt>
      <trkpt lat="-18.1246" lon="-68.98769">
        <ele>4260</ele>
        <time>2025-10-18T21:50:17Z</time>
      </trkpt>
      <trkpt lat="-18.12481" lon="-68.98739">
        <ele>4257</ele>
        <time>2025-10-18T21:50:49Z</time>
      </trkpt>
      <trkpt lat="-18.12502" lon="-68.9871">
        <ele>4256</ele>
        <time>2025-10-18T21:51:21Z</time>
      </trkpt>
      <trkpt lat="-18.12519" lon="-68.98685">
        <ele>4255</ele>
        <time>2025-10-18T21:51:49Z</time>
      </trkpt>
      <trkpt lat="-18.1252" lon="-68.98681">
        <ele>4255</ele>
        <time>2025-10-18T21:51:53Z</time>
      </trkpt>
      <trkpt lat="-18.12535" lon="-68.98666">
        <ele>4255</ele>
        <time>2025-10-18T21:52:13Z</time>
      </trkpt>
      <trkpt lat="-18.12561" lon="-68.98641">
        <ele>4253</ele>
        <time>2025-10-18T21:52:45Z</time>
      </trkpt>
      <trkpt lat="-18.12586" lon="-68.98616">
        <ele>4252</ele>
        <time>2025-10-18T21:53:17Z</time>
      </trkpt>
      <trkpt lat="-18.12609" lon="-68.98591">
        <ele>4251</ele>
        <time>2025-10-18T21:53:49Z</time>
      </trkpt>
      <trkpt lat="-18.12634" lon="-68.98565">
        <ele>4250</ele>
        <time>2025-10-18T21:54:21Z</time>
      </trkpt>
      <trkpt lat="-18.12659" lon="-68.9854">
        <ele>4249</ele>
        <time>2025-10-18T21:54:53Z</time>
      </trkpt>
      <trkpt lat="-18.12684" lon="-68.98515">
        <ele>4247</ele>
        <time>2025-10-18T21:55:25Z</time>
      </trkpt>
      <trkpt lat="-18.127" lon="-68.98501">
        <ele>4248</ele>
        <time>2025-10-18T21:55:45Z</time>
      </trkpt>
      <trkpt lat="-18.12703" lon="-68.98498">
        <ele>4248</ele>
        <time>2025-10-18T21:55:49Z</time>
      </trkpt>
      <trkpt lat="-18.12708" lon="-68.98496">
        <ele>4248</ele>
        <time>2025-10-18T21:55:53Z</time>
      </trkpt>
      <trkpt lat="-18.12711" lon="-68.98493">
        <ele>4248</ele>
        <time>2025-10-18T21:55:57Z</time>
      </trkpt>
      <trkpt lat="-18.12715" lon="-68.9849">
        <ele>4248</ele>
        <time>2025-10-18T21:56:01Z</time>
      </trkpt>
      <trkpt lat="-18.12722" lon="-68.98489">
        <ele>4247</ele>
        <time>2025-10-18T21:56:05Z</time>
      </trkpt>
      <trkpt lat="-18.12733" lon="-68.98489">
        <ele>4246</ele>
        <time>2025-10-18T21:56:17Z</time>
      </trkpt>
      <trkpt lat="-18.12759" lon="-68.9849">
        <ele>4247</ele>
        <time>2025-10-18T21:56:41Z</time>
      </trkpt>
      <trkpt lat="-18.12768" lon="-68.98488">
        <ele>4247</ele>
        <time>2025-10-18T21:56:49Z</time>
      </trkpt>
      <trkpt lat="-18.12784" lon="-68.98485">
        <ele>4247</ele>
        <time>2025-10-18T21:57:05Z</time>
      </trkpt>
      <trkpt lat="-18.12786" lon="-68.98484">
        <ele>4247</ele>
        <time>2025-10-18T21:57:17Z</time>
      </trkpt>
      <trkpt lat="-18.12826" lon="-68.98475">
        <ele>4247</ele>
        <time>2025-10-18T21:57:47Z</time>
      </trkpt>
      <trkpt lat="-18.12851" lon="-68.98469">
        <ele>4247</ele>
        <time>2025-10-18T21:58:11Z</time>
      </trkpt>
      <trkpt lat="-18.1287" lon="-68.98467">
        <ele>4246</ele>
        <time>2025-10-18T21:58:27Z</time>
      </trkpt>
      <trkpt lat="-18.12905" lon="-68.98459">
        <ele>4247</ele>
        <time>2025-10-18T21:58:59Z</time>
      </trkpt>
      <trkpt lat="-18.1291" lon="-68.98457">
        <ele>4247</ele>
        <time>2025-10-18T21:59:03Z</time>
      </trkpt>
      <trkpt lat="-18.12931" lon="-68.98451">
        <ele>4246</ele>
        <time>2025-10-18T21:59:23Z</time>
      </trkpt>
      <trkpt lat="-18.12948" lon="-68.98446">
        <ele>4245</ele>
        <time>2025-10-18T21:59:39Z</time>
      </trkpt>
      <trkpt lat="-18.12961" lon="-68.98436">
        <ele>4244</ele>
        <time>2025-10-18T21:59:55Z</time>
      </trkpt>
      <trkpt lat="-18.12989" lon="-68.98422">
        <ele>4244</ele>
        <time>2025-10-18T22:00:23Z</time>
      </trkpt>
      <trkpt lat="-18.12993" lon="-68.98419">
        <ele>4244</ele>
        <time>2025-10-18T22:00:27Z</time>
      </trkpt>
      <trkpt lat="-18.12995" lon="-68.98415">
        <ele>4244</ele>
        <time>2025-10-18T22:00:31Z</time>
      </trkpt>
      <trkpt lat="-18.13008" lon="-68.98409">
        <ele>4244</ele>
        <time>2025-10-18T22:00:43Z</time>
      </trkpt>
      <trkpt lat="-18.13016" lon="-68.98404">
        <ele>4243</ele>
        <time>2025-10-18T22:00:51Z</time>
      </trkpt>
      <trkpt lat="-18.1302" lon="-68.98403">
        <ele>4243</ele>
        <time>2025-10-18T22:00:55Z</time>
      </trkpt>
      <trkpt lat="-18.13025" lon="-68.98402">
        <ele>4242</ele>
        <time>2025-10-18T22:00:59Z</time>
      </trkpt>
      <trkpt lat="-18.13045" lon="-68.98411">
        <ele>4242</ele>
        <time>2025-10-18T22:01:19Z</time>
      </trkpt>
      <trkpt lat="-18.13052" lon="-68.98416">
        <ele>4242</ele>
        <time>2025-10-18T22:01:27Z</time>
      </trkpt>
      <trkpt lat="-18.13057" lon="-68.98417">
        <ele>4241</ele>
        <time>2025-10-18T22:01:31Z</time>
      </trkpt>
      <trkpt lat="-18.13061" lon="-68.98418">
        <ele>4242</ele>
        <time>2025-10-18T22:02:41Z</time>
      </trkpt>
      <trkpt lat="-18.13066" lon="-68.98418">
        <ele>4242</ele>
        <time>2025-10-18T22:02:45Z</time>
      </trkpt>
      <trkpt lat="-18.13082" lon="-68.98417">
        <ele>4241</ele>
        <time>2025-10-18T22:02:57Z</time>
      </trkpt>
      <trkpt lat="-18.13098" lon="-68.98414">
        <ele>4241</ele>
        <time>2025-10-18T22:03:09Z</time>
      </trkpt>
      <trkpt lat="-18.13109" lon="-68.98412">
        <ele>4241</ele>
        <time>2025-10-18T22:03:17Z</time>
      </trkpt>
      <trkpt lat="-18.13131" lon="-68.98401">
        <ele>4242</ele>
        <time>2025-10-18T22:03:37Z</time>
      </trkpt>
      <trkpt lat="-18.13166" lon="-68.98379">
        <ele>4239</ele>
        <time>2025-10-18T22:04:09Z</time>
      </trkpt>
      <trkpt lat="-18.13203" lon="-68.98354">
        <ele>4239</ele>
        <time>2025-10-18T22:04:41Z</time>
      </trkpt>
      <trkpt lat="-18.13236" lon="-68.98318">
        <ele>4235</ele>
        <time>2025-10-18T22:05:13Z</time>
      </trkpt>
      <trkpt lat="-18.13265" lon="-68.98288">
        <ele>4235</ele>
        <time>2025-10-18T22:05:45Z</time>
      </trkpt>
      <trkpt lat="-18.13295" lon="-68.98263">
        <ele>4234</ele>
        <time>2025-10-18T22:06:17Z</time>
      </trkpt>
      <trkpt lat="-18.13306" lon="-68.98249">
        <ele>4234</ele>
        <time>2025-10-18T22:06:33Z</time>
      </trkpt>
      <trkpt lat="-18.13313" lon="-68.98238">
        <ele>4234</ele>
        <time>2025-10-18T22:06:45Z</time>
      </trkpt>
      <trkpt lat="-18.13322" lon="-68.98226">
        <ele>4233</ele>
        <time>2025-10-18T22:06:57Z</time>
      </trkpt>
      <trkpt lat="-18.13348" lon="-68.98198">
        <ele>4232</ele>
        <time>2025-10-18T22:07:29Z</time>
      </trkpt>
      <trkpt lat="-18.13368" lon="-68.98183">
        <ele>4232</ele>
        <time>2025-10-18T22:07:49Z</time>
      </trkpt>
      <trkpt lat="-18.13383" lon="-68.98171">
        <ele>4231</ele>
        <time>2025-10-18T22:08:05Z</time>
      </trkpt>
      <trkpt lat="-18.13396" lon="-68.98157">
        <ele>4229</ele>
        <time>2025-10-18T22:08:21Z</time>
      </trkpt>
      <trkpt lat="-18.13425" lon="-68.9814">
        <ele>4229</ele>
        <time>2025-10-18T22:08:49Z</time>
      </trkpt>
      <trkpt lat="-18.1344" lon="-68.98122">
        <ele>4229</ele>
        <time>2025-10-18T22:09:09Z</time>
      </trkpt>
      <trkpt lat="-18.13458" lon="-68.98093">
        <ele>4229</ele>
        <time>2025-10-18T22:09:37Z</time>
      </trkpt>
      <trkpt lat="-18.13462" lon="-68.98079">
        <ele>4229</ele>
        <time>2025-10-18T22:09:49Z</time>
      </trkpt>
      <trkpt lat="-18.13475" lon="-68.98049">
        <ele>4227</ele>
        <time>2025-10-18T22:10:17Z</time>
      </trkpt>
      <trkpt lat="-18.13476" lon="-68.98045">
        <ele>4226</ele>
        <time>2025-10-18T22:10:21Z</time>
      </trkpt>
      <trkpt lat="-18.13477" lon="-68.9804">
        <ele>4226</ele>
        <time>2025-10-18T22:10:25Z</time>
      </trkpt>
      <trkpt lat="-18.13477" lon="-68.98028">
        <ele>4225</ele>
        <time>2025-10-18T22:10:37Z</time>
      </trkpt>
      <trkpt lat="-18.13481" lon="-68.98023">
        <ele>4225</ele>
        <time>2025-10-18T22:10:49Z</time>
      </trkpt>
      <trkpt lat="-18.13484" lon="-68.9802">
        <ele>4225</ele>
        <time>2025-10-18T22:10:53Z</time>
      </trkpt>
      <trkpt lat="-18.13502" lon="-68.98013">
        <ele>4225</ele>
        <time>2025-10-18T22:11:09Z</time>
      </trkpt>
      <trkpt lat="-18.13511" lon="-68.98007">
        <ele>4225</ele>
        <time>2025-10-18T22:11:17Z</time>
      </trkpt>
      <trkpt lat="-18.13517" lon="-68.98">
        <ele>4226</ele>
        <time>2025-10-18T22:11:25Z</time>
      </trkpt>
      <trkpt lat="-18.13532" lon="-68.97968">
        <ele>4224</ele>
        <time>2025-10-18T22:11:53Z</time>
      </trkpt>
      <trkpt lat="-18.13539" lon="-68.97945">
        <ele>4224</ele>
        <time>2025-10-18T22:12:13Z</time>
      </trkpt>
      <trkpt lat="-18.1354" lon="-68.97939">
        <ele>4224</ele>
        <time>2025-10-18T22:12:17Z</time>
      </trkpt>
      <trkpt lat="-18.13533" lon="-68.97907">
        <ele>4223</ele>
        <time>2025-10-18T22:12:43Z</time>
      </trkpt>
      <trkpt lat="-18.13539" lon="-68.97872">
        <ele>4224</ele>
        <time>2025-10-18T22:13:15Z</time>
      </trkpt>
      <trkpt lat="-18.13541" lon="-68.97868">
        <ele>4224</ele>
        <time>2025-10-18T22:13:19Z</time>
      </trkpt>
      <trkpt lat="-18.13545" lon="-68.9785">
        <ele>4223</ele>
        <time>2025-10-18T22:13:35Z</time>
      </trkpt>
      <trkpt lat="-18.13547" lon="-68.97846">
        <ele>4223</ele>
        <time>2025-10-18T22:13:39Z</time>
      </trkpt>
      <trkpt lat="-18.13547" lon="-68.97843">
        <ele>4223</ele>
        <time>2025-10-18T22:13:43Z</time>
      </trkpt>
      <trkpt lat="-18.13549" lon="-68.97834">
        <ele>4223</ele>
        <time>2025-10-18T22:13:51Z</time>
      </trkpt>
      <trkpt lat="-18.1355" lon="-68.97826">
        <ele>4224</ele>
        <time>2025-10-18T22:13:59Z</time>
      </trkpt>
      <trkpt lat="-18.13552" lon="-68.97818">
        <ele>4224</ele>
        <time>2025-10-18T22:14:07Z</time>
      </trkpt>
      <trkpt lat="-18.13554" lon="-68.97815">
        <ele>4223</ele>
        <time>2025-10-18T22:14:11Z</time>
      </trkpt>
      <trkpt lat="-18.13556" lon="-68.97811">
        <ele>4223</ele>
        <time>2025-10-18T22:14:25Z</time>
      </trkpt>
      <trkpt lat="-18.13554" lon="-68.97807">
        <ele>4223</ele>
        <time>2025-10-18T22:14:29Z</time>
      </trkpt>
      <trkpt lat="-18.13566" lon="-68.97796">
        <ele>4223</ele>
        <time>2025-10-18T22:14:45Z</time>
      </trkpt>
      <trkpt lat="-18.13569" lon="-68.97794">
        <ele>4223</ele>
        <time>2025-10-18T22:14:49Z</time>
      </trkpt>
      <trkpt lat="-18.13579" lon="-68.97786">
        <ele>4223</ele>
        <time>2025-10-18T22:15:01Z</time>
      </trkpt>
      <trkpt lat="-18.13588" lon="-68.97772">
        <ele>4224</ele>
        <time>2025-10-18T22:15:35Z</time>
      </trkpt>
      <trkpt lat="-18.13589" lon="-68.97768">
        <ele>4225</ele>
        <time>2025-10-18T22:15:39Z</time>
      </trkpt>
      <trkpt lat="-18.13589" lon="-68.97759">
        <ele>4227</ele>
        <time>2025-10-18T22:15:51Z</time>
      </trkpt>
      <trkpt lat="-18.13586" lon="-68.97748">
        <ele>4230</ele>
        <time>2025-10-18T22:16:03Z</time>
      </trkpt>
      <trkpt lat="-18.13585" lon="-68.97743">
        <ele>4232</ele>
        <time>2025-10-18T22:16:09Z</time>
      </trkpt>
      <trkpt lat="-18.13585" lon="-68.97739">
        <ele>4233</ele>
        <time>2025-10-18T22:16:15Z</time>
      </trkpt>
      <trkpt lat="-18.13591" lon="-68.97733">
        <ele>4234</ele>
        <time>2025-10-18T22:16:25Z</time>
      </trkpt>
      <trkpt lat="-18.13595" lon="-68.97726">
        <ele>4235</ele>
        <time>2025-10-18T22:16:35Z</time>
      </trkpt>
      <trkpt lat="-18.13596" lon="-68.97718">
        <ele>4235</ele>
        <time>2025-10-18T22:16:43Z</time>
      </trkpt>
      <trkpt lat="-18.13601" lon="-68.97686">
        <ele>4234</ele>
        <time>2025-10-18T22:17:15Z</time>
      </trkpt>
      <trkpt lat="-18.13603" lon="-68.97682">
        <ele>4233</ele>
        <time>2025-10-18T22:17:19Z</time>
      </trkpt>
      <trkpt lat="-18.13603" lon="-68.97665">
        <ele>4235</ele>
        <time>2025-10-18T22:17:35Z</time>
      </trkpt>
      <trkpt lat="-18.13605" lon="-68.97661">
        <ele>4235</ele>
        <time>2025-10-18T22:17:41Z</time>
      </trkpt>
      <trkpt lat="-18.13607" lon="-68.97658">
        <ele>4236</ele>
        <time>2025-10-18T22:17:55Z</time>
      </trkpt>
      <trkpt lat="-18.13605" lon="-68.97654">
        <ele>4237</ele>
        <time>2025-10-18T22:18:01Z</time>
      </trkpt>
      <trkpt lat="-18.13604" lon="-68.9765">
        <ele>4238</ele>
        <time>2025-10-18T22:18:29Z</time>
      </trkpt>
      <trkpt lat="-18.13607" lon="-68.97646">
        <ele>4238</ele>
        <time>2025-10-18T22:18:35Z</time>
      </trkpt>
      <trkpt lat="-18.13609" lon="-68.97625">
        <ele>4236</ele>
        <time>2025-10-18T22:18:55Z</time>
      </trkpt>
      <trkpt lat="-18.13614" lon="-68.97626">
        <ele>4235</ele>
        <time>2025-10-18T22:19:03Z</time>
      </trkpt>
      <trkpt lat="-18.13614" lon="-68.97622">
        <ele>4235</ele>
        <time>2025-10-18T22:19:07Z</time>
      </trkpt>
      <trkpt lat="-18.13614" lon="-68.97599">
        <ele>4234</ele>
        <time>2025-10-18T22:19:27Z</time>
      </trkpt>
      <trkpt lat="-18.13617" lon="-68.97587">
        <ele>4234</ele>
        <time>2025-10-18T22:19:39Z</time>
      </trkpt>
      <trkpt lat="-18.1362" lon="-68.97584">
        <ele>4234</ele>
        <time>2025-10-18T22:19:43Z</time>
      </trkpt>
      <trkpt lat="-18.13623" lon="-68.97577">
        <ele>4233</ele>
        <time>2025-10-18T22:19:51Z</time>
      </trkpt>
      <trkpt lat="-18.13628" lon="-68.9757">
        <ele>4234</ele>
        <time>2025-10-18T22:19:59Z</time>
      </trkpt>
      <trkpt lat="-18.13647" lon="-68.97556">
        <ele>4235</ele>
        <time>2025-10-18T22:20:19Z</time>
      </trkpt>
    </trkseg>
  </trk>
</gpx>